     2              OBSERVATION DATA    GPS                 RINEX VERSION / TYPE
teqc 2000Jul20 Karen Wendt 20030328 00:28:02UTC             PGM / RUN BY / DATE
                                                            COMMENT
L2: 1 -> 1; 150 -> 5; 250 -> 9                              COMMENT
L2: 1 -> 1; 150 -> 5; 250 -> 9                              COMMENT
L2: 1 -> 1; 150 -> 5; 250 -> 9                              COMMENT
L2: 1 -> 1; 150 -> 5; 250 -> 9                              COMMENT
L2: 1 -> 1; 150 -> 5; 250 -> 9                              COMMENT
L2: 1 -> 1; 150 -> 5; 250 -> 9                              COMMENT
L2: 1 -> 1; 150 -> 5; 250 -> 9                              COMMENT
L2: 1 -> 1; 150 -> 5; 250 -> 9                              COMMENT
L2: 1 -> 1; 150 -> 5; 250 -> 9                              COMMENT
L2: 1 -> 1; 150 -> 5; 250 -> 9                              COMMENT
L2: 1 -> 1; 150 -> 5; 250 -> 9                              COMMENT
L2: 1 -> 1; 150 -> 5; 250 -> 9                              COMMENT
L2: 1 -> 1; 150 -> 5; 250 -> 9                              COMMENT
L2: 1 -> 1; 150 -> 5; 250 -> 9                              COMMENT
Original Marker Name: mddf Mid-F_1974_DMG                   COMMENT
Campaign Name: USGS 2003                                    COMMENT
4-Character Station Name: MDDF                              COMMENT
6-Character Antenna Code: DMRCHT                            COMMENT
Vertical Measurement Point: BCR                             COMMENT
Vertical Offset to Rinex Ref. Point: 0.0348                 COMMENT
Radial Measurement Point: ECF                               COMMENT
Radial Offset to Rinex Ref. Point: 0.1897                   COMMENT
Antenna Height from Field Measurement: 1.3300 m             COMMENT
Additional Antenna Identification Info.:                    COMMENT
Turborogue and Ashtech Choke Ring                           COMMENT
Original XYZ: -2626452.7787 -4455189.2002 3721424.4806      COMMENT
New XYZ position is based on association with SCEC monument COMMENT
E1F1N2P5+0011. Position of that monument is believed to be  COMMENT
valid to within 1 m horizontally; vertical accuracy         COMMENT
should be no worse than 3-times this value.                 COMMENT
                                                            COMMENT
Revised Rinex header created by UCSD GPS archive for        COMMENT
GSAC on 17-Jul-2003 (2003:198) 21:02:58 GMT                 COMMENT
For assistance contact dagnew@ucsd.edu                      COMMENT
or anderson@python.ucsd.edu                                 COMMENT
                                                            COMMENT
MID F 1974                                                  MARKER NAME
CHS US GEOLOGICAL SURVEY                                    OBSERVER / AGENCY
LP03360 ASHTECH Z-XII3 CC00                                 REC # / TYPE / VERS
CR14330 DORNE-MARGOL. TYPE T                                ANT # / TYPE
 -2626470.0089 -4455162.4233  3721407.4915                  APPROX POSITION XYZ
        1.2816        0.0000        0.0000                  ANTENNA: DELTA H/E/N
     1     1     0                                          WAVELENGTH FACT L1/2
     5    C1    L1    L2    P1    P2                        # / TYPES OF OBSERV
    30                                                      INTERVAL
  2003     3    26    16    18    0.000000                  TIME OF FIRST OBS
  2003     3    26    23    59   30.000000                  TIME OF LAST OBS
                                                            END OF HEADER
 03  3 26 16 18  0.0000000  0  5G24G 5G 4G 7G 9
  21822105.501     -248474.04349   -176844.97247  21822105.921    21822114.053
  23098653.424     -242341.94549   -169562.58046  23098653.974    23098661.307
  20855021.535      -83299.22649    -53962.92447  20855021.849    20855027.920
  22169509.815      134851.49749     99242.41147  22169509.438
  22169516.246      -75765.49449    -56018.23243
 03  3 26 16 18 29.9990000  0  6G28G24G 5G 4G 7G 9
                    148582.90949    102894.70245  23750338.877    21505059.552
                   -339144.03149   -247496.85447  21505059.557    21505067.687
  22780736.596     -337588.18149   -243780.39845  22780736.634    22780743.890
  20549672.641     -112496.73149    -76714.18747  20549673.357    20549679.436
  21878834.170      182758.45749    136572.45547  21878833.419
  21878840.220     -100599.50849    -11738.80547                  20881125.943
 03  3 26 16 19  0.0000000  0  6G28G24G 5G 4G 7G 9
  23857295.067     -864736.67349   -686705.09545  23857293.170    23857303.250
  21582679.512    -1506669.48649  -1157256.89647  21582679.362    21582687.422
  22857423.977    -1510012.73749  -1157357.95046  22857424.225    22857431.307
  20639032.259    -1218330.37749   -938402.73047  20639032.715    20639038.806
  21982768.681     -846481.44049   -665432.71747  21982768.036    21982774.826
  20971305.271    -1202093.08449   -870045.50047  20971305.038    20971311.122
 03  3 26 16 19 30.0000000  0  6G28G24G 5G 4G 7G 9
  23871989.020     -787523.05049   -626538.72545  23871986.997    23871996.462
  21568071.024    -1583437.87749  -1217076.34547  21568070.775    21568078.827
  22841821.885    -1592003.98849  -1221247.24446  22841821.786    22841828.901
  20636204.220    -1233192.37049   -949983.47347  20636204.563    20636210.659
  21994417.437     -785265.55449   -617732.07547  21994416.982    21994423.871
  20969298.526    -1212638.50349   -878262.74247  20969298.367    20969304.434
 03  3 26 16 20  0.0000000  0  6G28G24G 5G 4G 7G 9
  23886717.098     -710124.07749   -566227.97445  23886715.851    23886725.144
  21553540.129    -1659797.69949  -1276577.44747  21553540.005    21553547.998
  22826235.474    -1673911.91349  -1285071.56146  22826235.256    22826242.451
  20633494.568    -1247432.00949   -961079.27347  20633494.869    20633500.989
  22006086.760     -723942.81749   -569948.17847  22006086.343    22006093.316
  20967405.777    -1222585.05949   -886013.32447  20967405.647    20967411.714
 03  3 26 16 20 30.0000000  0  6G28G24G 5G 4G 7G 9
  23901480.500     -632540.25849   -505773.16645  23901479.649    23901488.946
  21539087.459    -1735747.39849  -1335758.96947  21539087.250    21539095.301
  22810665.014    -1755735.58049  -1348830.23946  22810664.755    22810671.921
  20630903.268    -1261049.35349   -971690.17447  20630903.583    20630909.704
  22017776.147     -662514.66349   -522082.15347  22017775.791    22017782.840
  20965626.947    -1231932.84549   -893297.33547  20965626.848    20965632.908
 03  3 26 16 21  0.0000000  0  6G28G24G 5G 4G 7G 9
  23916278.974     -554774.13149   -445176.27445  23916278.335    23916287.369
  21524712.606    -1811286.95349  -1394620.90547  21524712.482    21524720.611
  22795110.436    -1837476.06849  -1412524.09846  22795110.074    22795117.226
  20628430.115    -1274046.09449   -981817.48347  20628430.395    20628436.505
  22029485.060     -600984.54449   -474136.66847  22029484.695    22029491.735
  20963961.798    -1240683.61249   -900116.13547  20963961.701    20963967.719
 03  3 26 16 21 30.0000000  0  6G28G24G 5G 4G 7G 9
  23931111.922     -476826.68349   -384438.11345  23931111.396    23931120.418
  21510416.404    -1886414.28149  -1453161.62047  21510416.229    21510424.337
  22779571.753    -1919132.69949  -1476152.61546  22779571.401    22779578.553
  20626074.933    -1286422.75949   -991461.62947  20626075.185    20626081.296
  22041213.063     -539354.04949   -426112.96447  22041212.656    22041219.703
  20962410.246    -1248837.36549   -906469.73147  20962410.145    20962416.188
 03  3 26 16 22  0.0000000  0  6G28G24G 5G 4G 7G 9
  23945979.556     -398696.75449   -323557.75745  23945979.133    23945988.172
  21496199.146    -1961125.83849  -1511378.36147  21496198.981    21496207.193
  22764049.423    -2000702.67549  -1539713.61546  22764049.097    22764056.363
  20623838.173    -1298177.39149  -1000621.07047  20623838.434    20623844.460
  22052960.185     -477622.55049   -378010.55947  22052959.813    22052966.889
  20960972.536    -1256392.55549   -912356.91048  20960972.481    20960978.541
 03  3 26 16 22 30.0000000  0  6G28G24G 5G 4G 7G 9
  23960882.193     -320382.93049   -262534.11145  23960881.846    23960891.028
  21482061.757    -2035417.69649  -1569268.07347  21482061.658    21482069.929
  22748544.144    -2082183.18749  -1603204.88846  22748543.861    22748551.079
  20621720.119    -1309308.19649  -1009294.40948  20621720.350    20621726.373
  22064726.587     -415789.72649   -329829.19647  22064726.238    22064733.414
  20959649.138    -1263347.12849   -917776.07948  20959649.107    20959655.147
 03  3 26 16 23  0.0000000  0  6G28G24G 5G 4G 7G 9
  23975818.979     -241890.57449   -201371.32645  23975818.476    23975827.536
  21468003.954    -2109292.48249  -1626832.79147  21468003.780    21468012.016
  22733055.430    -2163577.75849  -1666629.18946  22733055.073    22733062.300
  20619719.853    -1319819.71649  -1017485.19648  20619720.085    20619726.135
  22076511.147     -353861.40749   -281573.42647  22076510.819    22076518.050
  20958439.124    -1269705.91749   -922731.00147  20958439.104    20958445.140
 03  3 26 16 23 30.0000000  0  6G28G24G 5G 4G 7G 9
  23990790.186     -163217.32449   -140067.59145  23990789.572    23990798.630
  21454026.298    -2182745.44949  -1684068.82647  21454026.107    21454034.330
  22717583.714    -2244882.42849  -1729983.44546  22717583.294    22717590.559
  20617837.934    -1329709.20549  -1025191.27848  20617838.198    20617844.248
  22088314.218     -291836.09649   -233242.06947  22088313.868    22088321.120
  20957343.173    -1275465.72549   -927219.18148  20957343.143    20957349.135
 03  3 26 16 24  0.0000000  0  6G28G24G 5G 4G 7G 9
  24005796.134      -84361.38749    -78621.51145  24005795.444    24005804.683
  21440129.784    -2255771.66649  -1740972.32947  21440129.647    21440137.863
  22702129.704    -2326093.54049  -1793264.80346  22702129.333    22702136.586
  20616074.757    -1338974.54649  -1032411.02147  20616075.008    20616081.135
  22100136.035     -229712.53949   -184834.16247  22100135.684    22100142.950
  20956361.569    -1280624.28349   -931238.85548  20956361.523    20956367.558
 03  3 26 16 24 30.0000000  0  6G28G24G 5G 4G 7G 9
  24020836.345       -5323.80949    -17033.89445  24020835.971    24020845.303
  21426314.715    -2328370.13049  -1797542.52747  21426314.601    21426322.826
  22686693.566    -2407210.87249  -1856473.07946  22686693.249    22686700.478
  20614430.284    -1347616.40349  -1039144.93347  20614430.527    20614436.616
  22111976.215     -167492.85349   -136351.34747  22111975.818    22111983.039
  20955494.221    -1285182.54649   -934790.77048  20955494.163    20955500.182
 03  3 26 16 25  0.0000000  0  6G28G24G 5G 4G 7G 9
  24035911.230       73894.83049     44694.80845  24035910.935    24035920.245
  21412581.603    -2400538.44749  -1853777.54847  21412581.438    21412589.630
  22671275.676    -2488233.09749  -1919607.24546  22671275.253    22671282.464
  20612904.559    -1355634.56549  -1045392.84947  20612904.763    20612910.784
  22123834.468     -105177.91649    -87794.30947  22123834.058    22123841.273
  20954741.236    -1289140.05149   -937874.55747  20954741.144    20954747.098
 03  3 26 16 25 30.0000000  0  6G28G24G 5G 4G 7G 9
  24051020.121      153292.52249    106563.02545  24051019.906    24051029.153
  21398930.206    -2472276.71049  -1909677.47347  21398930.099    21398938.297
  22655875.661    -2569160.90749  -1982667.85046  22655875.174    22655882.384
  20611497.141    -1363030.78249  -1051156.13947  20611497.337    20611503.335
  22135710.204      -42770.63249    -39165.32947  22135709.827    22135717.075
  20954102.142    -1292498.45349   -940491.51447  20954102.087    20954108.057
 03  3 26 16 26  0.0000000  0  6G28G24G 5G 4G 7G 9
  24066163.215      232870.05349    168571.37845  24066162.932    24066172.283
  21385361.337    -2543581.74449  -1965239.80547  21385361.242    21385369.396
  22640494.203    -2649991.59249  -2045652.77246  22640493.612    22640500.816
  20610208.332    -1369803.81449  -1056433.83348  20610208.529    20610214.511
  22147603.576       19729.16449      9535.74847  22147603.233    22147610.477
  20953577.388    -1295256.36949   -942640.56047  20953577.310    20953583.250
 03  3 26 16 26 30.0000000  0  6G28G24G 5G 4G 7G 9
  24081340.821      312628.07349    230720.33745  24081340.654    24081349.966
  21371875.611    -2614450.06049  -2020461.85747  21371875.458    21371883.573
  22625131.481    -2730722.90749  -2108560.26646  22625130.888    22625138.199
  20609038.262    -1375952.67849  -1061225.17848  20609038.410    20609044.455
  22159514.636       82321.58349     58308.99947  22159514.307    22159521.513
  20953167.093    -1297412.99449   -944321.06948  20953166.984    20953172.888
 03  3 26 16 27  0.0000000  0  6G28G24G 5G 4G 7G 9
  24096552.301      392563.69049    293007.71545  24096552.054    24096561.287
  21358472.881    -2684882.11249  -2075343.96047  21358472.687    21358480.747
  22609787.450    -2811355.80349  -2171391.06646  22609786.930    22609794.284
  20607986.572    -1381479.59649  -1065531.88648  20607986.738    20607992.806
  22171442.747      145003.08249    107151.66847  22171442.330    22171449.485
  20952870.749    -1298970.60449   -945534.80748  20952870.639    20952876.585
 03  3 26 16 27 30.0000000  0  6G28G24G 5G 4G 7G 9
  24111797.601      472678.05949    355434.38745  24111797.210    24111806.627
  21345153.859    -2754873.80649  -2129882.92047  21345153.698    21345161.706
  22594462.743    -2891887.31849  -2234142.87946  22594462.289    22594469.619
  20607053.515    -1386383.21549  -1069352.90648  20607053.673    20607059.690
  22183387.839      207774.36949    156064.29847  22183387.400    22183394.524
  20952688.619    -1299927.64149   -946280.56848  20952688.526    20952694.559
 03  3 26 16 28  0.0000000  0  6G28G24G 5G 4G 7G 9
  24127076.955      552970.32349    417999.65445  24127076.482    24127085.952
  21331919.077    -2824423.38149  -2184077.37747  21331918.880    21331926.855
  22579157.635    -2972316.70049  -2296815.08146  22579157.215    22579164.379
  20606238.916    -1390664.07149  -1072688.65848  20606239.087    20606245.101
  22195349.514      270633.67349    205045.51247  22195349.120    22195356.322
  20952620.699    -1300284.72249   -946558.83448  20952620.602    20952626.656
 03  3 26 16 28 30.0000000  0  6G28G24G 5G 4G 7G 9
  24142390.017      633440.46349    480703.51445  24142389.581    24142399.057
  21318768.649    -2893529.10749  -2237925.96347  21318768.434    21318776.433
  22563872.326    -3052642.36549  -2359406.48446  22563871.896    22563878.887
  20605542.839    -1394322.13549  -1075539.11848  20605543.000    20605549.031
  22207327.851      333580.47149    254094.90047  22207327.477    22207334.733
  20952667.015    -1300041.50349   -946369.33747  20952666.880    20952672.966
 03  3 26 16 29  0.0000000  0  6G28G24G 5G 4G 7G 9
  24157736.953      714088.59649    543546.11245  24157736.507    24157746.094
  21305703.238    -2962188.15949  -2291426.48947  21305703.059    21305711.015
  22548607.003    -3132862.43449  -2421915.61446  22548606.525    22548613.451
  20604965.327    -1397356.86849  -1077903.86648  20604965.519    20604971.566
  22219322.875      396614.29349    303212.10747  22219322.483    22219329.770
  20952827.655    -1299197.48449   -945711.68447  20952827.559    20952833.643
 03  3 26 16 29 30.0000000  0  6G28G24G 5G 4G 7G 9
  24173117.580      794914.05149    606526.83945  24173117.039    24173126.480
  21292723.278    -3030398.59549  -2344577.43747  21292723.084    21292730.945
  22533361.970    -3212975.42649  -2484341.29046  22533361.528    22533368.404
  20604506.484    -1399768.46649  -1079783.05048  20604506.667    20604512.674
  22231334.179      459733.99849    352396.22147  22231333.818    22231341.183
  20953102.701    -1297752.62349   -944585.85248  20953102.579    20953108.616
 03  3 26 16 30  0.0000000  0  6G28G24G 5G 4G 7G 9
  24188532.114      875916.75749    669645.71045  24188531.588    24188541.009
  21279829.193    -3098157.91649  -2397376.85847  21279828.961    21279836.799
  22518137.483    -3292979.82349  -2546682.35446  22518137.139    22518144.086
  20604166.159    -1401556.84949  -1081176.61548  20604166.342    20604172.381
  22243361.747      522939.06949    401646.85947  22243361.391    22243368.821
  20953492.014    -1295706.80749   -942991.72648  20953491.869    20953498.016
 03  3 26 16 30 30.0000000  0  6G28G24G 5G 4G 7G 9
  24203980.193      957096.18849    732902.29345  24203979.713    24203989.182
  21267021.179    -3165464.40349  -2449823.42247  21267020.938    21267028.778
  22502934.083    -3372874.26049  -2608937.72846  22502933.703    22502940.675
  20603944.418    -1402722.45949  -1082084.89748  20603944.596    20603950.717
  22255405.383      586228.25449    450963.05247  22255404.974    22255412.502
  20953995.673    -1293060.44749   -940929.65348  20953995.521    20954001.700
 03  3 26 16 31  0.0000000  0  6G28G24G 5G 4G 7G 9
  24219461.825     1038451.89549    796296.20345  24219461.345    24219470.783
  21254299.696    -3232316.14749  -2501915.64147  21254299.455    21254307.302
  22487751.967    -3452657.12449  -2671106.16946  22487751.463    22487758.536
  20603841.229    -1403265.06949  -1082507.72248  20603841.387    20603847.510
  22267464.982      649600.93949    500344.29847  22267464.535    22267472.028
  20954613.541    -1289813.44649   -938399.54648  20954613.383    20954619.612
 03  3 26 16 31 30.0000000  0  6G28G24G 5G 4G 7G 9
  24234976.709     1119983.67449    859827.33345  24234976.345    24234985.708
  21241665.165    -3298710.78049  -2553651.66147  21241664.951    21241672.824
  22472591.282    -3532327.17649  -2733186.70646  22472590.779    22472597.888
  20603856.472    -1403185.15049  -1082445.44948  20603856.597    20603862.723
  22279540.182      713056.02149    549789.75947  22279539.725    22279547.242
  20955345.677    -1285965.86949   -935401.46047  20955345.516    20955351.835
 03  3 26 16 32  0.0000000  0  6G28G24G 5G 4G 7G 9
  24250525.315     1201691.21749    923495.40045  24250525.010    24250534.098
  21229118.118    -3364646.09949  -2605029.77447  21229117.887    21229125.793
  22457452.363    -3611882.58749  -2795177.91346  22457451.919    22457459.068
  20603990.094    -1402482.86849  -1081898.22347  20603990.254    20603996.358
  22291630.861      776592.94249    599298.99547  22291630.445    22291637.957
  20956192.182    -1281517.88449   -931935.52847  20956192.020    20956198.294
 03  3 26 16 32 30.0000000  0  6G28G24G 5G 4G 7G 9
  24266107.326     1283572.48849    987298.85045  24266106.744    24266115.802
  21216658.506    -3430121.75549  -2656049.70447  21216658.293    21216666.195
  22442335.310    -3691323.66849  -2857080.03346  22442334.765    22442342.021
  20604241.869    -1401159.99049  -1080867.40947  20604242.020    20604248.092
  22303736.619      840209.18049    648870.02346  22303736.284    22303743.768
  20957152.583    -1276471.16749   -928003.04747  20957152.395    20957158.642
 03  3 26 16 33  0.0000000  0  6G28G24G 5G 4G 7G 9
  24281722.182     1365628.19749   1051238.23345  24281721.673    24281730.613
  21204286.860    -3495134.97649  -2706709.29547  21204286.648    21204294.530
  22427240.405    -3770647.90749  -2918891.09946  22427239.875    22427247.111
  20604611.845    -1399215.73049  -1079352.40847  20604611.974    20604618.091
  22315857.571      903904.84849    698502.95046  22315857.244    22315864.692
  20958227.058    -1270824.76349   -923603.27947  20958226.911    20958233.090
 03  3 26 16 33 30.0000000  0  6G28G24G 5G 4G 7G 9
  24297370.155     1447858.68449   1115313.78545  24297369.720    24297378.681
  21192003.754    -3559683.09649  -2757006.47647  21192003.531    21192011.409
  22412168.235    -3849852.85449  -2980609.21246  22412167.629    22412174.865
  20605100.169    -1396649.62549  -1077352.84447  20605100.346    20605106.440
  22327993.668      967679.96649    748197.78646  22327993.312    22328000.798
  20959415.770    -1264578.19249   -918735.85147  20959415.648    20959421.784
 03  3 26 16 34  0.0000000  0  6G28G24G 5G 4G 7G 9
  24313051.417     1530263.18549   1179524.93345  24313051.014    24313059.874
  21179809.554    -3623763.88849  -2806939.50547  21179809.323    21179817.190
  22397118.880    -3928937.37249  -3042233.51146  22397118.298    22397125.545
  20605706.768    -1393462.29649  -1074869.21248  20605706.906    20605712.970
  22340144.730     1031533.45849    797953.68046  22340144.300    22340151.794
  20960718.547    -1257732.09549   -913401.26547  20960718.447    20960724.576
 03  3 26 16 34 30.0000000  0  6G28G24G 5G 4G 7G 9
  24328765.534     1612841.40749   1243871.44445  24328765.027    24328774.276
  21167704.564    -3687375.82249  -2856507.19047  21167704.353    21167712.199
  22382092.568    -4007900.17149  -3103762.93246  22382092.100    22382099.479
  20606431.446    -1389654.15749  -1071901.82648  20606431.594    20606437.673
  22352310.555     1095464.29349    847769.85046  22352310.018    22352317.449
  20962135.357    -1250286.89649   -907599.83847  20962135.256    20962141.428
 03  3 26 16 35  0.0000000  0  6G28G24G 5G 4G 7G 9
  24344512.459     1695593.27949   1308353.27845  24344511.996    24344521.624
  21155689.252    -3750516.27949  -2905707.48947  21155689.052    21155696.922
  22367089.939    -4086739.07849  -3165195.82246  22367089.466    22367096.927
  20607274.317    -1385225.07749  -1068450.58348  20607274.451    20607280.535
  22364490.926     1159472.32449    897646.17446  22364490.336    22364497.832
  20963666.325    -1242242.23449   -901331.30147  20963666.176    20963672.336
 03  3 26 16 35 30.0000000  0  6G28G24G 5G 4G 7G 9
  24360292.873     1778517.12849   1372969.08245  24360292.199    24360302.043
  21143763.788    -3813184.66549  -2954539.95747  21143763.607    21143771.501
  22352111.070    -4165453.63949  -3226531.82946  22352110.576    22352118.026
  20608234.989    -1380176.77249  -1064516.83548  20608235.116    20608241.199
  22376685.426     1223555.34949    947580.93846  22376684.874    22376692.495
  20965311.039    -1233599.52449   -894596.76048  20965310.887    20965317.049
 03  3 26 16 36  0.0000000  0  6G28G24G 5G 4G 7G 9
  24376105.501     1861612.03949   1437718.19445  24376104.754    24376114.590
  21131928.462    -3875379.65049  -3003003.53747  21131928.310    21131936.229
  22337156.048    -4244042.83349  -3287770.14146  22337155.599    22337163.007
  20609313.304    -1374510.17549  -1060101.29648  20609313.439    20609319.520
  22388893.963     1287712.05949    997573.12146  22388893.412    22388901.148
  20967069.385    -1224359.82349   -887397.02748  20967069.240    20967075.383
 03  3 26 16 36 30.0000000  0  6G28G24G 5G 4G 7G 9
  24391950.532     1944878.81449   1502601.21745  24391950.053    24391960.027
  21120183.906    -3937098.05349  -3051095.76247  21120183.681    21120191.561
  22322225.480    -4322503.82049  -3348908.55946  22322225.025    22322232.414
  20610509.501    -1368224.32749  -1055203.22348  20610509.631    20610515.696
  22401116.786     1351943.03549   1047623.16946  22401116.230    22401123.994
  20968941.470    -1214522.13249   -879731.33548  20968941.294    20968947.483
 03  3 26 16 37  0.0000000  0  6G28G24G 5G 4G 7G 9
  24407828.314     2028316.32149   1567617.26845  24407827.902    24407837.770
  21108530.175    -3998338.87749  -3098815.83547  21108529.909    21108537.785
  22307319.325    -4400835.91649  -3409946.52846  22307318.914    22307326.306
  20611823.237    -1361320.64749  -1049823.71948  20611823.382    20611829.476
  22413353.488     1416246.64649   1097729.81646  22413352.869    22413360.674
  20970927.130    -1204087.54249   -871600.51848  20970926.979    20970933.176
 03  3 26 16 37 30.0000000  0  6G28G24G 5G 4G 7G 9
  24423738.571     2111924.58549   1632766.37145  24423737.978    24423748.029
  21096967.639    -4059099.56749  -3146161.79247  21096967.473    21096975.325
  22292438.220    -4479037.13149  -3470882.51846  22292437.667    22292445.061
  20613254.548    -1353799.10149  -1043962.76248  20613254.651    20613260.788
  22425603.851     1480622.60849   1147892.84346  22425603.278    22425611.089
  20973026.362    -1193056.06449   -863004.59948  20973026.176    20973032.477
 03  3 26 16 38  0.0000000  0  6G28G24G 5G 4G 7G 9
  24439681.055     2195702.74249   1698047.87145  24439680.540    24439690.615
  21085496.896    -4119378.67149  -3193132.49447  21085496.754    21085504.534
  22277582.212    -4557106.33049  -3531715.64146  22277581.601    22277588.951
  20614803.110    -1345660.82149  -1037621.23947  20614803.249    20614809.477
  22437867.861     1545069.67749   1198111.26946  22437867.248    22437875.005
  20975238.962    -1181428.68649   -853944.34748  20975238.814    20975245.174
 03  3 26 16 38 30.0000000  0  6G28G24G 5G 4G 7G 9
  24455655.885     2279650.27449   1763461.31345  24455655.501    24455665.409
  21074118.155    -4179174.49349  -3239726.60247  21074117.982    21074125.649
  22262751.586    -4635041.77949  -3592444.55846  22262750.968    22262758.306
  20616469.131    -1336905.95049  -1030799.24647  20616469.245    20616475.424
  22450145.342     1609587.41149   1248384.76746  22450144.688    22450152.386
  20977565.013    -1169205.56349   -844419.87248  20977564.884    20977571.235
 03  3 26 16 39  0.0000000  0  6G28G24G 5G 4G 7G 9
  24471662.911     2363766.52749   1829006.23345  24471662.510    24471672.532
  21062831.707    -4238485.49849  -3285942.93047  21062831.495    21062839.106
  22247946.788    -4712841.80449  -3653067.93946  22247946.108    22247953.380
  20618252.349    -1327535.28949  -1023497.41847  20618252.431    20618258.608
  22462435.959     1674174.82749   1298712.55746  22462435.369    22462443.014
  20980004.275    -1156387.21349   -834431.58248  20980004.155    20980010.478
 03  3 26 16 39 30.0000000  0  6G28G24G 5G 4G 7G 9
  24487701.771     2448051.93349   1894682.93445  24487701.308    24487711.650
  21051637.934    -4297308.99849  -3331779.38747  21051637.725    21051645.303
  22233168.123    -4790504.20549  -3713584.08446  22233167.478    22233174.676
  20620152.625    -1317548.95749  -1015715.85547  20620152.745    20620158.918
  22474739.890     1738831.79949   1349094.54646  22474739.292    22474746.836
  20982556.891    -1142973.68049   -823979.51748  20982556.738    20982563.057
 03  3 26 16 40  0.0000000  0  6G28G24G 5G 4G 7G 9
  24503772.954     2532505.80749   1960490.93245  24503772.421    24503782.908
  21040537.223    -4355643.52849  -3377234.82047  21040537.039    21040544.603
  22218415.826    -4868027.84449  -3773992.09146  22218415.191    22218422.453
  20622169.966    -1306947.71549  -1007455.13747  20622170.089    20622176.263
  22487056.767     1803557.37949   1399530.00646  22487056.155    22487063.714
  20985222.502    -1128965.72849   -813064.26147  20985222.343    20985228.760
 03  3 26 16 40 30.0000000  0  6G28G24G 5G 4G 7G 9
  24519876.193     2617127.06849   2026429.36045  24519875.543    24519885.869
  21029529.738    -4413488.03449  -3422308.42947  21029529.560    21029537.164
  22203690.120    -4945411.68549  -3834291.16246  22203689.555    22203696.832
  20624304.070    -1295733.02449   -998716.41247  20624304.181    20624310.371
  22499386.342     1868350.09049   1450017.77546  22499385.829    22499393.460
  20988000.988    -1114364.63449   -801686.82947  20988000.849    20988007.263
 03  3 26 16 41  0.0000000  0  6G28G24G 5G 4G 7G 9
  24536011.141     2701915.42149   2092497.99445  24536010.313    24536020.727
  21018615.896    -4470840.66349  -3466998.75847  21018615.675    21018623.323
  22188991.525    -5022654.06749  -3894480.02346  22188990.861    22188998.157
  20626554.826    -1283905.37849   -989500.05847  20626554.923    20626561.093
  22511728.626     1933209.33749   1500557.38246  22511728.105    22511735.887
  20990892.303    -1099170.92349   -789847.62247  20990892.138    20990898.533
 03  3 26 16 41 30.0000000  0  6G28G24G 5G 4G 7G 9
  24552177.629     2786870.10549   2158696.23745  24552176.801    24552187.221
  21007795.902    -4527699.63149  -3511304.40947  21007795.686    21007803.416
  22174319.919    -5099753.22249  -3954557.26146  22174319.368    22174326.645
  20628922.015    -1271465.73449   -979806.82747  20628922.114    20628928.294
  22524083.465     1998134.35749   1551148.25546  22524082.961    22524090.843
  20993896.262    -1083384.95949   -777546.90247  20993896.138    20993902.583
 03  3 26 16 42  0.0000000  0  5G24G 5G 4G 7G 9
  20997070.575    -4584061.20549  -3555222.48247  20997070.381    20997078.206
  22159676.337    -5176705.69449  -4014520.21646  22159675.796    22159683.010
  20631405.922    -1258412.85449   -969635.76447  20631406.025    20631412.204
  22536451.165     2063126.39749   1601791.35346  22536450.639    22536458.533
  20997013.192    -1067005.47849   -764783.70847  20997013.070    20997019.512
 03  3 26 16 42 30.0000000  0  5G24G 5G 4G 7G 9
  20986439.921    -4639925.57049  -3598753.11747  20986439.710    20986447.553
  22145060.748    -5253511.16849  -4074368.63546  22145060.204    22145067.344
  20634006.072    -1244748.84749   -958988.49247  20634006.195    20634012.339
  22548831.187     2128183.16949   1652484.87546  22548830.669    22548838.555
  21000242.607    -1050034.84449   -751559.87647  21000242.505    21000248.968
 03  3 26 16 43  0.0000000  0  5G24G 5G 4G 7G 9
  20975904.068    -4695291.91549  -3641895.68347  20975903.854    20975911.682
  22130473.185    -5330168.96849  -4134101.96246  22130472.693    22130479.828
  20636722.209    -1230475.41649   -947866.34747  20636722.324    20636728.511
  22561223.275     2193303.15349   1703227.66746  22561222.690    22561230.541
  21003584.295    -1032474.57649   -737876.58947  21003584.181    21003590.630
 03  3 26 16 43 30.0000000  0  5G24G 5G 4G 7G 9
  20965463.410    -4750157.71649  -3684648.21747  20965463.192    20965471.015
  22115914.212    -5406676.86749  -4193718.48146  22115913.711    22115920.860
  20639554.274    -1215592.90549   -936269.59848  20639554.414    20639560.654
  22573627.306     2258486.38049   1754019.73646  22573626.703    22573634.545
  21007038.183    -1014324.76549   -723733.91647  21007038.030    21007044.478
 03  3 26 16 44  0.0000000  0  5G24G 5G 4G 7G 9
  20955118.310    -4804521.61449  -3727009.65447  20955118.104    20955125.909
  22101384.116    -5483032.83149  -4253216.62646  22101383.670    22101390.774
  20642502.132    -1200101.84349   -924198.65447  20642502.293    20642508.514
  22586043.201     2323732.33649   1804860.69546  22586042.658    22586050.450
  21010604.099     -995585.85349   -709132.20447  21010603.962    21010610.442
 03  3 26 16 44 30.0000000  0  5G24G 5G 4G 7G 9
  20944869.130    -4858381.82949  -3768978.61147  20944868.889    20944876.634
  22086883.299    -5559235.63849  -4312595.42246  22086882.739    22086889.889
  20645565.582    -1184003.56449   -911654.55247  20645565.742    20645571.915
  22598470.860     2389040.08149   1855749.79346  22598470.354    22598478.150
  21014281.964     -976259.03049   -694072.37747  21014281.805    21014288.282
 03  3 26 16 45  0.0000000  0  5G24G 5G 4G 7G 9
  20934715.951    -4911737.04349  -3810554.06247  20934715.718    20934723.397
  22072411.843    -5635283.52749  -4371853.49446  22072411.328    22072418.425
  20648744.398    -1167298.85449   -898637.90647  20648744.552    20648750.719
  22610910.089     2454408.76849   1906686.37546  22610909.623    22610917.492
  21018071.462     -956345.07849   -678555.03847  21018071.302    21018077.781
 03  3 26 16 45 30.0000000  0  5G24G 5G 4G 7G 9
  20924659.095    -4964585.90749  -3851734.95347  20924658.880    20924666.476
  22057970.082    -5711175.01149  -4430989.69646  22057969.645    22057976.720
  20652038.384    -1149988.71249   -885149.48447  20652038.551    20652044.760
  22623360.964     2519837.89249   1957670.06046  22623360.414    22623368.293
  21021972.579     -935844.84949   -662580.85747  21021972.391    21021978.910
 03  3 26 16 46  0.0000000  0  5G24G 5G 4G 7G 9
  20914698.769    -5016927.57849  -3892520.63447  20914698.556    20914706.200
  22043558.406    -5786909.10949  -4490003.26046  22043557.873    22043565.025
  20655447.208    -1132074.87049   -871190.66147  20655447.401    20655453.645
  22635822.965     2585325.97149   2008699.67946  22635822.386    22635830.298
  21025984.889     -914760.00949   -646151.13947  21025984.724    21025991.280
 03  3 26 16 46 30.0000000  0  5G24G 5G 4G 7G 9
  20904835.535    -5068758.72149  -3932908.49547  20904835.354    20904843.064
  22029177.249    -5862481.95649  -4548891.17846  22029176.729    22029183.957
  20658971.201    -1113556.31049   -856760.62747  20658971.352    20658977.615
  22648296.421     2650874.20949   2059776.16546  22648295.871    22648303.791
  21030108.729     -893089.48449   -629265.04447  21030108.569    21030115.066
 03  3 26 16 47  0.0000000  0  5G24G 5G 4G 7G 9
  20895069.562    -5120079.11749  -3972898.37247  20895069.364    20895077.062
  22014826.883    -5937893.63749  -4607653.50546  22014826.273    22014833.637
  20662609.702    -1094435.79149   -841861.54047  20662609.873    20662616.174
  22660781.042     2716480.37349   2110897.79446  22660780.388    22660788.304
  21034343.473     -870835.85649   -611924.57547  21034343.327    21034349.882
 03  3 26 16 47 30.0000000  0  5G24G 5G 4G 7G 9
  20885400.998    -5170887.78249  -4012489.50347  20885400.808    20885408.523
  22000507.360    -6013142.98549  -4666289.33446  22000506.766    22000514.151
  20666362.506    -1074714.87949   -826494.60747  20666362.645    20666368.929
  22673276.420     2782143.28749   2162063.65446  22673275.688    22673283.565
  21038688.947     -848000.37249   -594130.71647  21038688.799    21038695.423
 03  3 26 16 48  0.0000000  0  5G24G 5G 4G 7G 9
  20875830.122    -5221182.90049  -4051680.45547  20875829.924    20875837.707
  21986219.210    -6088227.54949  -4724796.76846  21986218.667    21986226.084
  20670229.417    -1054393.98749   -810660.15347  20670229.578    20670235.846
  22685782.547     2847863.08949   2213273.83846  22685781.860    22685789.679
  21043145.015     -824583.44849   -575883.77747  21043144.864    21043151.519
 03  3 26 16 48 30.0000000  0  5G24G 5G 4G 7G 9
  20866357.209    -5270963.13049  -4090470.21047  20866357.012    20866364.793
  21971962.845    -6163145.48449  -4783174.35746  21971962.277    21971969.624
  20674210.351    -1033473.89249   -794358.79547  20674210.522    20674216.807
  22698299.329     2913639.29149   2264527.96646  22698298.645    22698306.525
  21047711.504     -800585.91549   -557184.42047  21047711.403    21047718.094
 03  3 26 16 49  0.0000000  0  5G24G 5G 4G 7G 9
  20856982.718    -5320226.16449  -4128856.95347  20856982.552    20856990.311
  21957738.543    -6237894.52549  -4841420.33146  21957738.014    21957745.333
  20678305.216    -1011955.27249   -777591.05447  20678305.407    20678311.695
  22710826.843     2979471.67249   2315825.87346  22710826.112    22710834.078
  21052388.512     -776008.21949   -538032.99047  21052388.405    21052395.084
 03  3 26 16 49 30.0000000  0  5G24G 5G 4G 7G 9
  20847706.905    -5368970.91349  -4166839.83047  20847706.723    20847714.440
  21943546.682    -6312473.00849  -4899533.41146  21943546.179    21943553.454
  20682513.768     -989839.39049   -760357.91247  20682513.953    20682520.203
  22723364.838     3045359.72949   2367167.15646  22723364.173    22723372.290
  21057175.816     -750851.30449   -518430.21847  21057175.671    21057182.316
 03  3 26 16 50  0.0000000  0  5G24G 5G 4G 7G 9
  20838530.118    -5417195.28449  -4204417.21747  20838529.906    20838537.564
  21929387.729    -6386878.64549  -4957511.79946  21929387.251    21929394.470
  20686835.906     -967126.82049   -742659.81547  20686836.061    20686842.262
  22735913.442     3111303.23449   2418551.64246  22735912.765    22735920.998
  21062073.164     -725115.89449   -498376.67847  21062073.010    21062079.598
 03  3 26 16 50 30.0000000  0  5G24G 5G 4G 7G 9
  20829452.269    -5464899.04949  -4241588.93647  20829452.081    20829459.741
  21915261.871    -6461110.83949  -5015355.04746  21915261.330    21915268.504
  20691271.180     -943819.62649   -724498.37947  20691271.341    20691277.525
  22748472.412     3177300.71449   2469978.19246  22748471.761    22748480.057
  21067080.192     -698803.88149   -477873.83247  21067080.064    21067086.617
 03  3 26 16 51  0.0000000  0  5G24G 5G 4G 7G 9
  20820473.663    -5512081.67849  -4278354.58047  20820473.466    20820481.121
  21901169.200    -6535168.46149  -5073062.25446  21901168.656    21901175.840
  20695819.144     -919919.96849   -705875.27247  20695819.292    20695825.478
  22761041.461     3243350.81849   2521445.75546  22761040.809    22761049.132
  21072196.657     -671917.20849   -456923.20647  21072196.532    21072203.010
 03  3 26 16 51 30.0000000  0  5G24G 5G 4G 7G 9
  20811594.540    -5558741.67649  -4314712.98647  20811594.353    20811601.989
  21887110.142    -6609049.62449  -5130631.96746  21887109.559    21887116.724
  20700479.573     -895428.98149   -686791.40047  20700479.756    20700486.005
  22773620.297     3309453.17849   2572954.01746  22773619.731    22773628.125
  21077422.277     -644456.81849   -435525.52747  21077422.104    21077428.589
 03  3 26 16 52  0.0000000  0  5G24G 5G 4G 7G 9
  20802815.074    -5604877.92749  -4350663.27347  20802814.881    20802822.562
  21873084.933    -6682752.76749  -5188062.96146  21873084.339    21873091.449
  20705252.406     -870347.66249   -667247.52647  20705252.582    20705258.883
  22786209.051     3375607.00049   2624502.38646  22786208.486    22786216.781
  21082756.685     -616424.01649   -413681.80647  21082756.541    21082763.067
 03  3 26 16 52 30.0000000  0  5G24G 5G 4G 7G 9
  20794135.624    -5650488.74149  -4386204.13048  20794135.459    20794143.094
  21859094.104    -6756275.56049  -5245353.42847  21859093.424    21859100.466
  20710137.299     -844677.01549   -647244.43847  20710137.530    20710143.864
  22798807.543     3441812.13449   2676090.73146  22798806.964    22798815.260
  21088199.960     -587819.60449   -391392.68447  21088199.823    21088206.347
 03  3 26 16 53  0.0000000  0  5G24G 5G 4G 7G 9
  20785556.414    -5695573.01049  -4421334.68848  20785556.209    20785563.800
  21845137.844    -6829616.48749  -5302502.18447  21845137.196    21845144.112
  20715134.142     -818418.81249   -626783.51547  20715134.351    20715140.677
  22811415.634     3508067.78749   2727718.44746  22811415.046    22811423.242
  21093751.796     -558644.84049   -368659.13247  21093751.629    21093758.164
 03  3 26 16 53 30.0000000  0  5G24G 5G 4G 7G 9
  20777077.623    -5740129.17549  -4456053.73948  20777077.449    20777085.000
  21831216.510    -6902773.08049  -5359507.29447  21831215.944    21831222.885
  20720242.711     -791573.45749   -605865.06847  20720242.864    20720249.196
  22824033.524     3574374.28549   2779385.78846  22824032.870    22824040.876
  21099411.939     -528900.31949   -345481.60347  21099411.771    21099418.355
 03  3 26 16 54  0.0000000  0  5G24G 5G 4G 7G 9
  20768699.544    -5784156.06949  -4490360.37348  20768699.369    20768706.887
  21817330.522    -6975743.98249  -5416367.71647  21817329.987    21817336.958
  20725462.615     -764142.83049   -584490.56847  20725462.781    20725469.117
  22836660.846     3640730.59749   2831091.93846  22836660.159    22836667.971
  21105180.202     -498587.42549   -321861.19547  21105180.088    21105186.761
 03  3 26 16 54 30.0000000  0  5G24G 5G 4G 7G 9
  20760422.408    -5827652.30749  -4524253.50648  20760422.259    20760429.800
  21803480.318    -7048527.13149  -5473081.83847  21803479.785    21803486.837
  20730793.677     -736127.89549   -562660.76347  20730793.860    20730800.180
  22849297.357     3707136.38249   2882836.64346  22849296.741    22849304.635
  21111056.498     -467707.31549   -297798.79147  21111056.390    21111063.110
 03  3 26 16 55  0.0000000  0  5G24G 5G 4G 7G 9
  20752246.519    -5870616.99349  -4557732.44948  20752246.339    20752253.858
  21789666.226    -7121120.64549  -5529648.18847  21789665.678    21789672.730
  20736235.718     -707530.07749   -540376.76547  20736235.893    20736242.171
  22861943.253     3773591.26949   2934619.59646  22861942.607    22861950.624
  21117040.512     -436261.36549   -273295.48147  21117040.347    21117047.106
 03  3 26 16 55 30.0000000  0  5G24G 5G 4G 7G 9
  20744172.078    -5913048.47349  -4590795.90748  20744171.909    20744179.387
  21775888.637    -7193522.43849  -5586065.14347  21775888.077    21775895.091
  20741788.324     -678350.57649   -517639.51047  20741788.499    20741794.882
  22874598.418     3840094.87649   2986440.53446  22874597.765    22874605.903
  21123131.940     -404250.49849   -248351.98047  21123131.830    21123138.617
 03  3 26 16 56  0.0000000  0  5G24G 5G 4G 7G 9
  20736199.023    -5954947.67149  -4623444.59748  20736198.798    20736206.226
  21762147.403    -7265732.68749  -5642332.85047  21762146.869    21762153.872
  20747451.073     -648592.71649   -494451.58847  20747451.288    20747457.635
  22887262.543     3906644.84649   3038297.58646  22887261.858    22887270.038
  21129330.290     -371678.03449   -222970.86747  21129330.189    21129337.014
 03  3 26 16 56 30.0000000  0  5G24G 5G 4G 7G 9
  20728327.413    -5996312.89749  -4655677.20648  20728327.208    20728334.637
  21748443.130    -7337748.83249  -5698449.29847  21748442.617    21748449.616
  20753223.847     -618257.24649   -470813.57147  20753224.032    20753230.248
  22899935.557     3973241.24049   3090190.81546  22899934.874    22899943.083
  21135635.482     -338544.61649   -197152.65447  21135635.344    21135642.146
 03  3 26 16 57  0.0000000  0  5G24G 5G 4G 7G 9
  20720557.946    -6037141.90649  -4687491.98748  20720557.776    20720565.129
  21734776.412    -7409568.20949  -5754412.42947  21734775.848    21734782.808
  20759106.361     -587344.77549   -446725.94247  20759106.490    20759112.726
  22912617.420     4039884.40549   3142120.47346  22912616.775    22912624.942
  21142047.253     -304850.62249   -170897.62747  21142047.125    21142053.963
 03  3 26 16 57 30.0000000  0  5G24G 5G 4G 7G 9
  20712890.396    -6077434.91349  -4718889.11048  20712890.215    20712897.571
  21721147.289    -7481189.85149  -5810221.47847  21721146.713    21721153.618
  20765098.077     -555857.84049   -422190.68747  20765098.232    20765104.464
  22925307.978     4106573.05349   3194085.57546  22925307.359    22925315.519
  21148565.243     -270598.61049   -144207.78247  21148565.113    21148571.938
 03  3 26 16 58  0.0000000  0  5G24G 5G 4G 7G 9
  20705325.031    -6117190.97849  -4749867.83448  20705324.872    20705332.234
  21707556.129    -7552612.11349  -5865875.16547  21707555.532    21707562.361
  20771198.951     -523797.92249   -397208.94847  20771199.058    20771205.271
  22938007.103     4173306.53349   3246085.60846  22938006.428    22938014.660
  21155189.118     -235789.98749   -117084.21547  21155189.017    21155195.863
 03  3 26 16 58 30.0000000  0  5G24G 5G 4G 7G 9
  20697862.148    -6156408.16749  -4780426.65748  20697862.008    20697869.363
  21694003.410    -7623832.07549  -5921371.22547  21694002.854    21694009.673
  20777408.568     -491165.49649   -371781.10447  20777408.719    20777415.023
  22950714.676     4240085.56049   3298121.14346  22950714.081    22950722.429
  21161918.878     -200424.85049    -89527.00547  21161918.798    21161925.606
 03  3 26 16 59  0.0000000  0  6G24G 5G 4G 7G30G 9
  20690501.041    -6195090.88849  -4810569.01748  20690500.914    20690508.218
  21680488.477    -7694853.20349  -5976712.34847  21680487.980    21680494.731
  20783725.890     -457967.67849   -345912.69447  20783726.076    20783732.380
  22963429.804     4306904.05349   3350187.41746  22963429.228    22963437.587
  24354707.971    -3552201.85849  -2752557.47645  24354708.497    24354717.121
  21168753.211     -164510.46049    -61541.80747  21168753.097    21168759.883
 03  3 26 16 59 30.0000000  0  6G24G 5G 4G 7G30G 9
  20683240.554    -6233244.82349  -4840299.32848  20683240.421    20683247.741
  21667010.524    -7765680.50449  -6031902.43847  21667009.991    21667016.709
  20790149.285     -424212.73749   -319610.15247  20790149.469    20790155.730
  22976151.207     4373754.78949   3402278.81046  22976150.592    22976158.855
  24336089.647    -3650040.80449  -2828795.55945  24336090.196    24336099.034
  21175690.455     -128054.90649    -33134.91147  21175690.365    21175697.149
 03  3 26 17  0  0.0000000  0  6G24G 5G 4G 7G30G 9
  20676084.610    -6270849.31849  -4869601.51048  20676084.515    20676091.877
  21653573.544    -7836292.33949  -6086924.62747  21653573.043    21653579.728
  20796682.155     -389882.57449   -292859.38947  20796682.336    20796688.579
  22988882.437     4440657.24849   3454410.52146  22988881.788    22988889.911
  24317471.284    -3747881.31649  -2905034.84945  24317471.804    24317480.672
  21182734.190      -91040.02449     -4292.18547  21182734.089    21182740.882
 03  3 26 17  0 30.0000000  0  6G24G 5G 4G 7G30G 9
  20669032.668    -6307907.76049  -4898478.19748  20669032.517    20669039.883
  21640177.128    -7906691.01749  -6141780.72147  21640176.538    21640183.302
  20803323.331     -354982.98449   -265664.91847  20803323.519    20803329.725
  23001622.500     4507606.79549   3506578.92846  23001621.859    23001629.898
  24298852.073    -3845726.26149  -2981277.57945  24298852.624    24298861.174
  21189883.184      -53471.49949     24981.95847  21189883.129    21189890.023
 03  3 26 17  1  0.0000000  0  6G24G 5G 4G 7G30G 9
  20662084.377    -6344421.23149  -4926930.23148  20662084.267    20662091.615
  21626821.096    -7976876.96649  -6196471.05147  21626820.524    21626827.321
  20810072.144     -319517.92749   -238029.82147  20810072.297    20810078.565
  23014370.999     4574600.52449   3558781.75646  23014370.403    23014378.428
  24280231.971    -3943576.74049  -3057524.63445  24280232.364    24280240.436
  21197136.900      -15353.19349     54684.49547  21197136.847    21197143.713
 03  3 26 17  1 30.0000000  0  6G24G 5G 4G 7G30G 9
  20655239.695    -6380390.19649  -4954957.98048  20655239.545    20655246.890
  21613505.725    -8046849.37849  -6250995.00247  21613505.202    21613511.998
  20816928.019     -283489.90449   -209956.06247  20816928.210    20816934.534
  23027127.671     4641637.06149   3611017.93646  23027127.111    23027135.167
  24261610.797    -4041432.34349  -3133775.67545  24261611.196    24261619.267
  21204494.733       23312.29049     84813.40447  21204494.664    21204501.580
 03  3 26 17  2  0.0000000  0  6G24G 5G 4G 7G30G 9
  20648498.868    -6415813.36449  -4982560.42348  20648498.702    20648506.091
  21600231.520    -8116605.79949  -6305350.63547  21600231.041    21600237.821
  20823890.861     -246900.06449   -181444.51947  20823891.060    20823897.380
  23039892.495     4708716.74049   3663287.73346  23039891.984    23039900.108
  24242988.904    -4139291.18449  -3210029.19745  24242989.189    24242997.427
  21211956.466       62523.91849    115367.88247  21211956.428    21211963.301
 03  3 26 17  2 30.0000000  0  6G24G 5G 4G 7G30G 9
  20641861.945    -6450690.47449  -5009737.37748  20641861.806    20641869.229
  21586998.645    -8186145.14749  -6359537.12447  21586998.152    21587004.947
  20830960.096     -209750.98549   -152497.20247  20830960.326    20830966.654
  23052665.426     4775838.12749   3715590.03146  23052664.892    23052672.993
  24224366.322    -4237152.74349  -3286284.89145  24224366.580    24224374.879
  21219521.753      102279.32649    146346.07947  21219521.691    21219528.508
 03  3 26 17  3  0.0000000  0  6G24G 5G 4G 7G30G 9
  20635328.961    -6485021.38349  -5036488.71248  20635328.829    20635336.219
  21573807.266    -8255466.06249  -6413553.40147  21573806.764    21573813.635
  20838135.356     -172044.96849   -123115.91047  20838135.609    20838141.924
  23065446.133     4843000.23049   3767924.05146  23065445.495    23065453.674
  24205743.413    -4335016.22549  -3362542.07745  24205743.723    24205751.975
  21227190.007      142576.19449    177746.20147  21227189.952    21227196.800
 03  3 26 17  3 30.0000000  0  6G24G 5G 4G 7G30G 9
  20628900.214    -6518804.84749  -5062813.46648  20628900.070    20628907.419
  21560657.918    -8324566.27449  -6467397.70147  21560657.417    21560664.321
  20845416.339     -133783.42149    -93301.73947  20845416.548    20845422.860
  23078234.338     4910203.10249   3820289.84346  23078233.701    23078242.003
  24187120.307    -4432879.75549  -3438799.26545  24187120.525    24187129.074
  21234961.218      183413.55849    209567.48247  21234961.122    21234968.033
 03  3 26 17  4  0.0000000  0  6G24G 5G 4G 7G30G 9
  20622575.845    -6552039.76349  -5088710.77848  20622575.708    20622582.979
  21547551.032    -8393443.37149  -6521068.15147  21547550.511    21547557.475
  20852802.704      -94967.64049    -63055.69847  20852802.915    20852809.291
  23091030.289     4977446.74349   3872687.41146  23091029.733    23091038.119
  24168497.582    -4530741.71849  -3515055.28345  24168497.867    24168506.549
  21242834.944      224790.15749    241808.94647  21242834.871    21242841.782
 03  3 26 17  4 30.0000000  0  6G24G 5G 4G 7G30G 9
  20616355.784    -6584726.54549  -5114180.97148  20616355.604    20616362.942
  21534486.629    -8462096.82549  -6574564.33147  21534486.155    21534493.148
  20860294.055      -55600.39649    -32379.94347  20860294.279    20860300.671
  23103833.805     5044729.65349   3925115.58746  23103833.269    23103841.799
  24149875.509    -4628601.70249  -3591309.74745  24149875.869    24149884.194
  21250810.798      266703.12849    274468.36047  21250810.730    21250817.619
 03  3 26 17  5  0.0000000  0  6G24G 5G 4G 7G30G 9
  20610239.875    -6616865.50349  -5139224.28448  20610239.708    20610247.088
  21521465.071    -8530525.61549  -6627885.44947  21521464.570    21521471.596
  20867889.792      -15684.74349     -1276.85947  20867890.030    20867896.394
  23116644.495     5112050.44849   3977573.27146  23116644.050    23116652.713
  24131253.998    -4726459.35349  -3667562.40045  24131254.290    24131262.441
  21258888.188      309149.70249    307543.57547  21258888.098    21258894.960
 03  3 26 17  5 30.0000000  0  6G24G 5G 4G 7G30G 9
  20604228.644    -6648454.64049  -5163839.17548  20604228.460    20604235.846
  21508486.770    -8598726.61549  -6681029.07947  21508486.325    21508493.366
  20875589.790       24778.67649     30253.04747  20875590.000    20875596.317
  23129462.685     5179409.84249   4030061.03746  23129462.176    23129470.914
  24112633.066    -4824312.17649  -3743811.24845  24112633.361    24112641.650
  21267066.990      352129.37749    341034.18447  21267066.876    21267073.795
 03  3 26 17  6  0.0000000  0  6G24G 5G 4G 7G30G 9
  20598322.070    -6679493.52449  -5188025.29248  20598321.899    20598329.324
  21495552.360    -8666697.63149  -6733993.49247  21495551.899    21495558.929
  20883393.730       65788.56049     62208.78347  20883393.927    20883400.232
  23142288.143     5246807.70949   4082578.77646  23142287.608    23142296.289
  24094013.589    -4922158.21049  -3820054.82645  24094013.921    24094021.843
  21275346.883      395640.49449    374938.91147  21275346.784    21275353.726
 03  3 26 17  6 30.0000000  0  6G24G 5G 4G 7G30G 9
  20592520.241    -6709982.06249  -5211782.56548  20592520.115    20592527.508
  21482661.990    -8734437.43549  -6786777.73647  21482661.493    21482668.435
  20891301.135      107342.17049     94588.20047  20891301.343    20891307.589
  23155120.794     5314243.02449   4135125.68946  23155120.224    23155128.771
  24075395.463    -5019997.04549  -3896292.80345  24075395.691    24075403.645
  21283727.438      439680.52649    409255.78247  21283727.352    21283734.283
 03  3 26 17  7  0.0000000  0  6G24G 5G 4G 7G30G 9
  20586823.509    -6739918.41849  -5235109.57548  20586823.379    20586830.765
  21469816.104    -8801943.22349  -6839379.63747  21469815.606    21469822.492
  20899311.827      149438.43849    127390.46147  20899312.027    20899318.264
  23167960.738     5381716.39749   4187702.26246  23167960.095    23167968.618
  24056779.130    -5117826.18449  -3972523.23245  24056779.348    24056787.427
  21292208.457      484248.64449    443984.15147  21292208.391    21292215.370
 03  3 26 17  7 30.0000000  0  6G24G 5G 4G 7G30G 9
  20581231.694    -6769303.60149  -5258007.09748  20581231.570    20581238.976
  21457014.857    -8869214.26949  -6891798.62747  21457014.338    21457021.234
  20907425.238      192074.52349    160613.35747  20907425.411    20907431.678
  23180807.711     5449226.30749   4240307.29146  23180806.941    23180815.477
  24038164.628    -5215645.47049  -4048746.01045  24038164.875    24038173.171
  21300789.471      529341.92849    479121.73847  21300789.390    21300796.430
 03  3 26 17  8  0.0000000  0  6G24G 5G 4G 7G30G 9
  20575744.917    -6798136.47349  -5280474.24848  20575744.788    20575752.263
  21444258.716    -8936248.05649  -6944032.72947  21444258.179    21444265.143
  20915641.058      235248.80549    194255.63047  20915641.233    20915647.476
  23193661.488     5516772.89149   4292940.90846  23193660.703    23193669.368
  24019552.151    -5313452.79249  -4124959.45745  24019552.440    24019561.121
  21309470.200      574958.97949    514667.44447  21309470.061    21309477.061
 03  3 26 17  8 30.0000000  0  6G24G 5G 4G 7G30G 9
  20570363.556    -6826415.73049  -5302510.01748  20570363.424    20570370.916
  21431548.223    -9003042.19249  -6996080.09547  21431547.688    21431554.635
  20923959.004      278960.06549    228316.32347  20923959.175    20923965.494
  23206522.183     5584356.14549   4345603.10446  23206521.439    23206530.160
  24000942.526    -5411246.22949  -4201162.07345  24000942.873    24000951.498
  21318250.245      621098.50449    550620.28047  21318250.163    21318257.147
 03  3 26 17  9  0.0000000  0  6G24G 5G 4G 7G30G 9
  20565087.566    -6854141.03249  -5324114.13348  20565087.446    20565094.916
  21418883.691    -9069594.68349  -7047939.16647  21418883.166    21418890.081
  20932378.706      323206.12149    262793.74147  20932378.936    20932385.302
  23219389.705     5651975.79849   4398293.66546  23219389.071    23219397.897
  23982335.909    -5509024.33749  -4277352.73345  23982336.304    23982344.965
  21327129.394      667758.66949    586978.80747  21327129.306    21327136.310
 03  3 26 17  9 30.0000000  0  6G24G 5G 4G 7G30G 9
  20559917.048    -6881312.45549  -5345286.64848  20559916.916    20559924.326
  21406265.382    -9135904.34249  -7099609.01247  21406264.881    21406271.771
  20940899.765      367984.58449    297686.03547  20940899.967    20940906.393
  23232264.048     5719630.98449   4451011.91246  23232263.449    23232272.341
  23963732.439    -5606785.96449  -4353530.56545  23963732.813    23963741.550
  21336107.071      714936.97949    623741.09247  21336107.021    21336114.032
 03  3 26 17 10  0.0000000  0  6G24G 5G 4G 7G30G 9
  20554852.058    -6907929.32449  -5366027.05248  20554851.912    20554859.277
  21393693.652    -9201969.07849  -7151088.01947  21393693.144    21393699.986
  20949521.759      413293.65549    332991.78047  20949521.998    20949528.442
  23245145.072     5787321.63949   4503757.79846  23245144.481    23245153.507
  23945132.339    -5704529.84549  -4429694.54345  23945132.749    23945141.360
  21345182.973      762631.46049    660905.58147  21345182.947    21345190.025
 03  3 26 17 10 30.0000000  0  6G24G 5G 4G 7G30G 9
  20549892.541    -6933991.55049  -5386335.25848  20549892.406    20549899.768
  21381168.894    -9267787.09249  -7202374.76747  21381168.365    21381175.254
  20958244.357      459131.01749    368709.19147  20958244.609    20958251.010
  23258032.918     5855047.18549   4556530.86546  23258032.319    23258041.249
  23926535.857    -5802254.41249  -4505843.44745  23926536.274    23926544.954
  21354356.878      810840.12249    698470.73547  21354356.816    21354363.875
 03  3 26 17 11  0.0000000  0  6G24G 5G 4G 7G30G 9
  20545038.536    -6959499.68149  -5406211.70948  20545038.396    20545045.770
  21368691.234    -9333357.30049  -7253468.41347  21368690.703    21368697.606
  20967066.894      505493.77849    404836.00447  20967067.161    20967073.597
  23270927.133     5922806.29349   4609330.08846  23270926.563    23270935.388
  23907943.340    -5899959.31049  -4581977.06345  23907943.725    23907952.322
  21363628.005      859560.01249    736434.25247  21363627.948    21363634.960
 03  3 26 17 11 30.0000000  0  6G24G 5G 4G 7G30G 9
  20540290.077    -6984452.58649  -5425655.51548  20540289.963    20540297.377
  21356261.266    -9398676.95649  -7304366.82547  21356260.769    21356267.690
  20975989.301      552380.72549    441371.27647  20975989.535    20975995.963
  23283827.914     5990599.41649   4662155.80846  23283827.232    23283836.021
  23889354.672    -5997642.10249  -4658093.41645  23889355.214    23889363.958
  21372996.233      908789.94849    774795.19847  21372996.172    21373003.163
 03  3 26 17 12  0.0000000  0  6G24G 5G 4G 7G30G 9
  20535647.607    -7008848.99249  -5444665.69048  20535647.497    20535654.854
  21343879.593    -9463743.26949  -7355067.82647  21343879.070    21343886.006
  20985011.095      599790.32449    478313.81447  20985011.299    20985017.756
  23296735.086     6058427.01649   4715008.38946  23296734.476    23296743.386
  23870770.828    -6095300.55849  -4734190.86245  23870771.290    23870780.062
  21382461.246      958528.54049    813552.50647  21382461.190    21382468.204
 03  3 26 17 12 30.0000000  0  6G24G 5G 4G 7G30G 9
  20531111.075    -7032688.81249  -5463242.15448  20531110.928    20531118.296
  21331546.335    -9528554.93249  -7405570.40047  21331545.818    21331552.802
  20994131.864      647720.32849    515661.87047  20994132.095    20994138.549
  23309648.824     6126288.32949   4767887.26046  23309648.136    23309657.131
  23852191.583    -6192933.64949  -4810268.53245  23852192.001    23852201.037
  21392022.624     1008773.56849    852704.44347  21392022.551    21392029.558
 03  3 26 17 13  0.0000000  0  6G24G 5G 4G 7G30G 9
  20526680.397    -7055972.24449  -5481385.07648  20526680.235    20526687.655
  21319261.955    -9593109.78849  -7455872.87447  21319261.472    21319268.419
  21003351.276      696168.53449    553413.71447  21003351.492    21003357.935
  23322568.850     6194183.10149   4820792.17346  23322568.181    23322577.255
  23833617.430    -6290539.76149  -4886325.17145  23833617.820    23833626.982
  21401680.016     1059523.03149    892249.44247  21401679.905    21401686.890
 03  3 26 17 13 30.0000000  0  6G24G 5G 4G 7G30G 9
  20522355.396    -7078700.41049  -5499095.32248  20522355.239    20522362.591
  21307026.475    -9657407.74349  -7505975.15947  21307025.993    21307032.917
  21012668.615      745131.18549    591566.43047  21012668.832    21012675.212
  23335494.823     6262109.39349   4873721.66546  23335494.293    23335503.290
  23815048.770    -6388118.91549  -4962360.83545  23815049.175    23815058.308
  21411432.637     1110773.21249    932184.61047  21411432.504    21411439.517
 03  3 26 17 14  0.0000000  0  6G24G 5G 4G 7G30G 9
  20518136.443    -7100871.03249  -5516371.11648  20518136.310    20518143.636
  21294840.674    -9721444.45749  -7555873.86847  21294840.179    21294847.113
  21022083.884      794608.78649    630120.40547  21022084.084    21022090.520
  23348427.264     6330069.27449   4926677.32446  23348426.760    23348435.754
  23796485.752    -6485667.24749  -5038372.46845  23796486.265    23796495.264
  21421280.518     1162524.25049    972510.06047  21421280.426    21421287.467
 03  3 26 17 14 30.0000000  0  6G24G 5G 4G 7G30G 9
  20514023.519    -7122484.57749  -5533212.82548  20514023.387    20514030.680
  21282704.761    -9785219.06349  -7605568.33647  21282704.260    21282711.204
  21031596.369      844597.48949    669072.63947  21031596.589    21031603.090
  23361365.963     6398061.41249   4979658.12446  23361365.373    23361374.309
  23777929.054    -6583184.34949  -5114359.77045  23777929.492    23777938.087
  21431223.121     1214772.77949   1013223.16247  21431223.053    21431230.133
 03  3 26 17 15  0.0000000  0  6G24G 5G 4G 7G30G 9
  20510016.655    -7143540.96449  -5549620.38748  20510016.481    20510023.774
  21270619.069    -9848729.87149  -7655057.25347  21270618.577    21270625.512
  21041205.735      895095.26049    708421.54547  21041205.936    21041212.493
  23374310.607     6466085.08049   5032663.47446  23374310.051    23374318.964
  23759378.465    -6680668.94649  -5190321.71945  23759378.914    23759387.246
  21441260.037     1267516.59249   1054322.20047  21441259.934    21441267.011
 03  3 26 17 15 30.0000000  0  6G24G 5G 4G 7G30G 9
  20506115.801    -7164039.76749  -5565593.46748  20506115.642    20506122.968
  21258584.033    -9911974.48749  -7704338.74447  21258583.559    21258590.449
  21050911.652      946100.39749    748165.80047  21050911.907    21050918.455
  23387261.154     6534140.49949   5085693.57646  23387260.676    23387269.552
  23740834.537    -6778118.90149  -5266256.69245  23740834.842    23740843.056
  21451390.875     1320753.94749   1095805.81947  21451390.751    21451397.812
 03  3 26 17 16  0.0000000  0  6G24G 5G 4G 7G30G 9
  20502321.254    -7183980.42749  -5581131.63648  20502321.128    20502328.390
  21246600.101    -9974950.40849  -7753410.86347  21246599.635    21246606.585
  21060713.909      997611.25949    788304.12747  21060714.131    21060720.658
  23400217.677     6602228.15549   5138748.79846  23400217.327    23400226.171
  23722297.445    -6875532.09249  -5342163.01245  23722297.845    23722305.944
  21461615.216     1374483.44349   1137672.92347  21461615.113    21461622.184
 03  3 26 17 16 30.0000000  0  6G24G 5G 4G 7G30G 9
  20498632.875    -7203363.13149  -5596235.03248  20498632.722    20498639.990
  21234667.620   -10037656.00449  -7802272.34347  21234667.126    21234674.067
  21070611.770     1049624.97949    828834.27947  21070611.989    21070618.532
  23413180.269     6670347.13849   5191828.43546  23413179.873    23413188.903
  23703767.824    -6972907.34249  -5418039.78545  23703768.182    23703775.916
  21471932.751     1428702.36649   1179921.39747  21471932.630    21471939.753
 03  3 26 17 17  0.0000000  0  6G24G 5G 4G 7G30G 9
  20495050.580    -7222188.00249  -5610903.75648  20495050.432    20495057.737
  21222786.901   -10100089.58749  -7850921.86847  21222786.401    21222793.334
  21080605.016     1102139.36049    869754.55847  21080605.210    21080611.694
  23426148.714     6738497.00749   5244932.13946  23426148.235    23426157.595
  23685245.438    -7070243.52549  -5493886.09545  23685245.706    23685253.379
  21482342.932     1483408.23149   1222549.30647  21482342.843    21482349.996
 03  3 26 17 17 30.0000000  0  6G24G 5G 4G 7G30G 9
  20491574.763    -7240453.30349  -5625136.45248  20491574.628    20491581.919
  21210958.559   -10162247.84049  -7899356.85847  21210958.059    21210964.965
  21090693.293     1155153.58749    911064.32147  21090693.497    21090700.027
  23439123.319     6806678.99149   5298060.87146  23439122.773    23439132.288
  23666730.922    -7167537.26449  -5569699.32845  23666731.322    23666738.974
  21492845.613     1538600.41349   1265556.16547  21492845.513    21492852.737
 03  3 26 17 18  0.0000000  0  6G24G 5G 4G 7G30G 9
  20488205.068    -7258161.03249  -5638934.67948  20488204.941    20488212.238
  21199182.628   -10224130.76149  -7947577.30047  21199182.142    21199189.012
  21100875.826     1208663.19649    952760.08647  21100876.057    21100882.580
  23452103.560     6874890.93449   5351212.93245  23452103.077    23452112.571
  23648224.597    -7264788.82549  -5645479.67345  23648224.914    23648232.502
  21503440.002     1594274.56249   1308938.58247  21503439.958    21503447.196
 03  3 26 17 18 30.0000000  0  6G24G 5G 4G 7G30G 9
  20484941.591    -7275311.00049  -5652298.28848  20484941.430    20484948.671
  21187459.585   -10285735.74049  -7995581.16747  21187459.077    21187465.905
  21111152.412     1262666.71849    994840.72247  21111152.623    21111159.160
  23465089.579     6943132.95049   5404388.43145  23465089.097    23465098.564
  23629726.534    -7361996.25549  -5721225.63945  23629726.861    23629734.473
  21514125.854     1650428.90149   1352695.17247  21514125.771    21514132.984
 03  3 26 17 19  0.0000000  0  6G24G 5G 4G 7G30G 9
  20481784.277    -7291902.68549  -5665226.86548  20481784.146    20481791.342
  21175789.818   -10347060.62549  -8043366.77447  21175789.316    21175796.093
  21121522.499     1317162.09249   1037304.62047  21121522.724    21121529.287
  23478081.654     7011405.16449   5457587.45445  23478080.993    23478090.388
  23611237.347    -7459157.66749  -5796935.74145  23611237.551    23611245.371
  21524902.712     1707061.41149   1396824.35447  21524902.640    21524909.781
 03  3 26 17 19 30.0000000  0  6G24G 5G 4G 7G30G 9
  20478733.158    -7307936.48349  -5677720.72548  20478733.018    20478740.191
  21164173.652   -10408104.01249  -8090933.04847  21164173.168    21164179.871
  21131985.739     1372146.49149   1080149.57347  21131985.970    21131992.490
  23491079.050     7079706.84349   5510809.44445  23491078.474    23491088.033
  23592756.938    -7556271.90049  -5872609.09545  23592757.255    23592765.059
  21535770.106     1764169.44749   1441324.07747  21535770.026    21535777.170
 03  3 26 17 20  0.0000000  0  6G24G 5G 4G 7G30G 9
  20475788.283    -7323411.94449  -5689779.51548  20475788.137    20475795.257
  21152611.560   -10468863.16649  -8138277.82647  21152611.042    21152617.777
  21142541.737     1427618.45649   1123374.44647  21142541.953    21142548.474
  23504082.276     7148038.41449   5564054.70945  23504081.602    23504091.356
  23574285.971    -7653336.48349  -5948243.75345  23574286.441    23574294.215
  21546727.688     1821751.40649   1486193.09147  21546727.561    21546734.681
 03  3 26 17 20 30.0000000  0  6G24G 5G 4G 7G30G 9
  20472949.520    -7338329.76049  -5701403.77848  20472949.362    20472956.492
  21141103.738   -10529337.03249  -8185400.30447  21141103.209    21141109.972
  21153189.808     1483574.63549   1166976.62747  21153190.051    21153196.613
  23517091.033     7216398.81049   5617322.43245  23517090.336    23517100.062
  23555824.958    -7750350.74749  -6023839.20845  23555825.231    23555833.039
  21557774.737     1879804.00449   1531428.83647  21557774.643    21557781.735
 03  3 26 17 21  0.0000000  0  6G24G 5G 4G 7G30G 9
  20470216.839    -7352690.02549  -5712593.58748  20470216.684    20470223.849
  21129650.639   -10589523.50749  -8232298.84947  21129650.088    21129656.875
  21163929.686     1540012.80949   1210954.38347  21163929.956    21163936.424
  23530105.137     7284787.81949   5670612.44545  23530104.567    23530114.198
  23537373.633    -7847312.95749  -6099394.08445  23537373.905    23537381.781
  21568910.982     1938325.16849   1577029.69147  21568910.884    21568917.979
 03  3 26 17 21 30.0000000  0  6G24G 5G 4G 7G30G 9
  20467590.414    -7366492.11749  -5723348.45048  20467590.252    20467597.397
  21118252.720   -10649419.68649  -8278971.17847  21118252.218    21118258.980
  21174761.108     1596931.77749   1255306.79647  21174761.338    21174767.771
  23543124.825     7353206.27049   5723925.41045  23543124.354    23543133.895
  23518932.858    -7944220.28649  -6174906.21445  23518933.102    23518940.986
  21580136.132     1997313.61049   1622994.66247  21580136.063    21580143.215
 03  3 26 17 22  0.0000000  0  6G24G 5G 4G 7G30G 9
  20465070.071    -7379736.55349  -5733668.78248  20465069.907    20465077.089
  21106910.270   -10709024.41349  -8325416.40647  21106909.790    21106916.517
  21185683.329     1654328.16449   1300031.20947  21185683.536    21185690.018
  23556149.899     7421653.13149   5777260.49645  23556149.457    23556159.024
  23500502.516    -8041071.90649  -6250374.91245  23500502.730    23500510.763
  21591449.657     2056765.80649   1669320.99547  21591449.520    21591456.642
 03  3 26 17 22 30.0000000  0  6G24G 5G 4G 7G30G 9
  20462655.821    -7392423.32149  -5743554.56048  20462655.658    20462662.883
  21095623.843   -10768335.05649  -8371632.47647  21095623.354    21095630.084
  21196696.018     1712200.13449   1345126.21847  21196696.232    21196702.714
  23569180.464     7490128.65449   5830617.93445  23569179.996    23569189.525
  23482083.232    -8137865.68149  -6325798.56545  23482083.502    23482091.418
  21602850.962     2116679.98549   1716007.32247  21602850.838    21602857.949
 03  3 26 17 23  0.0000000  0  6G24G 5G 4G 7G30G 9
  20460347.752    -7404552.36249  -5753005.74748  20460347.596    20460354.805
  21084393.732   -10827349.42249  -8417617.68147  21084393.278    21084400.036
  21207798.910     1770545.86149   1390590.38947  21207799.116    21207805.524
  23582216.414     7558633.05649   5883997.86045  23582216.071    23582225.516
  23463675.246    -8234599.61249  -6401175.57145  23463675.576    23463683.574
  21614339.864     2177054.18549   1763052.09747  21614339.754    21614346.850
 03  3 26 17 23 30.0000000  0  6G24G 5G 4G 7G30G 9
  20458145.650    -7416124.46649  -5762022.95848  20458145.491    20458152.694
  21073220.178   -10886066.46649  -8463371.19947  21073219.734    21073226.588
  21218991.304     1829361.76249   1436420.92247  21218991.458    21218997.838
  23595257.844     7627165.27649   5937399.45945  23595257.463    23595266.831
  23445278.794    -8331272.77749  -6476505.27545  23445279.160    23445287.161
  21625915.738     2237885.16549   1810452.79747  21625915.590    21625922.668
 03  3 26 17 24  0.0000000  0  6G24G 5G 4G 7G30G 9
  20456049.711    -7427138.82649  -5770605.55948  20456049.542    20456056.739
  21062103.810   -10944483.16849  -8508890.67747  21062103.369    21062110.303
  21230272.785     1888646.44149   1482616.74347  21230272.948    21230279.366
  23608304.594     7695725.94949   5990823.23945  23608304.221    23608313.514
  23426894.386    -8427882.57749  -6551785.56945  23426894.778    23426902.833
  21637578.084     2299171.32549   1858208.19247  21637577.966    21637585.045
 03  3 26 17 24 30.0000000  0  6G24G 5G 4G 7G30G 9
  20454059.479    -7437597.37249  -5778755.06348  20454059.310    20454066.546
  21051044.756   -11002598.82049  -8554175.58447  21051044.305    21051051.218
  21241642.826     1948396.52249   1529175.21547  21241643.026    21241649.488
  23621356.508     7764313.83249   6044268.21545  23621356.106    23621365.471
  23408522.176    -8524428.38749  -6627016.00645  23408522.707    23408530.756
  21649326.444     2360909.13749   1906315.52347  21649326.353    21649333.406
 03  3 26 17 25  0.0000000  0  6G24G 5G 4G 7G30G 9
  20452175.314    -7447498.49549  -5786470.21448  20452175.174    20452182.391
  21040043.643   -11060410.00749  -8599223.24847  21040043.181    21040050.013
  21253101.237     2008610.67449   1576095.29947  21253101.454    21253107.942
  23634413.912     7832929.89749   6097735.15145  23634413.416    23634422.681
  23390162.796    -8620907.26449  -6702194.29345  23390163.267    23390171.200
  21661160.521     2423097.35849   1954773.81547  21661160.421    21661167.458
 03  3 26 17 25 30.0000000  0  6G24G 5G 4G 7G30G 9
  20450397.043    -7456843.52149  -5793752.04048  20450396.875    20450404.065
  21029100.626   -11117916.07349  -8644033.15547  21029100.147    21029106.936
  21264647.309     2069285.44449   1623374.30447  21264647.471    21264653.958
  23647476.437     7901572.96249   6151223.12045  23647475.913    23647485.132
  23371816.325    -8717318.38749  -6777319.76745  23371816.748    23371824.709
  21673079.566     2485732.46249   2003580.33247  21673079.459    21673086.566
 03  3 26 17 26  0.0000000  0  6G24G 5G 4G 7G30G 9
  20448724.542    -7465632.50449  -5800600.58648  20448724.373    20448731.593
  21018216.228   -11175114.01949  -8688602.96447  21018215.782    21018222.533
  21276280.687     2130419.32249   1671011.05447  21276280.877    21276287.396
  23660544.116     7970243.89449   6204732.80445  23660543.647    23660552.772
  23353483.226    -8813659.25649  -6852390.52845  23353483.709    23353491.630
  21685083.379     2548813.11249   2052734.02647  21685083.289    21685090.523
 03  3 26 17 26 30.0000000  0  6G24G 5G 4G 7G30G 9
  20447157.726    -7473865.97149  -5807016.26948  20447157.567    20447164.799
  21007390.699   -11232002.43449  -8732931.57247  21007390.217    21007397.001
  21288000.919     2192009.25049   1719003.16547  21288001.094    21288007.627
  23673616.974     8038941.82549   6258263.54045  23673616.506    23673625.805
  23335163.940    -8909928.58049  -6927405.52445  23335164.261    23335172.118
  21697171.363     2612335.97349   2102232.30447  21697171.311    21697178.640
 03  3 26 17 27  0.0000000  0  6G24G 5G 4G 7G30G 9
  20445696.572    -7481544.16549  -5812999.26748  20445696.439    20445703.677
  20996624.526   -11288578.90549  -8777017.10947  20996624.050    20996630.856
  21299807.472     2254053.19549   1767349.06047  21299807.690    21299814.297
  23686695.099     8107666.84249   6311815.39445  23686694.592    23686703.999
  23316858.469    -9006124.19149  -7002363.07945  23316858.825    23316866.559
  21709343.067     2676298.87149   2152073.46347  21709343.064    21709350.497
 03  3 26 17 27 30.0000000  0  6G24G 5G 4G 7G30G 9
  20444340.908    -7488668.07149  -5818550.35648  20444340.797    20444348.026
  20985917.887   -11344842.60049  -8820858.93547  20985917.412    20985924.194
  21311699.800     2316547.64149   1816045.98247  21311700.037    21311706.645
  23699778.280     8176417.93249   6365387.56145  23699777.586    23699787.115
  23298567.324    -9102245.14249  -7077262.45745  23298567.696    23298575.271
  21721597.876     2740698.49349   2202254.93347  21721597.871    21721605.402
 03  3 26 17 28  0.0000000  0  6G24G 5G 4G 7G30G 9
  20443090.720    -7495237.88149  -5823669.67848  20443090.583    20443097.798
  20975271.254   -11400791.11049  -8864455.15747  20975270.782    20975277.548
  21323677.503     2379490.56149   1865092.37647  21323677.715    21323684.240
  23712866.326     8245195.36049   6418980.22845  23712865.615    23712875.168
  23280290.785    -9198289.45149  -7152102.13045  23280291.040    23280298.663
  21733935.467     2805532.66349   2252775.01147  21733935.449    21733943.026
 03  3 26 17 28 30.0000000  0  6G24G 5G 4G 7G30G 9
  20441946.086    -7501252.81049  -5828356.61948  20441945.995    20441953.201
  20964685.224   -11456421.11449  -8907803.19447  20964684.751    20964691.509
  21335740.276     2442880.85849   1914487.37347  21335740.494    21335747.030
  23725959.559     8314000.42149   6472594.41545  23725958.960    23725968.436
  23262029.125    -9294253.78749  -7226879.47645  23262029.402    23262037.227
  21746355.540     2870800.24449   2303632.80547  21746355.501    21746363.097
 03  3 26 17 29  0.0000000  0  6G24G 5G 4G 7G30G 9
  20440906.845    -7506714.27049  -5832612.29148  20440906.715    20440913.892
  20954159.877   -11511731.83749  -8950902.43347  20954159.427    20954166.215
  21347887.444     2506714.70049   1964227.98747  21347887.695    21347894.257
  23739057.918     8382831.75649   6526229.06445  23739057.222    23739066.712
  23243782.796    -9390137.61049  -7301594.10045  23243783.204    23243791.044
  21758857.259     2936497.38449   2354825.33147  21758857.277    21758864.904
 03  3 26 17 29 30.0000000  0  6G24G 5G 4G 7G30G 9
  20439972.868    -7511622.28849  -5836436.70448  20439972.771    20439979.935
  20943695.767   -11566720.91749  -8993751.05147  20943695.351    20943702.092
  21360118.727     2570990.08649   2014312.66847  21360118.957    21360125.514
  23752161.217     8451689.53049   6579884.34945  23752160.541    23752169.988
  23225552.293    -9485938.80149  -7376244.33445  23225552.765    23225560.724
  21771440.342     3002621.77349   2406350.77647  21771440.415    21771447.987
 03  3 26 17 30  0.0000000  0  6G24G 5G 4G 7G30G 9
  20439144.012    -7515977.81549  -5839830.60248  20439143.925    20439151.086
  20933293.249   -11621386.70649  -9036347.74747  20933292.803    20933299.527
  21372433.462     2635704.13549   2064739.16847  21372433.642    21372440.222
  23765269.604     8520573.43449   6633559.95745  23765268.776    23765278.368
  23207338.038    -9581655.49149  -7450828.69745  23207338.433    23207346.382
  21784104.274     3069170.75849   2458207.07547  21784104.318    21784111.815
 03  3 26 17 30 30.0000000  0  6G24G 5G 4G 7G30G 9
  20438420.203    -7519781.30049  -5842794.33748  20438420.126    20438427.272
  20922952.574   -11675727.26249  -9078691.01747  20922952.122    20922958.856
  21384831.013     2700854.18049   2115505.40347  21384831.250    21384837.903
  23778382.789     8589483.22949   6687255.75245  23778381.988    23778391.632
  23189140.300    -9677286.09749  -7525345.99545  23189140.622    23189148.576
  21796848.462     3136141.57649   2510392.08047  21796848.506    21796855.975
 03  3 26 17 31  0.0000000  0  6G24G 5G 4G 7G30G 9
  20437801.181    -7523034.08449  -5845328.95348  20437801.085    20437808.323
  20912674.046   -11729741.20249  -9120779.78747  20912673.578    20912680.280
  21397311.089     2766437.57749   2166609.31447  21397311.340    21397318.031
  23791500.855     8658418.17549   6740971.16245  23791499.977    23791509.657
  23170959.001    -9772829.30749  -7599795.17445  23170959.379    23170967.269
  21809672.381     3203531.32149   2562903.52447  21809672.388    21809679.938
 03  3 26 17 31 30.0000000  0  6G24G 5G 4G 7G30G 9
  20437287.078    -7525735.36449  -5847433.82548  20437287.011    20437294.308
  20902458.293   -11783425.39549  -9162611.61247  20902457.830    20902464.525
  21409873.352     2832452.57749   2218049.55247  21409873.583    21409880.280
  23804623.677     8727379.52649   6794707.13245  23804622.962    23804632.733
  23152794.862    -9868282.04249  -7674173.84846  23152795.293    23152803.188
  21822575.735     3271338.43149   2615740.18447  21822575.695    21822583.372
 03  3 26 17 32  0.0000000  0  7G10G24G 5G 4G 7G30G 9
  24567641.247    -1932094.12049  -1482956.14745  24567640.596    24567654.023
  20436876.059    -7527895.39249  -5849116.93848  20436875.965    20436883.235
  20892303.780   -11836787.44049  -9204192.40847  20892303.339    20892310.043
  21422515.480     2898887.18049   2269816.75747  21422515.741    21422522.402
  23817749.766     8796357.51949   6848456.07645  23817749.205    23817758.973
  23134646.381    -9963652.11249  -7748488.12246  23134646.897    23134654.871
  21835556.114     3339550.58349   2668892.47247  21835556.079    21835563.816
 03  3 26 17 32 30.0000000  0  7G10G24G 5G 4G 7G30G 9
  24548798.185    -2031113.92949  -1560114.19045  24548797.462    24548811.092
  20436570.466    -7529501.41449  -5850368.36348  20436570.357    20436577.667
  20882213.459   -11889812.39749  -9245510.54347  20882213.025    20882219.680
  21435239.545     2965751.78749   2321919.02347  21435239.732    21435246.400
  23830881.462     8865364.91649   6902227.94645  23830880.995    23830890.756
  23116516.561   -10058924.62749  -7822726.36346  23116516.999    23116525.081
  21848615.569     3408178.07449   2722368.39647  21848615.518    21848623.209
 03  3 26 17 33  0.0000000  0  7G10G24G 5G 4G 7G30G 9
  24529943.572    -2130193.26649  -1637318.63345  24529942.994    24529956.990
  20436369.932    -7530554.92649  -5851189.26448  20436369.846    20436377.187
  20872187.619   -11942498.65349  -9286564.75047  20872187.175    20872193.847
  21448044.710     3033043.38349   2374354.01047  21448044.897    21448051.589
  23844018.570     8934401.34949   6956022.45245  23844018.110    23844028.190
  23098405.682   -10154098.03249  -7896887.38646  23098406.076    23098414.129
  21861753.465     3477217.92149   2776165.64447  21861753.403    21861761.076
 03  3 26 17 33 30.0000000  0  7G10G24G 5G 4G 7G30G 9
  24511078.191    -2229331.27949  -1714568.74945  24511077.356    24511091.727
  20436274.038    -7531058.85949  -5851581.92348  20436273.962    20436281.264
  20862226.179   -11994846.57349  -9327355.32447  20862225.702    20862232.392
  21460930.246     3100757.31149   2427118.10447  21460930.477    21460937.134
  23857160.930     9003464.38049   7009837.67045  23857160.362    23857170.564
  23080313.652   -10249172.76849  -7970971.51746  23080313.831    23080321.872
  21874968.861     3546665.13549   2830280.30947  21874968.824    21874976.468
 03  3 26 17 34  0.0000000  0  7G10G24G 5G 4G 7G30G 9
  24492202.001    -2328525.06449  -1791862.31345  24492201.223    24492215.481
  20436282.625    -7531013.81849  -5851546.81248  20436282.526    20436289.779
  20852329.427   -12046854.10149  -9367880.66247  20852329.013    20852335.675
  21473895.764     3168890.90849   2480209.20547  21473895.911    21473902.534
  23870308.486     9072553.96149   7063673.58745  23870307.661    23870317.930
  23062240.292   -10344146.89349  -8044977.25746  23062240.714    23062248.840
  21888261.330     3616517.21749   2884710.46347  21888261.322    21888268.856
 03  3 26 17 34 30.0000000  0  7G10G24G 5G 4G 7G30G 9
  24473315.570    -2427773.18149  -1869198.21145  24473314.697    24473328.893
  20436395.177    -7530421.95949  -5851085.61448  20436395.128    20436402.420
  20842497.639   -12098520.63949  -9408140.29347  20842497.209    20842503.853
  21486940.273     3237440.03649   2533624.09447  21486940.401    21486947.042
  23883460.630     9141668.43849   7117528.88545  23883459.824    23883470.052
  23044186.578   -10439020.05449  -8118904.33946  23044186.951    23044194.939
  21901630.059     3686769.82849   2939452.71447  21901629.967    21901637.533
 03  3 26 17 35  0.0000000  0  7G10G24G 5G 4G 7G30G 9
  24454419.619    -2527071.77449  -1946573.39245  24454418.649    24454433.033
  20436612.000    -7529282.74449  -5850197.90848  20436611.908    20436619.174
  20832731.326   -12149843.33549  -9448131.99347  20832730.850    20832737.471
  21500063.488     3306403.02349   2587361.46747  21500063.646    21500070.359
  23896617.678     9210808.85849   7171404.39245  23896616.917    23896627.086
  23026152.622   -10533789.15549  -8192750.31246  23026153.035    23026160.866
  21915074.639     3757421.51649   2994505.94247  21915074.579    21915082.204
 03  3 26 17 35 30.0000000  0  7G10G24G 5G 4G 7G30G 9
  24435514.281    -2626418.77849  -2023986.31945  24435513.296    24435527.866
  20436932.642    -7527598.10549  -5848885.19648  20436932.516    20436939.734
  20823030.587   -12200821.24349  -9487855.02847  20823030.086    20823036.718
  21513264.794     3375776.67949   2641418.84747  21513265.006    21513271.711
  23909779.511     9279974.25049   7225299.37645  23909778.755    23909788.772
  23008138.662   -10628453.28849  -8266514.51846  23008139.116    23008146.782
  21928594.449     3828468.54349   3049867.21447  21928594.410    21928602.089
 03  3 26 17 36  0.0000000  0  7G10G24G 5G 4G 7G30G 9
  24416600.207    -2725811.69449  -2101435.03845  24416599.331    24416614.061
  20437356.757    -7525369.04349  -5847148.26048  20437356.633    20437363.916
  20813395.838   -12251452.65149  -9527308.05947  20813395.266    20813401.939
  21526543.717     3445557.89149   2695793.80647  21526543.964    21526550.632
  23922945.995     9349164.19049   7279213.47545  23922945.170    23922955.197
  22990145.010   -10723010.75249  -8340195.58846  22990145.344    22990152.937
  21942188.890     3899907.79849   3105534.12447  21942188.879    21942196.494
 03  3 26 17 36 30.0000000  0  7G10G24G 5G 4G 7G30G 9
  24397678.519    -2825246.13249  -2178916.12945  24397677.689    24397692.049
  20437884.636    -7522594.74549  -5844986.47048  20437884.547    20437891.832
  20803827.413   -12301734.38249  -9566488.61547  20803826.940    20803833.643
  21539899.987     3515745.34249   2750485.30547  21539900.217    21539906.899
  23936117.283     9418379.90049   7333147.67845  23936116.472    23936126.609
  22972172.255   -10817458.25549  -8413790.96746  22972172.466    22972180.086
  21955857.724     3971737.70949   3161505.44047  21955857.706    21955865.277
 03  3 26 17 37  0.0000000  0  7G10G24G 5G 4G 7G30G 9
  24378749.045    -2924719.69749  -2256427.65445  24378748.374    24378762.771
  20438515.962    -7519277.11049  -5842401.29748  20438515.870    20438523.148
  20794325.889   -12351664.92849  -9605395.52047  20794325.408    20794332.149
  21553332.936     3586335.68349   2805490.74647  21553333.108    21553339.834
  23949293.382     9487620.72049   7387101.44345  23949292.629    23949302.908
  22954220.397   -10911794.53549  -8487299.69946  22954220.774    22954228.497
  21969600.307     4043955.36549   3217778.89647  21969600.322    21969607.869
 03  3 26 17 37 30.0000000  0  7G10G24G 5G 4G 7G30G 9
  24359812.736    -3024229.38749  -2333967.41145  24359812.164    24359826.471
  20439250.573    -7515416.55649  -5839393.06948  20439250.491    20439257.777
  20784891.606   -12401242.24249  -9644027.18247  20784891.149    20784897.868
  21566842.030     3657326.61649   2860808.32947  21566842.236    21566848.966
  23962474.426     9556886.68249   7441074.77645  23962473.764    23962483.826
  22936290.236   -11006017.59049  -8560720.20746  22936290.637    22936298.379
  21983416.139     4116557.94349   3274352.28947  21983416.157    21983423.681
 03  3 26 17 38  0.0000000  0  8G10G24G 6G 5G 4G 7G30G 9
  24340869.537    -3123776.07749  -2411536.01945  24340868.758    24340882.974
  20440087.663    -7511017.75549  -5835965.43248  20440087.562    20440094.855
  24824754.130    -2159725.11549  -1666553.92945  24824754.150    24824764.813
  20775524.196   -12450468.29549  -9682385.13447  20775523.714    20775530.462
  21580426.177     3728711.78149   2916433.09847  21580426.362    21580433.137
  23975659.363     9626173.98849   7495064.74145  23975658.756    23975668.900
  22918381.227   -11100128.98649  -8634053.70646  22918381.724    22918389.603
  21997304.052     4189538.94049   3331220.55847  21997304.013    21997311.540
 03  3 26 17 38 30.0000000  0  8G10G24G 6G 5G 4G 7G30G 9
  24321920.288    -3223353.33049  -2489128.43845  24321919.666    24321933.648
  20441027.516    -7506078.64749  -5832116.77948  20441027.431    20441034.735
  24810670.643    -2233733.62849  -1724222.85145  24810670.840    24810681.457
  20766224.512   -12499338.00049  -9720465.41247  20766224.062    20766230.846
  21594085.472     3800491.51649   2972365.33547  21594085.645    21594092.351
  23988849.041     9695485.81749   7549073.79745  23988848.446    23988858.628
  22900494.503   -11194123.76049  -8707296.31846  22900495.027    22900502.942
  22011263.928     4262898.59849   3388383.88747  22011263.949    22011271.495
 03  3 26 17 39  0.0000000  0  8G10G24G 6G 5G 4G 7G30G 9
  24302966.489    -3322956.17449  -2566740.82245  24302965.647    24302979.735
  20442070.559    -7500597.71649  -5827845.92448  20442070.449    20442077.735
  24796599.014    -2307679.47449  -1781842.90945  24796599.261    24796609.969
  20756993.487   -12547847.37849  -9758264.91347  20756993.043    20756999.818
  21607819.716     3872665.32749   3028604.63847  21607819.858    21607826.612
  24002043.807     9764823.98949   7603103.37245  24002043.201    24002053.472
  22882630.907   -11287997.87749  -8780444.94546  22882631.304    22882639.105
  22025295.850     4336636.27249   3445841.76747  22025295.825    22025303.322
 03  3 26 17 39 30.0000000  0  8G10G24G 6G 5G 4G 7G30G 9
  24284008.170    -3422582.49449  -2644371.52145  24284007.242    24284021.229
  20443216.310    -7494576.67949  -5823154.21048  20443216.206    20443223.498
  24782539.252    -2381563.86149  -1839415.12545  24782539.576    24782550.100
  20747831.154   -12595995.49849  -9795782.91847  20747830.736    20747837.478
  21621628.208     3945229.71449   3085148.28247  21621628.388    21621635.214
  24015243.293     9834187.78449   7657152.96245  24015242.703    24015253.175
  22864790.513   -11381750.14249  -8853498.60046  22864790.944    22864798.686
  22039399.032     4410748.35549   3503591.40347  22039398.932    22039406.384
 03  3 26 17 40  0.0000000  0  8G10G24G 6G 5G 4G 7G30G 9
  24265045.747    -3522229.48549  -2722018.39145  24265044.910    24265058.953
  20444464.616    -7488016.84049  -5818042.64748  20444464.482    20444471.766
  24768491.239    -2455386.79849  -1896939.44945  24768491.221    24768502.009
  20738737.980   -12643780.53049  -9833017.99747  20738737.561    20738744.250
  21635510.510     4018181.83549   3141994.06047  21635510.708    21635517.586
  24028447.786     9903576.90849   7711222.24445  24028447.441    24028457.598
  22846973.584   -11475378.79849  -8926455.93746  22846974.009    22846981.655
  22053572.771     4485231.74149   3561630.35947  22053572.699    22053580.172
 03  3 26 17 40 30.0000000  0  8G10G24G 6G 5G 4G 7G30G 9
  24246079.864    -3621894.92149  -2799679.59745  24246079.139    24246092.903
  20445815.112    -7480919.97349  -5812512.62148  20445814.977    20445822.219
  24754454.717    -2529149.41849  -1954416.75145  24754454.677    24754465.371
  20729714.098   -12691201.49349  -9869969.38247  20729713.648    20729720.281
  21649465.949     4091518.14849   3199139.19947  21649466.126    21649473.057
  24041656.858     9972990.30749   7765310.46945  24041656.487    24041666.741
  22829180.291   -11568882.69549  -8999316.05046  22829180.647    22829188.394
  22067816.490     4560082.69649   3619955.72547  22067816.389    22067823.941
 03  3 26 17 41  0.0000000  0  8G10G24G 6G 5G 4G 7G30G 9
  24227111.259    -3721574.37149  -2877351.78545  24227110.690    24227124.110
  20447267.835    -7473285.76649  -5806563.88848  20447267.711    20447274.955
  24740429.819    -2602850.27749  -2011845.90845  24740429.697    24740440.574
  20720760.038   -12738254.93249  -9906634.38547  20720759.607    20720766.288
  21663494.311     4165237.57149   3256582.86447  21663494.485    21663501.303
  24054870.871    10042429.55149   7819418.84145  24054870.450    24054880.703
  22811411.315   -11662258.40949  -9072076.29046  22811411.729    22811419.472
  22082129.886     4635299.87949   3678566.46447  22082129.779    22082137.413
 03  3 26 17 41 30.0000000  0  8G10G24G 6G 5G 4G 7G30G 9
  24208140.748    -3821266.36649  -2955033.72245  24208139.974    24208152.962
  20448822.315    -7465116.95649  -5800198.58348  20448822.195    20448829.447
  24726416.434    -2676491.02149  -2069228.23145  24726416.308    24726427.338
  20711875.966   -12784940.59449  -9943012.80447  20711875.587    20711882.307
  21677594.746     4239335.75449   3314321.66347  21677594.963    21677601.709
  24068089.575    10111892.90949   7873545.99145  24068089.068    24068099.228
  22793667.047   -11755505.36749  -9144736.20346  22793667.343    22793675.036
  22096512.114     4710878.81349   3737459.09147  22096511.993    22096519.715
 03  3 26 17 42  0.0000000  0  8G10G24G 6G 5G 4G 7G30G 9
  24189168.333    -3920967.43849  -3032722.75545  24189167.407    24189180.248
  20450478.430    -7456413.95849  -5793417.02748  20450478.328    20450485.548
  24712414.661    -2750071.62749  -2126563.71345  24712414.592    24712425.476
  20703062.404   -12831256.37349  -9979103.00847  20703061.998    20703068.662
  21691766.838     4313810.10849   3372353.58647  21691767.032    21691773.780
  24081312.980    10181380.67949   7927692.16545  24081312.414    24081322.624
  22775947.532   -11848621.41449  -9217294.10746  22775947.969    22775955.535
  22110962.648     4786817.02449   3796631.66847  22110962.569    22110970.412
 03  3 26 17 42 30.0000000  0  8G10G24G 6G 5G 4G 7G30G 9
  24170194.907    -4020674.27949  -3110416.27245  24170193.764    24170206.594
  20452236.142    -7447177.21649  -5786219.56548  20452236.042    20452243.214
  24698424.101    -2823591.81449  -2183852.09745  24698423.907    24698434.730
  20694319.636   -12877200.05649 -10014903.26547  20694319.231    20694325.884
  21706010.049     4388658.35749   3430676.85447  21706010.262    21706016.955
  24094540.981    10250893.04849   7981857.50345  24094540.406    24094550.722
  22758253.419   -11941604.25249  -9289748.20146  22758253.899    22758261.411
  22125481.124     4863112.17649   3856082.37447  22125481.008    22125488.984
 03  3 26 17 43  0.0000000  0  8G10G24G 6G 5G 4G 7G30G 9
  24151220.466    -4120383.20449  -3188111.41345  24151219.479    24151232.414
  20454095.268    -7437407.63849  -5778606.90948  20454095.154    20454102.305
  24684445.124    -2897050.76749  -2241092.78345  24684444.945    24684455.752
  20685648.162   -12922769.00549 -10050411.52347  20685647.744    20685654.374
  21720324.018     4463878.70049   3489290.06447  21720324.262    21720330.936
  24107773.600    10320430.84049   8036042.65945  24107773.146    24107783.597
  22740585.207   -12034450.84849  -9362096.13846  22740585.760    22740593.320
  22140067.059     4939761.92849   3915809.39947  22140067.020    22140074.997
 03  3 26 17 43 30.0000000  0  8G10G24G 6G 5G 4G 7G30G 9
  24132246.193    -4220091.58149  -3265806.12845  24132245.285    24132258.321
  20456055.540    -7427106.57449  -5770580.10848  20456055.398    20456062.544
  24670477.923    -2970449.19349  -2298286.29345  24670477.714    24670488.572
  20677048.334   -12967961.58049 -10085626.51147  20677047.938    20677054.529
  21734708.290     4539468.12649   3548190.86647  21734708.504    21734715.195
  24121010.973    10389993.71549   8090247.39245  24121010.503    24121021.005
  22722943.340   -12127159.74849  -9434336.80846  22722943.863    22722951.407
  22154720.035     5016763.09849   3975810.24547  22154719.976    22154727.873
 03  3 26 17 44  0.0000000  0  8G10G24G 6G 5G 4G 7G30G 9
  24113272.644    -4319796.31249  -3343498.00645  24113271.780    24113284.863
  20458116.643    -7416275.19049  -5762140.06748  20458116.521    20458123.696
  24656521.778    -3043787.32149  -2355432.77245  24656521.706    24656532.714
  20668520.447   -13012776.05749 -10120546.87347  20668520.021    20668526.648
  21749162.199     4615423.62649   3607376.92547  21749162.448    21749169.116
  24134253.054    10459581.36749   8144471.42145  24134252.595    24134263.197
  22705328.047   -12219729.04149  -9506468.66546  22705328.529    22705336.036
  22169439.240     5094112.46149   4036082.41947  22169439.186    22169446.958
 03  3 26 17 44 30.0000000  0  8G10G24G 6G 5G 4G 7G30G 9
  24094300.553    -4419494.63149  -3421184.88245  24094299.743    24094312.799
  20460278.435    -7404914.93449  -5753287.91348  20460278.334    20460285.495
  24642577.235    -3117065.66249  -2412532.70445  24642577.359    24642588.236
  20660064.772   -13057211.13549 -10155171.59447  20660064.305    20660070.952
  21763685.150     4691742.08049   3666845.80347  21763685.414    21763692.072
  24147499.967    10529193.42949   8198714.43845  24147499.414    24147510.052
  22687739.737   -12312157.04549  -9578490.44146  22687740.094    22687747.563
  22184224.061     5171806.98449   4096623.54447  22184224.031    22184231.763
 03  3 26 17 45  0.0000000  0  8G10G24G 6G 5G 4G 7G30G 9
  24075330.265    -4519183.44849  -3498864.31845  24075329.566    24075342.597
  20462540.730    -7393026.63349  -5744024.30448  20462540.578    20462547.810
  24628644.246    -3190284.07549  -2469585.97545  24628644.234    24628654.969
  20651681.588   -13101264.66549 -10189499.00847  20651681.169    20651687.836
  21778276.789     4768421.00149   3726595.56247  21778277.002    21778283.615
  24160751.497    10598830.13549   8252976.66545  24160750.920    24160761.657
  22670178.584   -12404441.50149  -9650400.34746  22670178.901    22670186.424
  22199074.189     5249843.93849   4157431.50347  22199074.061    22199081.764
 03  3 26 17 45 30.0000000  0  8G10G24G 6G 5G 4G 7G30G 9
  24056362.451    -4618859.38049  -3576533.73345  24056361.907    24056374.729
  20464903.192    -7380611.79949  -5734350.40948  20464903.052    20464910.287
  24614722.708    -3263442.91349  -2526592.75445  24614722.642    24614733.346
  20643371.422   -13144934.89049 -10223527.74247  20643370.972    20643377.636
  21792936.442     4845457.89049   3786624.24447  21792936.644    21792943.288
  24174007.512    10668491.40749   8307258.05445  24174006.984    24174017.882
  22652645.127   -12496580.22749  -9722196.71246  22652645.469    22652652.969
  22213988.723     5328220.38449   4218503.99847  22213988.666    22213996.403
 03  3 26 17 46  0.0000000  0  8G10G24G 6G 5G 4G 7G30G 9
  24037397.941    -4718519.44149  -3654190.76445  24037397.366    24037410.037
  20467365.617    -7367671.33149  -5724266.92848  20467365.478    20467372.736
  24600812.485    -3336541.92449  -2583552.89845  24600812.312    24600822.977
  20635134.564   -13188219.77649 -10257256.20847  20635134.114    20635140.808
  21807663.608     4922849.92349   3846929.67847  21807663.888    21807670.588
  24187268.399    10738177.34949   8361558.66745  24187267.852    24187278.812
  22635139.806   -12588571.08149  -9793877.85746  22635140.159    22635147.658
  22228967.365     5406933.65349   4279838.94547  22228967.266    22228975.027
 03  3 26 17 46 30.0000000  0  8G10G24G 6G 5G 4G 7G30G 9
  24018436.795    -4818161.03349  -3731833.39145  24018435.993    24018448.769
  20469927.841    -7354206.98049  -5713775.23648  20469927.694    20469934.987
  24586913.227    -3409581.56549  -2640466.82845  24586913.185    24586923.872
  20626971.289   -13231117.87449 -10290683.27847  20626970.855    20626977.617
  21822457.937     5000594.10149   3907509.49947  21822458.156    21822464.846
  24200534.124    10807887.66649   8415878.24145  24200533.489    24200544.282
  22617663.073   -12680412.32849  -9865442.43946  22617663.358    22617670.876
  22244009.443     5485980.36649   4341433.72547  22244009.373    22244017.188
 03  3 26 17 47  0.0000000  0  8G10G24G 6G 5G 4G 7G30G 9
  23999479.869    -4917780.32549  -3809458.63745  23999479.037    23999491.707
  20472589.659    -7340218.96549  -5702875.48948  20472589.531    20472596.862
  24573025.365    -3482561.45749  -2697334.19145  24573025.359    24573036.112
  20618882.076   -13273626.79149 -10323807.09647  20618881.665    20618888.467
  21837318.878     5078688.45749   3968362.20147  21837319.069    21837325.753
  24213804.412    10877622.82149   8470217.20545  24213803.732    24213814.689
  22600215.124   -12772101.41549  -9936888.43046  22600215.407    22600222.945
  22259114.504     5565358.05849   4403286.41547  22259114.416    22259122.400
 03  3 26 17 47 30.0000000  0  8G10G24G 6G 5G 4G 7G30G 9
  23980527.795    -5017374.11949  -3887063.99545  23980526.927    23980539.564
  20475350.859    -7325708.82549  -5691568.89448  20475350.770    20475358.076
  24559149.008    -3555481.90449  -2754155.23145  24559148.985    24559159.852
  20610867.245   -13315744.72649 -10356626.25647  20610866.844    20610873.635
  21852245.773     5157130.02649   4029485.45047  21852245.995    21852252.665
  24227079.388    10947382.75549   8524575.45145  24227078.791    24227089.665
  22582796.521   -12863636.17749 -10008214.17846  22582796.875    22582804.371
  22274282.088     5645063.78649   4465394.70947  22274282.005    22274289.978
 03  3 26 17 48  0.0000000  0  8G10G24G 6G 5G 4G 7G30G 9
  23961580.972    -5116939.30249  -3964647.05945  23961580.113    23961592.824
  20478211.225    -7310677.70049  -5679856.33548  20478211.099    20478218.429
  24545284.054    -3628342.83349  -2810929.92345  24545284.074    24545294.673
  20602927.319   -13357469.79349 -10389139.29047  20602926.900    20602933.564
  21867238.252     5235916.14249   4090877.17347  21867238.486    21867245.213
  24240359.219    11017167.50049   8578953.04645  24240358.409    24240369.281
  22565407.728   -12955014.54949 -10079418.05946  22565408.063    22565415.540
  22289511.512     5725094.71049   4527756.40047  22289511.382    22289519.395
 03  3 26 17 48 30.0000000  0  8G10G24G 6G 5G 4G 7G30G 9
  23942640.187    -5216472.34349  -4042205.09445  23942639.436    23942651.953
  20481170.474    -7295126.49249  -5667738.51848  20481170.361    20481177.689
  24531430.420    -3701143.93349  -2867657.98345  24531430.364    24531440.837
  20595062.564   -13398799.67649 -10421344.39147  20595062.115    20595068.725
  21882295.950     5315044.73049   4152535.75747  21882296.181    21882302.923
  24253643.716    11086977.67449   8633350.46445  24253642.923    24253653.842
  22548049.187   -13046233.84849 -10150497.98046  22548049.560    22548057.039
  22304802.346     5805448.41649   4590369.61247  22304802.257    22304810.255
 03  3 26 17 49  0.0000000  0  8G10G24G 6G 5G 4G 7G30G 9
  23923705.939    -5315970.49049  -4119735.90445  23923705.304    23923717.661
  20484228.424    -7279056.79649  -5655216.68048  20484228.314    20484235.623
  24517587.978    -3773885.95849  -2924340.01945  24517588.057    24517598.396
  20587273.181   -13439733.01449 -10453240.48347  20587272.728    20587279.363
  21897418.177     5394512.49749   4214458.63647  21897418.393    21897425.182
  24266932.704    11156812.67449   8687767.21645  24266931.993    24266943.123
  22530721.233   -13137292.48249 -10221452.70246  22530721.626    22530729.052
  22320153.888     5886121.47049   4653231.66547  22320153.899    22320161.822
 03  3 26 17 49 30.0000000  0  8G10G24G 6G 5G 4G 7G30G 9
  23904779.086    -5415430.44949  -4197236.95245  23904778.466    23904790.776
  20487384.806    -7262469.80749  -5642291.76748  20487384.689    20487392.007
  24503756.848    -3846568.47049  -2980975.66645  24503757.032    24503767.334
  20579559.624   -13480267.83649 -10484826.05047  20579559.188    20579565.812
  21912604.530     5474316.97349   4276643.89247  21912604.739    21912611.546
  24280226.666    11226672.97649   8742203.70245  24280225.949    24280237.400
  22513424.352   -13228187.97949 -10292280.32546  22513424.770    22513432.055
  22335565.899     5967111.21949   4716340.49347  22335565.880    22335573.757
 03  3 26 17 50  0.0000000  0  8G10G24G 6G 5G 4G 7G30G 9
  23885860.153    -5514849.53949  -4274706.12945  23885859.334    23885871.771
  20490639.302    -7245367.42149  -5628965.24148  20490639.206    20490646.484
  24489937.233    -3919192.32649  -3037565.61245  24489937.359    24489947.551
  20571922.133   -13520403.13349 -10516100.30647  20571921.695    20571928.276
  21927854.415     5554454.95749   4339089.03047  21927854.572    21927861.368
  24293525.320    11296557.66849   8796659.17945  24293524.703    24293536.306
  22496158.817   -13318919.01449 -10362979.77646  22496159.263    22496166.495
  22351037.379     6048413.99549   4779693.23747  22351037.349    22351045.283
 03  3 26 17 50 30.0000000  0  8G10G24G 6G 5G 4G 7G30G 9
  23866949.365    -5614224.52049  -4352140.93545  23866948.476    23866961.282
  20493991.617    -7227750.87349  -5615238.06648  20493991.525    20493998.781
  24476128.495    -3991757.32349  -3094109.67445  24476128.639    24476138.972
  20564361.026   -13560136.75349 -10547061.56347  20564360.609    20564367.236
  21943167.187     5634923.74449   4401791.92147  21943167.291    21943174.168
  24306828.628    11366467.23149   8851134.03145  24306828.023    24306839.747
  22478924.880   -13409483.07849 -10433549.12546  22478925.424    22478932.596
  22366567.824     6130027.08849   4843287.79347  22366567.787    22366575.811
 03  3 26 17 51  0.0000000  0  8G10G24G 6G 5G 4G 7G30G 9
  23848047.815    -5713551.59349  -4429538.42145  23848046.931    23848059.750
  20497441.686    -7209620.66349  -5601110.62948  20497441.597    20497448.826
  24462331.192    -4064262.92149  -3150607.47245  24462331.310    24462341.561
  20556876.831   -13599466.30249 -10577707.95647  20556876.460    20556883.085
  21958542.476     5715721.36649   4464751.05247  21958542.617    21958549.540
  24320136.989    11436402.30149   8905628.76345  24320136.379    24320147.972
  22461723.460   -13499877.29149 -10503986.11846  22461723.941    22461731.140
  22382156.868     6211948.29149   4907122.43347  22382156.885    22382164.967
 03  3 26 17 51 30.0000000  0  8G10G24G 6G 5G 4G 7G30G 9
  23829155.708    -5812828.40749  -4506896.71845  23829154.900    23829167.717
  20500989.098    -7190979.14649  -5586584.78148  20500988.981    20500996.220
  24448544.952    -4136710.15349  -3207059.77245  24448544.935    24448555.463
  20549469.785   -13638390.66149 -10608038.62047  20549469.408    20549476.035
  21973979.573     5796844.13249   4527963.53847  21973979.790    21973986.784
  24333449.966    11506361.97949   8960142.68645  24333449.494    24333461.088
  22444554.595   -13590100.52149 -10574289.88146  22444555.058    22444562.214
  22397803.864     6294173.55149   4971194.00147  22397803.833    22397811.948
 03  3 26 17 52  0.0000000  0  8G10G24G 6G 5G 4G 7G30G 9
  23810273.958    -5912050.73149  -4584212.56545  23810273.161    23810286.174
  20504633.725    -7171826.77449  -5571660.85748  20504633.618    20504640.840
  24434769.984    -4209098.14749  -3263465.91245  24434769.891    24434780.331
  20542140.406   -13676907.14349 -10638051.46047  20542139.993    20542146.623
  21989478.337     5878290.43449   4591428.12947  21989478.541    21989485.562
  24346767.807    11576347.37749   9014676.64045  24346767.353    24346779.268
  22427419.001   -13680149.54549 -10644457.91046  22427419.301    22427426.423
  22413508.289     6376700.77949   5035500.86347  22413508.301    22413516.436
 03  3 26 17 52 30.0000000  0  8G10G24G 6G 5G 4G 7G30G 9
  23791403.390    -6011216.35349  -4661484.21245  23791402.595    23791415.499
  20508375.073    -7152165.89249  -5556340.69248  20508374.958    20508382.160
  24421006.316    -4281427.71949  -3319826.53745  24421006.268    24421016.040
  20534888.690   -13715014.85049 -10667745.77747  20534888.303    20534894.968
  22005037.930     5960056.67049   4655142.02047  22005038.119    22005045.187
  24360090.370    11646357.73149   9069230.05145  24360090.000    24360102.100
  22410316.614   -13770022.95049 -10714489.07846  22410316.901    22410324.042
  22429269.500     6459526.34249   5100040.19747  22429269.500    22429277.640
 03  3 26 17 53  0.0000000  0  8G10G24G 6G 5G 4G 7G30G 9
  23772544.197    -6110321.63349  -4738708.87945  23772543.361    23772556.190
  20512212.939    -7131997.51949  -5540625.08148  20512212.860    20512220.083
  24407253.465    -4353698.95049  -3376141.71945  24407253.430    24407263.110
  20527715.148   -13752711.72249 -10697119.95747  20527714.779    20527721.483
  22020657.989     6042140.79949   4719103.61347  22020658.245    22020665.324
  24373417.779    11716393.15949   9123802.99145  24373417.274    24373429.423
  22393248.151   -13859718.39149 -10784381.58946  22393248.397    22393255.503
  22445086.987     6542647.55349   5164809.90147  22445086.979    22445095.126
 03  3 26 17 53 30.0000000  0  8G10G24G 6G 5G 4G 7G30G 9
  23753697.046    -6209363.35949  -4815884.00845  23753696.119    23753708.876
  20516147.186    -7111323.19849  -5524515.22148  20516147.067    20516154.302
  24393511.570    -4425911.78749  -3432411.38945  24393511.563    24393521.454
  20520620.153   -13789996.04749 -10726172.67447  20520619.780    20520626.509
  22036337.963     6124539.41949   4783310.27347  22036338.280    22036345.232
  24386749.915    11786453.82949   9178395.58245  24386749.494    24386761.526
  22376213.965   -13949233.56449 -10854133.62446  22376214.209    22376221.392
  22460960.290     6626061.48849   5229807.69647  22460960.211    22460968.329
 03  3 26 17 54  0.0000000  0  8G10G24G 6G 5G 4G 7G30G 9
  23734862.725    -6308338.47149  -4893007.21545  23734861.567    23734874.464
  20520177.463    -7090144.08449  -5508012.01248  20520177.357    20520184.585
  24379780.866    -4498066.31049  -3488635.61245  24379780.849    24379790.729
  20513604.122   -13826865.89749 -10754902.42047  20513603.718    20513610.406
  22052077.448     6207250.25549   4847760.22547  22052077.694    22052084.624
  24400087.108    11856539.78249   9233007.90045  24400086.681    24400098.688
  22359214.506   -14038566.34649 -10923743.53046  22359214.778    22359221.955
  22476888.589     6709765.06549   5295031.19347  22476888.544    22476896.596
 03  3 26 17 54 30.0000000  0  8G10G24G 6G 5G 4G 7G30G 9
  23716041.647    -6407243.32549  -4970075.72145  23716040.656    23716053.385
  20524303.569    -7068461.41349  -5491116.42648  20524303.480    20524310.664
  24366061.448    -4570162.42649  -3544814.33245  24366061.406    24366071.268
  20506667.303   -13863319.25949 -10783307.63847  20506666.900    20506673.548
  22067875.751     6290270.75549   4912451.46147  22067876.027    22067882.982
  24413429.142    11926651.29149   9287640.12545  24413428.744    24413440.610
  22342250.166   -14127714.22449 -10993209.34846  22342250.432    22342257.651
  22492871.391     6793755.47249   5360478.18346  22492871.399    22492879.507
 03  3 26 17 55  0.0000000  0  8G10G24G 6G 5G 4G 7G30G 9
  23697234.299    -6506075.18349  -5047087.34145  23697233.597    23697246.169
  20528525.106    -7046277.07749  -5473829.93148  20528525.008    20528532.149
  24352353.183    -4642200.47549  -3600947.79145  24352353.077    24352362.981
  20499809.987   -13899354.54649 -10811387.07747  20499809.567    20499816.218
  22083732.470     6373597.97449   4977381.70347  22083732.790    22083739.736
  24426776.017    11996788.31649   9342292.22345  24426775.565    24426787.020
  22325321.536   -14216675.15649 -11062529.51146  22325321.732    22325328.874
  22508908.385     6878029.67949   5426146.32146  22508908.297    22508916.404
 03  3 26 17 55 30.0000000  0  8G10G24G 6G 5G 4G 7G30G 9
  23678441.683    -6604830.42649  -5124039.30645  23678441.136    23678453.281
  20532841.916    -7023592.34549  -5456153.51348  20532841.809    20532848.942
  24338655.580    -4714180.48049  -3657036.05545  24338655.540    24338665.532
  20493032.573   -13934970.11249 -10839139.46047  20493032.169    20493038.812
  22099647.164     6457229.54449   5042549.09747  22099647.422    22099654.409
  24440127.647    12066951.08949   9396964.36145  24440127.132    24440138.505
  22308428.818   -14305446.75949 -11131702.14046  22308429.076    22308436.076
  22524998.798     6962584.94549   5492033.45846  22524998.678    22525006.797
 03  3 26 17 56  0.0000000  0  8G10G24G 6G 5G 4G 7G30G 9
  23659664.334    -6703505.65249  -5200928.90845  23659663.755    23659675.754
  20537253.603    -7000408.68949  -5438088.33148  20537253.475    20537260.639
  24324969.180    -4786102.21849  -3713078.89445  24324969.144    24324979.048
  20486335.410   -13970164.07949 -10866563.32448  20486334.995    20486341.647
  22115619.185     6541162.85549   5107951.60547  22115619.385    22115626.494
  24453483.992    12137139.84249   9451656.76745  24453483.556    24453495.138
  22291572.651   -14394026.67049 -11200725.39446  22291572.895    22291579.802
  22541142.146     7047418.39249   5558137.36246  22541142.012    22541150.215
 03  3 26 17 56 30.0000000  0  8G10G24G 6G 5G 4G 7G30G 9
  23640902.769    -6802097.53049  -5277753.57745  23640902.155    23640914.204
  20541759.888    -6976727.52349  -5419635.47748  20541759.806    20541767.007
  24311293.983    -4857965.55649  -3769076.21545  24311293.882    24311304.001
  20479718.875   -14004934.50749 -10893657.16748  20479718.426    20479725.055
  22131648.043     6625395.35849   5173587.25447  22131648.279    22131655.525
  24466845.534    12207354.57749   9506369.44345  24466845.075    24466856.707
  22274753.235   -14482412.52049 -11269597.43046  22274753.539    22274760.450
  22557337.685     7132526.99049   5624455.68646  22557337.620    22557345.979
 03  3 26 17 57  0.0000000  0  8G10G24G 6G 5G 4G 7G30G 9
  23622157.463    -6900602.99949  -5354510.94945  23622156.912    23622169.090
  20546360.600    -6952550.50049  -5400796.24248  20546360.511    20546367.795
  24297629.816    -4929771.10149  -3825028.51945  24297629.761    24297639.879
  20473183.039   -14039280.18449 -10920420.02848  20473182.621    20473189.311
  22147733.290     6709923.90249   5239453.59646  22147733.553    22147740.836
  24480212.021    12277595.27649   9561102.30145  24480211.681    24480223.101
  22257971.199   -14570602.47049 -11338316.81946  22257971.517    22257978.398
  22573585.099     7217907.36349   5690985.76346  22573584.972    22573593.485
 03  3 26 17 57 30.0000000  0  8G10G24G 6G 5G 4G 7G30G 9
  23603429.394    -6999018.86849  -5431198.51445  23603428.786    23603440.988
  20551055.421    -6927879.11349  -5381571.78448  20551055.330    20551062.613
  24283976.598    -5001518.76449  -3880935.71145  24283976.333    24283986.689
  20466728.428   -14073199.07949 -10946850.33248  20466728.039    20466734.787
  22163874.513     6794746.13349   5305548.78746  22163874.778    22163882.040
  24493583.551    12347862.09449   9615855.52645  24493583.185    24493594.339
  22241226.863   -14658593.99749 -11406881.59746  22241227.179    22241234.072
  22589883.628     7303556.81849   5757725.52346  22589883.549    22589892.136
 03  3 26 17 58  0.0000000  0  8G10G24G 6G 5G 4G 7G30G 9
  23584719.247    -7097341.92649  -5507813.77245  23584718.469    23584730.441
  20555844.064    -6902714.88749  -5361963.29948  20555843.965    20555851.248
  24270334.533    -5073208.68849  -3936797.93045  24270334.197    24270344.443
  20460355.431   -14106689.46949 -10972946.74348  20460355.021    20460361.788
  22180071.060     6879859.09149   5371870.51746  22180071.296    22180078.521
  24506959.960    12418155.15449   9670629.19145  24506959.556    24506970.833
  22224520.705   -14746384.81149 -11475289.96646  22224521.064    22224528.010
  22606232.814     7389472.26349   5824672.54546  22606232.790    22606241.351
 03  3 26 17 58 30.0000000  0  8G10G24G 6G 5G 4G 7G30G 9
  23566026.811    -7195569.87649  -5584354.92845  23566026.160    23566038.018
  20560725.891    -6877060.86949  -5341973.16148  20560725.796    20560733.029
  24256703.235    -5144842.19049  -3992616.18945  24256702.784    24256713.012
  20454064.070   -14139750.85349 -10998708.86048  20454063.646    20454070.379
  22196322.166     6965259.07849   5438415.89546  22196322.366    22196329.653
  24520341.079    12488473.33849   9725422.43845  24520340.761    24520352.031
  22207853.015   -14833973.93149 -11543541.18846  22207853.403    22207860.249
  22622631.953     7475649.65449   5891823.67846  22622631.888    22622640.379
 03  3 26 17 59  0.0000000  0  8G10G24G 6G 5G 4G 7G30G 9
  23547353.676    -7293697.80949  -5660818.15545  23547353.017    23547364.737
  20565700.968    -6850916.68249  -5321601.06848  20565700.892    20565708.108
  24243082.787    -5216417.53449  -4048389.10445  24243082.423    24243092.559
  20447855.025   -14172379.83449 -11024134.03848  20447854.605    20447861.297
  22212627.708     7050945.13149   5505184.20146  22212627.928    22212635.250
  24533727.218    12558818.18649   9780236.46045  24533726.845    24533738.080
  22191224.528   -14921357.42549 -11611632.18346  22191224.865    22191231.622
  22639080.601     7562087.55849   5959177.80546  22639080.521    22639088.973
 03  3 26 17 59 30.0000000  0  8G10G24G 6G 5G 4G 7G30G 9
  23528700.072    -7391722.92049  -5737201.27645  23528699.431    23528710.986
  20570768.928    -6824284.43749  -5300848.67348  20570768.843    20570776.057
  24229473.384    -5287935.11749  -4104116.98845  24229473.025    24229483.010
  20441728.506   -14204575.29849 -11049221.41048  20441728.056    20441734.670
  22228987.065     7136914.11349   5572172.96346  22228987.312    22228994.628
  24547118.422    12629189.58449   9835071.16845  24547117.973    24547129.179
  22174635.551   -15008533.39549 -11679561.48146  22174635.869    22174642.536
  22655578.030     7648782.55449   6026732.26846  22655577.990    22655586.521
 03  3 26 18  0  0.0000000  0  8G10G24G 6G 5G 4G 7G30G 9
  23510066.563    -7489641.96049  -5813501.75145  23510065.931    23510077.507
  20575929.516    -6797165.63849  -5279717.14748  20575929.401    20575936.578
  24215874.895    -5359394.91649  -4159799.87545  24215874.649    24215884.601
  20435684.884   -14236335.34549 -11073969.50248  20435684.380    20435690.969
  22245399.881     7223163.50349   5639380.22746  22245400.090    22245407.363
  24560514.964    12699587.75549   9889926.71245  24560514.500    24560525.659
  22158086.418   -15095499.37849 -11747327.14446  22158086.746    22158093.450
  22672124.082     7735731.78149   6094484.80646  22672124.015    22672132.540
 03  3 26 18  0 30.0000000  0  8G10G24G 6G 5G 4G 7G30G 9
  23491453.863    -7587451.68649  -5889717.06645  23491453.365    23491464.875
  20581182.161    -6769562.45849  -5258208.18148  20581182.084    20581189.277
  24202287.306    -5430797.47449  -4215438.15245  24202287.195    24202297.160
  20429724.198   -14267658.68449 -11098377.29248  20429723.727    20429730.353
  22261865.446     7309690.22749   5706803.59546  22261865.631    22261872.925
  24573916.622    12770012.56849   9944803.03045  24573916.051    24573927.432
  22141577.591   -15182253.43949 -11814927.66146  22141577.945    22141584.722
  22688717.882     7822931.85249   6162432.81846  22688717.777    22688726.274
 03  3 26 18  1  0.0000000  0  8G10G24G 6G 5G 4G 7G30G 9
  23472862.659    -7685149.76249  -5965845.36445  23472862.045    23472873.466
  20586526.600    -6741477.25549  -5236323.61348  20586526.524    20586533.722
  24188710.412    -5502143.97849  -4271032.78145  24188710.424    24188720.269
  20423846.768   -14298544.73249 -11122444.33948  20423846.315    20423852.898
  22278383.026     7396490.67049   5774440.25346  22278383.266    22278390.614
  24587322.876    12840463.05349   9999699.35845  24587322.380    24587334.148
  22125109.332   -15268794.32049 -11882362.08246  22125109.715    22125116.547
  22705358.552     7910378.91049   6230573.28446  22705358.477    22705366.960
 03  3 26 18  1 30.0000000  0  8G10G24G 6G 5G 4G 7G30G 9
  23454293.550    -7782731.68749  -6041883.13745  23454292.731    23454304.117
  20591962.677    -6712910.50849  -5214063.81548  20591962.581    20591969.776
  24175144.547    -5573433.22049  -4326582.74145  24175144.565    24175154.289
  20418053.146   -14328990.67749 -11146168.44448  20418052.656    20418059.247
  22294952.488     7483563.46149   5842289.13446  22294952.675    22294960.080
  24600734.251    12910940.57949  10054616.72145  24600733.837    24600745.564
  22108682.395   -15355118.26349 -11949627.45646  22108682.797    22108689.580
  22722045.837     7998071.01649   6298904.71546  22722045.835    22722054.219
 03  3 26 18  2  0.0000000  0  8G10G24G 6G 5G 4G 7G30G 9
  23435746.718    -7880194.65449  -6117828.19645  23435746.061    23435757.513
  20597489.968    -6683864.32949  -5191430.43748  20597489.855    20597497.039
  24161589.339    -5644665.41349  -4382088.27845  24161589.310    24161599.126
  20412343.482   -14358994.97149 -11169548.41048  20412342.999    20412349.663
  22311573.145     7570905.55449   5910347.85946  22311573.349    22311580.755
  24614151.097    12981444.88349  10109554.94245  24614150.567    24614161.757
  22092297.124   -15441223.37049 -12016722.30246  22092297.531    22092304.308
  22738779.217     8086004.92549   6367424.54546  22738779.201    22738787.566
 03  3 26 18  2 30.0000000  0  8G10G24G 6G 5G 4G 7G30G 9
  23417223.493    -7977534.55549  -6193677.35545  23417222.855    23417234.286
  20603108.330    -6654339.67849  -5168424.22548  20603108.235    20603115.433
  24148044.989    -5715840.23649  -4437549.14945  24148044.956    24148054.917
  20406718.258   -14388555.52749 -11192582.60448  20406717.813    20406724.512
  22328244.552     7658514.74049   5978614.71546  22328244.857    22328252.239
  24627573.194    13051976.61449  10164514.52745  24627572.676    24627583.749
  22075953.896   -15527106.92849 -12083644.50446  22075954.345    22075961.140
  22755558.182     8174178.08049   6436130.80846  22755558.135    22755566.487
 03  3 26 18  3  0.0000000  0  7G10G24G 6G 5G 4G30G 9
  23398724.527    -8074746.53349  -6269426.80445  23398723.911    23398735.445
  20608817.776    -6624336.56349  -5145045.19048  20608817.652    20608824.808
  24134511.871    -5786955.94949  -4492963.93045  24134511.915    24134521.883
  20401178.174   -14417668.94849 -11215268.38948  20401177.748    20401184.406
  22344966.748     7746390.28149   6047089.11846  22344967.091    22344974.396
  22059653.641   -15612764.80949 -12150390.85846  22059654.139    22059660.990
  22772382.289     8262589.35949   6505022.62046  22772382.238    22772390.662
 03  3 26 18  3 30.0000000  0  7G10G24G 6G 5G 4G30G 9
  23380250.442    -8171829.43849  -6345075.68345  23380249.700    23380261.199
  20614617.458    -6593859.12449  -5121296.55248  20614617.337    20614624.455
  24120989.619    -5858014.85949  -4548334.45245  24120989.806    24120999.776
  20395723.028   -14446335.89049 -11237606.26948  20395722.605    20395729.231
  22361738.709     7834527.34249   6115767.29946  22361739.100    22361746.311
  22043396.456   -15698196.82349 -12216961.21946  22043396.924    22043403.792
  22789250.701     8351233.37649   6574095.78546  22789250.660    22789259.147
 03  3 26 18  4  0.0000000  0  7G10G24G 6G 5G 4G30G 9
  23361801.086    -8268781.88549  -6420622.87945  23361800.212    23361811.625
  20620506.606    -6562911.18349  -5097181.29248  20620506.500    20620513.655
  24107477.915    -5929019.15349  -4603662.41545  24107478.011    24107488.079
  20390352.732   -14474556.98849 -11259596.73448  20390352.313    20390358.912
  22378559.493     7922921.05349   6184645.46446  22378559.905    22378567.103
  22027182.338   -15783402.80849 -12283355.45046  22027182.749    22027189.612
  22806162.445     8440105.12449   6643346.41046  22806162.402    22806171.020
 03  3 26 18  4 30.0000000  0  7G10G24G 6G 5G 4G30G 9
  23343377.288    -8365598.74449  -6496064.40145  23343376.437    23343387.730
  20626485.406    -6531492.36149  -5072699.10848  20626485.321    20626492.484
  24093977.004    -5999966.83849  -4658946.30645  24093977.056    24093987.264
  20385067.951   -14502328.58749 -11281236.94148  20385067.521    20385074.142
  22395429.065     8011570.71649   6253723.07346  22395429.407    22395436.688
  22011012.000   -15868378.29849 -12349570.08046  22011012.363    22011019.325
  22823117.235     8529203.43949   6712773.57846  22823117.224    22823125.998
 03  3 26 18  5  0.0000000  0  7G10G24G 6G 5G 4G30G 9
  23324979.921    -8462276.56349  -6571397.58545  23324979.154    23324990.258
  20632553.536    -6499604.20049  -5047851.20548  20632553.460    20632560.627
  24080486.952    -6070857.94849  -4714186.11745  24080487.105    24080497.144
  20379869.060   -14529648.86649 -11302525.46248  20379868.621    20379875.279
  22412346.897     8100473.90649   6322998.23546  22412347.205    22412354.559
  21994885.927   -15953120.99849 -12415603.31046  21994886.327    21994893.344
  22840114.810     8618525.59249   6782375.15746  22840114.767    22840123.447
 03  3 26 18  5 30.0000000  0  7G10G24G 6G 5G 4G30G 9
  23306609.680    -8558811.91549  -6646619.73245  23306608.931    23306619.995
  20638710.622    -6467248.35649  -5022638.87348  20638710.538    20638717.758
  24067007.736    -6141692.42049  -4769381.77245  24067007.837    24067017.639
  20374756.341   -14556516.25749 -11323461.09048  20374755.920    20374762.597
  22429312.397     8189627.89749   6392468.81746  22429312.710    22429320.062
  21978804.621   -16037628.36849 -12481453.17246  21978805.060    21978812.142
  22857154.308     8708068.53349   6852148.78646  22857154.281    22857162.969
 03  3 26 18  6  0.0000000  0  7G10G24G 6G 5G 4G30G 9
  23288267.238    -8655201.50649  -6721728.31645  23288266.439    23288277.502
  20644956.347    -6434427.19849  -4997063.96748  20644956.244    20644963.496
  24053539.076    -6212470.46849  -4824533.44245  24053539.191    24053549.095
  20369730.038   -14582929.50349 -11344042.84548  20369729.640    20369736.303
  22446325.278     8279030.01949   6462132.74946  22446325.442    22446332.727
  21962768.497   -16121898.32249 -12547118.03446  21962768.962    21962776.124
  22874235.192     8797828.75349   6922091.71046  22874235.147    22874243.785
 03  3 26 18  6 30.0000000  0  7G10G24G 6G 5G 4G30G 9
  23269953.002    -8751441.70149  -6796720.45945  23269952.248    23269963.446
  20651290.278    -6401142.17049  -4971127.60148  20651290.189    20651297.437
  24040081.160    -6283191.69349  -4879640.82745  24040081.278    24040091.394
  20364790.557   -14608886.81749 -11364269.32348  20364790.149    20364796.787
  22463384.775     8368678.03549   6531988.29346  22463384.962    22463392.259
  21946778.014   -16205928.12949 -12612595.75546  21946778.531    21946785.769
  22891357.028     8887803.86849   6992202.08746  22891356.983    22891365.437
 03  3 26 18  7  0.0000000  0  7G10G24G 6G 5G 4G30G 9
  23251667.943    -8847529.35349  -6871593.75845  23251667.176    23251678.252
  20657712.161    -6367394.83249  -4944830.99348  20657712.083    20657719.366
  24026634.210    -6353856.44149  -4934704.18645  24026634.307    24026644.240
  20359938.158   -14634386.61749 -11384139.30448  20359937.728    20359944.310
  22480490.359     8458569.01749   6602033.14746  22480490.630    22480497.980
  21930833.809   -16289715.46349 -12677884.56746  21930834.309    21930841.475
  22908519.209     8977990.72949   7062477.45446  22908519.123    22908527.563
 03  3 26 18  7 30.0000000  0  7G10G24G 6G 5G 4G30G 9
  23233412.580    -8943461.52149  -6946345.88045  23233411.794    23233422.689
  20664221.636    -6333187.35049  -4918175.83548  20664221.557    20664228.866
  24013198.008    -6424465.11449  -4989723.87045  24013198.009    24013207.653
  20355172.959   -14659427.89049 -11403651.98748  20355172.537    20355179.120
  22497641.784     8548700.15549   6672265.12746  22497642.027    22497649.411
  21914936.062   -16373258.57249 -12742983.05946  21914936.565    21914943.664
  22925720.936     9068385.93849   7132915.18446  22925720.913    22925729.319
 03  3 26 18  8  0.0000000  0  7G10G24G 6G 5G 4G30G 9
  23215187.204    -9039235.02749  -7020974.39245  23215186.551    23215197.335
  20670818.264    -6298522.03149  -4891163.91747  20670818.180    20670825.454
  23999772.521    -6495017.78549  -5044699.89845  23999772.403    23999781.842
  20350495.313   -14684009.25649 -11422806.30348  20350494.885    20350501.431
  22514838.268     8639068.78149   6742682.18146  22514838.631    22514846.057
  21899085.400   -16456554.88449 -12807889.24746  21899085.818    21899092.818
  22942961.738     9158986.24049   7203512.72146  22942961.698    22942970.066
 03  3 26 18  8 30.0000000  0  7G10G24G 6G 5G 4G30G 9
  23196993.093    -9134845.93349  -7095476.17545  23196992.267    23197003.077
  20677501.874    -6263399.82649  -4863795.98247  20677501.753    20677509.015
  23986357.360    -6565514.10649  -5099631.99545  23986357.291    23986366.961
  20345905.505   -14708128.82849 -11441600.78248  20345905.103    20345911.667
  22532079.764     8729672.59049   6813282.49546  22532080.085    22532087.497
  21883282.061   -16539601.78949 -12872601.07647  21883282.469    21883289.505
  22960241.137     9249789.10149   7274268.08246  22960241.036    22960249.353
 03  3 26 18  9  0.0000000  0  7G10G24G 6G 5G 4G30G 9
  23178830.462    -9230291.13649  -7169848.87945  23178829.560    23178840.167
  20684271.968    -6227822.77949  -4836073.63147  20684271.857    20684279.119
  23972952.878    -6635954.23349  -5154520.31345  23972952.850    23972962.555
  20341403.792   -14731785.23449 -11460034.35448  20341403.389    20341410.036
  22549365.378     8820508.79349   6884063.89846  22549365.749    22549373.098
  21867526.683   -16622396.98749 -12937116.77847  21867527.086    21867534.119
  22977558.503     9340791.53949   7345178.96346  22977558.427    22977566.625
 03  3 26 18  9 30.0000000  0  7G10G24G 6G 5G 4G30G 9
  23160699.758    -9325567.87349  -7244090.31946  23160698.962    23160709.392
  20691128.004    -6191793.94449  -4807999.22747  20691127.890    20691135.154
  23959558.756    -6706339.03949  -5209365.51045  23959558.693    23959568.662
  20336990.372   -14754977.57049 -11478106.30448  20336990.025    20336996.733
  22566694.733     8911574.26049   6955023.94946  22566695.032    22566702.309
  21851819.475   -16704938.68949 -13001434.94147  21851819.880    21851826.918
  22994913.013     9431989.78549   7416242.42346  22994912.933    22994921.297
 03  3 26 18 10  0.0000000  0  7G10G24G 6G 5G 4G30G 9
  23142601.970    -9420671.81149  -7318197.09546  23142601.141    23142611.489
  20698069.871    -6155314.04549  -4779573.35547  20698069.814    20698077.122
  23946175.780    -6776667.49149  -5264166.81145  23946175.687    23946185.479
  20332665.846   -14777703.44649 -11495814.78948  20332665.459    20332672.143
  22584067.333     9002867.32449   7026161.33746  22584067.565    22584074.876
  21836161.053   -16787223.61349 -13065553.02447  21836161.490    21836168.529
  23012304.359     9523381.94749   7487456.98046  23012304.343    23012312.727
 03  3 26 18 10 30.0000000  0  7G10G24G 6G 5G 4G30G 9
  23124537.608    -9515599.64449  -7392166.67146  23124536.827    23124547.298
  20705097.288    -6118384.78849  -4750797.32447  20705097.229    20705104.548
  23932803.413    -6846939.57149  -5318924.16145  23932803.325    23932813.108
  20328430.274   -14799961.66049 -11513158.85848  20328429.851    20328436.510
  22601482.630     9094385.40749   7097474.04946  22601482.859    22601490.275
  21820552.053   -16869249.32649 -13129469.12947  21820552.536    21820559.445
  23029732.190     9614964.68849   7558820.03946  23029732.138    23029740.470
 03  3 26 18 11  0.0000000  0  7G10G24G 6G 5G 4G30G 9
  23106507.209    -9610348.59049  -7465996.84646  23106506.469    23106517.115
  20712209.723    -6081008.61349  -4721673.04847  20712209.666    20712217.010
  23919441.543    -6917155.95149  -5373638.12145  23919441.565    23919451.544
  20324283.870   -14821751.01749 -11530137.58348  20324283.471    20324290.121
  22618940.021     9186125.27549   7168959.60246  22618940.354    22618947.839
  21804992.674   -16951014.03849 -13193181.84947  21804993.177    21805000.053
  23047195.490     9706734.53649   7630328.89846  23047195.458    23047203.820
 03  3 26 18 11 30.0000000  0  7G10G24G 6G 5G 4G30G 9
  23088511.645    -9704914.79749  -7539684.64446  23088511.027    23088521.710
  20719407.114    -6043186.59149  -4692201.36247  20719407.023    20719414.336
  23906090.489    -6987316.15949  -5428308.33445  23906090.428    23906100.411
  20320227.097   -14843069.74149 -11546749.58848  20320226.680    20320233.339
  22636439.393     9278084.74349   7240616.25946  22636439.728    22636447.205
  21789483.580   -17032514.90949 -13256689.00247  21789484.074    21789490.814
  23064693.811     9798688.96349   7701981.58846  23064693.814    23064702.253
 03  3 26 18 12  0.0000000  0  7G10G24G 6G 5G 4G30G 9
  23070551.439    -9799295.22449  -7613227.66546  23070550.880    23070561.667
  20726688.786    -6004921.39849  -4662384.33947  20726688.662    20726695.988
  23892749.904    -7057420.61549  -5482935.09145  23892749.994    23892759.769
  20316260.055   -14863916.75449 -11562994.02648  20316259.636    20316266.265
  22653980.050     9370261.12949   7312441.96146  22653980.326    22653987.799
  21774025.098   -17113749.88149 -13319988.93947  21774025.556    21774032.228
  23082226.759     9890824.75249   7773775.59646  23082226.786    23082235.270
 03  3 26 18 12 30.0000000  0  7G10G24G 6G 5G 4G30G 9
  23052627.342    -9893486.85549  -7686623.59546  23052626.759    23052637.531
  20734054.318    -5966215.44949  -4632223.86647  20734054.183    20734061.493
  23879420.060    -7127469.55849  -5537518.59945  23879420.042    23879429.717
  20312383.029   -14884290.80049 -11578869.91148  20312382.620    20312389.265
  22671561.410     9462651.76649   7384434.59446  22671561.665    22671569.187
  21758617.687   -17194716.59749 -13383079.85247  21758618.072    21758624.683
  23099793.634     9983138.53949   7845708.28946  23099793.576    23099802.194
 03  3 26 18 13  0.0000000  0  7G10G24G 6G 5G 4G30G 9
  23034739.770    -9987486.00049  -7759869.52046  23034739.182    23034749.889
  20741503.418    -5927070.17649  -4601721.06247  20741503.296    20741510.562
  23866100.849    -7197462.88249  -5592058.76745  23866100.732    23866110.350
  20308596.207   -14904190.54349 -11594376.20648  20308595.782    20308602.510
  22689183.037     9555253.69349   7456591.85546  22689183.315    22689190.888
  21743261.735   -17275412.77349 -13445959.95147  21743262.033    21743268.671
  23117393.575    10075627.31249   7917777.34346  23117393.521    23117402.335
 03  3 26 18 13 30.0000000  0  7G10G24G 6G 5G 4G30G 9
  23016889.636   -10081289.02749  -7832962.65146  23016889.019    23016899.486
  20749035.740    -5887487.42749  -4570877.36847  20749035.671    20749042.956
  23852792.021    -7267400.38849  -5646555.43145  23852791.916    23852801.592
  20304899.927   -14923614.38149 -11609511.66548  20304899.511    20304906.302
  22706844.528     9648064.78449   7528912.11046  22706844.768    22706852.374
  21727957.782   -17355835.68249 -13508627.11647  21727958.058    21727964.702
  23135026.399    10168288.17749   7989980.49946  23135026.334    23135035.223
 03  3 26 18 14  0.0000000  0  7G10G24G 6G 5G 4G30G 9
  22999077.383   -10174893.35149  -7905900.96046  22999076.621    22999086.970
  20756650.859    -5847469.76149  -4539694.78447  20756650.790    20756658.094
  23839493.817    -7337282.61449  -5701009.04945  23839493.771    23839503.433
  20301294.418   -14942561.54149 -11624275.69748  20301293.997    20301300.755
  22724545.215     9741081.90649   7601392.90146  22724545.435    22724553.001
  21712706.143   -17435983.49049 -13571079.92347  21712706.396    21712713.093
  23152691.189    10261117.63449   8062315.01446  23152691.175    23152700.270
 03  3 26 18 14 30.0000000  0  7G10G24G 6G 5G 4G30G 9
  22981303.408   -10268295.24549  -7978681.51046  22981302.696    22981313.118
  20764348.418    -5807018.98349  -4508174.70747  20764348.301    20764355.618
  23826206.089    -7407109.47349  -5755419.51245  23826206.012    23826215.625
  20297779.969   -14961030.13049 -11638666.81148  20297779.550    20297786.287
  22742284.808     9834303.09249   7674032.70946  22742284.914    22742292.411
  21697507.259   -17515853.49749 -13633316.25747  21697507.628    21697514.342
  23170387.543    10354113.12949   8134778.93246  23170387.584    23170396.889
 03  3 26 18 15  0.0000000  0  7G10G24G 6G 5G 4G30G 9
  22963568.768   -10361490.41949  -8051300.99446  22963568.083    22963578.480
  20772128.261    -5766135.67849  -4476317.59647  20772128.145    20772135.468
  23812928.865    -7476880.00649  -5809786.09545  23812929.002    23812938.624
  20294357.030   -14979018.01149 -11652683.35248  20294356.609    20294363.277
  22760062.626     9927726.52449   7746830.09946  22760062.836    22760070.349
  21682361.983   -17595442.19649 -13695333.39347  21682362.363    21682369.084
  23188115.243    10447272.53749   8207370.56646  23188115.242    23188124.562
 03  3 26 18 15 30.0000000  0  7G10G24G 6G 5G 4G30G 9
  22945874.167   -10454475.68049  -8123756.90746  22945873.423    22945883.922
  20779989.885    -5724822.78249  -4444125.73647  20779989.762    20779997.083
  23799662.476    -7546594.58949  -5864109.05545  23799662.686    23799672.209
  20291025.717   -14996524.45449 -11666324.74548  20291025.275    20291031.905
  22777878.475    10021349.11849   7819782.68946  22777878.662    22777886.233
  21667270.546   -17674747.81349 -13757129.95447  21667271.000    21667277.685
  23205873.631    10540592.40049   8280087.21946  23205873.498    23205882.810
 03  3 26 18 16  0.0000000  0  7G10G24G 6G 5G 4G30G 9
  22928219.845   -10547248.18849  -8196047.04346  22928219.144    22928229.682
  20787932.820    -5683082.38349  -4411600.75647  20787932.714    20787940.055
  23786406.775    -7616253.52549  -5918388.69445  23786407.033    23786416.319
  20287786.125   -15013548.44049 -11679590.19548  20287785.708    20287792.342
  22795731.839    10115168.27349   7892888.42346  22795731.943    22795739.588
  21652233.559   -17753768.12849 -13818704.19847  21652233.970    21652240.563
  23223661.721    10634069.30449   8352926.24546  23223661.653    23223671.017
 03  3 26 18 16 30.0000000  0  7G10G24G 6G 5G 4G30G 9
  22910606.570   -10639805.43049  -8268169.44046  22910605.917    22910616.466
  20795956.608    -5640917.03349  -4378744.64647  20795956.519    20795963.811
  23773161.696    -7685857.75649  -5972625.65445  23773161.872    23773171.041
  20284638.511   -15030089.49349 -11692479.33848  20284638.087    20284644.727
  22813621.843    10209180.58149   7966144.68146  22813621.968    22813629.589
  21637251.182   -17832501.54749 -13880054.88447  21637251.552    21637258.077
  23241479.121    10727699.34549   8425884.59546  23241479.048    23241488.445
 03  3 26 18 17  0.0000000  0  7G10G24G 6G 5G 4G30G 9
  22893035.132   -10732143.69049  -8340121.20646  22893034.452    22893044.921
  20804060.876    -5598328.92449  -4345559.11947  20804060.749    20804068.052
  23759926.931    -7755407.04849  -6026819.82045  23759927.065    23759936.126
  20281583.011   -15046146.11949 -11704991.00148  20281582.593    20281589.285
  22831548.128    10303383.64049   8039549.57446  22831548.258    22831556.001
  21622323.811   -17910945.45449 -13941179.98347  21622324.147    21622330.648
  23259325.266    10821479.91949   8498960.24146  23259325.134    23259334.380
 03  3 26 18 17 30.0000000  0  7G10G24G 6G 5G 4G30G 9
  22875506.040   -10824258.76849  -8411899.05146  22875505.427    22875515.872
  20812245.377    -5555319.01649  -4312044.92147  20812245.262    20812252.550
  23746702.852    -7824900.21249  -6080970.25645  23746702.850    23746711.982
  20278620.156   -15061716.02049 -11717123.40048  20278619.744    20278626.435
  22849510.380    10397775.91049   8113101.89346  22849510.553    22849518.406
  21607452.123   -17989096.36049 -14002076.77247  21607452.532    21607458.959
  23277199.584    10915409.03749   8572151.63546  23277199.429    23277208.622
 03  3 26 18 18  0.0000000  0  7G10G24G 6G 5G 4G30G 9
  22858020.119   -10916147.69649  -8483500.68946  22858019.542    22858029.816
  20820509.725    -5511889.56749  -4278203.81347  20820509.621    20820516.877
  23733489.407    -7894337.72549  -6135077.32545  23733489.337    23733498.398
  20275750.153   -15076798.41049 -11728875.93348  20275749.720    20275756.345
  22867508.220    10492354.82649   8186799.65046  22867508.323    22867516.300
  21592636.574   -18066952.32049 -14062743.73147  21592636.999    21592643.468
  23295101.423    11009483.44349   8645456.24246  23295101.337    23295110.555
 03  3 26 18 18 30.0000000  0  7G10G24G 6G 5G 4G30G 9
  22840577.993   -11007807.38849  -8554923.69946  22840577.277    22840587.444
  20828853.408    -5468043.07749  -4244037.74547  20828853.315    20828860.645
  23720286.343    -7963720.05149  -6189141.39645  23720286.248    23720295.415
  20272973.060   -15091392.47149 -11740247.93648  20272972.603    20272979.223
  22885540.899    10587117.10849   8260640.28346  22885541.050    22885549.186
  21577877.578   -18144511.25649 -14123179.23847  21577877.996    21577884.495
  23313030.149    11103699.62449   8718871.32546  23313030.145    23313039.443
 03  3 26 18 19  0.0000000  0  7G10G24G 6G 5G 4G30G 9
  22823180.090   -11099233.72449  -8626164.86546  22823179.362    22823189.425
  20837276.104    -5423781.41549  -4209548.16247  20837276.064    20837283.374
  23707093.870    -8033046.46149  -6243161.90845  23707093.830    23707103.100
  20270289.182   -15105496.39249 -11751238.01748  20270288.701    20270295.354
  22903608.154    10682061.08449   8334622.49646  22903608.322    22903616.593
  21563175.698   -18221770.04849 -14183380.88047  21563176.144    21563182.701
  23330985.577    11198055.34149   8792395.13046  23330985.545    23330994.827
 03  3 26 18 19 30.0000000  0  7G10G24G 6G 5G 4G30G 9
  22805826.840   -11190424.19449  -8697222.25946  22805826.275    22805836.358
  20845777.458    -5379107.04149  -4174736.99247  20845777.329    20845784.674
  23693911.949    -8102317.84349  -6297139.54745  23693911.896    23693921.069
  20267698.635   -15119109.74449 -11761845.83948  20267698.155    20267704.812
  22921709.448    10777183.34149   8408743.63746  22921709.640    22921717.854
  21548531.127   -18298727.17849 -14243347.43747  21548531.652    21548538.278
  23348966.772    11292546.54449   8866024.51646  23348966.816    23348976.036
 03  3 26 18 20  0.0000000  0  7G10G24G 6G 5G 4G30G 9
  22788519.472   -11281375.08849  -8768092.96246  22788518.847    22788528.853
  20854356.982    -5334021.13649  -4139605.15747  20854356.889    20854364.284
  23680740.572    -8171533.56149  -6351073.80345  23680740.514    23680749.622
  20265201.738   -15132230.82549 -11772070.06748  20265201.273    20265207.980
  22939844.409    10872482.11749   8483002.33446  22939844.527    22939852.735
  21533944.654   -18375379.70849 -14303076.65447  21533945.150    21533951.718
  23366973.316    11387170.67749   8939757.48046  23366973.341    23366982.573
 03  3 26 18 20 30.0000000  0  7G10G24G 6G 5G 4G30G 9
  22771257.948   -11372083.74049  -8838774.90446  22771257.347    22771267.532
  20863014.337    -5288526.85349  -4104155.09547  20863014.216    20863021.594
  23667579.622    -8240694.51249  -6404965.40445  23667579.565    23667588.678
  20262798.632   -15144859.38349 -11781910.52148  20262798.177    20262804.949
  22958012.227    10967954.07949   8557395.95746  22958012.349    22958020.531
  21519416.526   -18451725.79549 -14362567.09047  21519416.958    21519423.461
  23385004.465    11481924.25649   9013591.27246  23385004.398    23385013.708
 03  3 26 18 21  0.0000000  0  7G10G24G 6G 5G 4G30G 9
  22754043.362   -11462546.24349  -8909265.04646  22754042.744    22754052.927
  20871748.938    -5242625.88549  -4068388.14347  20871748.869    20871756.254
  23654429.302    -8309800.17249  -6458813.89645  23654429.199    23654438.423
  20260489.533   -15156993.58449 -11791365.76048  20260489.115    20260495.894
  22976212.628    11063597.32749   8631923.05546  22976212.749    22976220.829
  21504947.151   -18527762.60649 -14421816.53147  21504947.604    21504954.047
  23403059.885    11576804.82349   9087524.05346  23403059.749    23403069.060
 03  3 26 18 21 30.0000000  0  7G10G24G 6G 5G 4G30G 9
  22736876.501   -11552758.83149  -8979560.44746  22736875.859    22736885.937
  20880560.644    -5196320.27549  -4032305.88647  20880560.559    20880567.923
  23641289.290    -8378850.26249  -6512619.10545  23641289.256    23641298.518
  20258274.735   -15168632.11549 -11800434.75448  20258274.339    20258281.119
  22994445.030    11159409.48749   8706581.76446  22994445.266    22994453.336
  21490537.210   -18603487.29549 -14480822.75247  21490537.640    21490544.081
  23421138.606    11671809.52949   9161553.54946  23421138.503    23421147.984
 03  3 26 18 22  0.0000000  0  7G10G24G 6G 5G 4G30G 9
  22719757.661   -11642718.08049  -9049658.44346  22719756.970    22719767.109
  20889449.091    -5149611.53749  -3995909.49747  20889448.955    20889456.347
  23628159.960    -8447844.77549  -6566380.97745  23628159.976    23628169.071
  20256154.561   -15179773.81349 -11809116.61248  20256154.156    20256160.968
  23012709.278    11255388.35549   8781370.39446  23012709.523    23012717.596
  21476187.052   -18678897.73949 -14539584.11447  21476187.495    21476193.898
  23439240.254    11766935.11349   9235677.23846  23439240.232    23439249.871
 03  3 26 18 22 30.0000000  0  7G10G24G 6G 5G 4G30G 9
  22702687.555   -11732420.45149  -9119556.27846  22702687.137    22702697.079
  20898413.774    -5102501.53549  -3959200.44547  20898413.679    20898421.121
  23615041.400    -8516783.10949  -6620099.13545  23615041.367    23615050.476
  20254129.206   -15190417.04649 -11817410.05548  20254128.798    20254135.622
  23031004.715    11351531.85249   8856287.28646  23031005.047    23031013.135
  21461897.355   -18753990.98349 -14598098.31547  21461897.777    21461904.141
  23457364.662    11862179.34849   9309893.38146  23457364.664    23457374.262
 03  3 26 18 23  0.0000000  0  7G10G24G 6G 5G 4G30G 9
  22685667.187   -11821863.82049  -9189252.28346  22685666.620    22685676.326
  20907454.227    -5054993.52049  -3922181.24647  20907454.171    20907461.625
  23601933.312    -8585666.42049  -6673774.39145  23601933.321    23601942.594
  20252198.709   -15200562.04849 -11825315.26748  20252198.315    20252205.169
  23049330.896    11447836.28349   8931329.58746  23049331.210    23049339.354
  21447668.245   -18828765.50649 -14656364.15347  21447668.618    21447674.983
  23475510.896    11957538.11049   9384198.73546  23475510.932    23475520.536
 03  3 26 18 23 30.0000000  0  7G10G24G 6G 5G 4G30G 9
  22668696.688   -11911044.59249  -9258743.66446  22668695.979    22668705.775
  20916570.113    -5007089.72149  -3884853.63947  20916570.000    20916577.468
  23588835.827    -8654494.69749  -6727406.77245  23588835.729    23588844.895
  20250363.238   -15210207.66749 -11832831.34348  20250362.826    20250369.677
  23067687.294    11544299.29549   9006495.46746  23067687.582    23067695.718
  21433500.130   -18903219.06449 -14714379.89247  21433500.507    21433506.923
  23493678.349    12053008.29549   9458590.95246  23493678.435    23493687.988
 03  3 26 18 24  0.0000000  0  7G10G24G 6G 5G 4G30G 9
  22651776.718   -11999958.54649  -9328027.15646  22651776.062    22651785.902
  20925760.915    -4958791.41549  -3847218.63647  20925760.867    20925768.361
  23575748.724    -8723267.12249  -6780995.59845  23575748.609    23575757.807
  20248623.170   -15219351.98849 -11839956.80448  20248622.740    20248629.575
  23086073.470    11640919.25549   9081783.63146  23086073.884    23086081.954
  21419393.702   -18977348.29549 -14772142.90947  21419394.142    21419400.576
  23511866.528    12148587.78249   9533068.31846  23511866.633    23511876.304
 03  3 26 18 24 30.0000000  0  7G10G24G 6G 5G 4G30G 9
  22634908.287   -12088602.68149  -9397100.39046  22634907.560    22634917.366
  20935026.504    -4910100.78849  -3809277.92747  20935026.433    20935033.890
  23562672.418    -8791983.92849  -6834541.11845  23562672.251    23562681.320
  20246978.589   -15227994.34149 -11846691.12148  20246978.149    20246984.988
  23104489.150    11737693.55749   9157192.06846  23104489.514    23104497.517
  21405349.509   -19051151.08049 -14829651.55547  21405349.915    21405356.381
  23530075.175    12244273.56449   9607628.51446  23530075.168    23530084.833
 03  3 26 18 25  0.0000000  0  7G10G24G 6G 5G 4G30G 9
  22618091.536   -12176974.37549  -9465961.32346  22618090.713    22618100.639
  20944366.172    -4861020.85349  -3771033.85547  20944366.077    20944373.491
  23549606.361    -8860645.92849  -6888043.91645  23549606.197    23549615.392
  20245429.518   -15236134.71549 -11853034.28548  20245429.081    20245435.970
  23122933.563    11834618.78649   9232718.10246  23122933.825    23122941.887
  21391367.651   -19124625.87149 -14886904.62447  21391368.104    21391374.579
  23548303.337    12340061.55649   9682268.35046  23548303.259    23548312.820
 03  3 26 18 25 30.0000000  0  7G10G24G 6G 5G 4G30G 9
  22601327.396   -12265069.58049  -9534606.85246  22601326.578    22601336.573
  20953779.689    -4811552.89749  -3732487.43147  20953779.580    20953786.992
  23536550.785    -8929251.94149  -6941503.12645  23536550.715    23536560.167
  20243976.463   -15243770.68249 -11858984.41148  20243976.037    20243982.903
  23141406.460    11931693.83149   9308360.87946  23141406.688    23141414.760
  21377448.891   -19197769.05949 -14943899.30247  21377449.350    21377455.871
  23566550.496    12435950.05649   9756986.49146  23566550.416    23566559.890
 03  3 26 18 26  0.0000000  0  7G10G24G 6G 5G 4G30G 9
  22584616.473   -12352885.26749  -9603034.54746  22584615.756    22584625.672
  20963266.573    -4761699.27249  -3693640.47947  20963266.453    20963273.874
  23523506.076    -8997802.22749  -6994918.89846  23523505.966    23523515.311
  20242619.427   -15250901.69749 -11864541.05848  20242619.016    20242625.928
  23159907.367    12028916.16249   9384118.42846  23159907.629    23159915.656
  21363593.712   -19270578.49949 -15000633.90147  21363594.132    21363600.732
  23584816.068    12531935.75649   9831780.37546  23584816.021    23584825.581
 03  3 26 18 26 30.0000000  0  7G10G24G 6G 5G 4G30G 9
  22567959.396   -12440418.37649  -9671242.07246  22567958.728    22567968.588
  20972826.234    -4711462.94749  -3654495.32347  20972826.115    20972833.544
  23510471.870    -9066297.37549  -7048291.66946  23510471.799    23510481.054
  20241358.659   -15257527.26249 -11869703.85248  20241358.269    20241365.176
  23178435.746    12126282.44749   9459988.15946  23178435.912    23178443.904
  21349802.306   -19343052.48749 -15057107.12047  21349802.759    21349809.438
  23603099.475    12628015.01449   9906647.16046  23603099.483    23603109.094
 03  3 26 18 27  0.0000000  0  7G10G24G 6G 5G 4G30G 9
  22551356.974   -12527664.38449  -9739225.87446  22551356.311    22551366.194
  20982458.572    -4660844.59449  -3615052.48347  20982458.476    20982465.884
  23497448.372    -9134736.15149  -7101620.50846  23497448.215    23497457.536
  20240194.444   -15263645.51249 -11874471.33848  20240194.035    20240200.906
  23196991.131    12223791.54249   9535969.16546  23196991.338    23196999.396
  21336075.491   -19415187.49849 -15113316.20047  21336075.912    21336082.596
  23621400.488    12724185.92749   9981585.37246  23621400.474    23621410.032
 03  3 26 18 27 30.0000000  0  7G10G24G 6G 5G 4G30G 9
  22534809.457   -12614621.52349  -9806984.57946  22534808.797    22534818.732
  20992162.998    -4609847.94249  -3575314.86447  20992162.878    20992170.302
  23484434.986    -9203120.04349  -7154906.61245  23484434.984    23484444.457
  20239126.639   -15269256.96049 -11878843.91048  20239126.224    20239133.119
  23215572.903    12321439.63349   9612058.48846  23215573.203    23215581.283
  21322413.401   -19486982.36849 -15169260.23747  21322413.840    21322420.423
  23639717.962    12820444.37749  10056591.78146  23639718.003    23639727.591
 03  3 26 18 28  0.0000000  0  7G10G24G 6G 5G 4G30G 9
  22518317.719   -12701285.51949  -9874514.87846  22518317.123    22518327.001
  21001939.157    -4558474.09849  -3535283.33447  21001939.000    21001946.454
  23471432.581    -9271448.05449  -7208149.15846  23471432.556    23471441.913
  20238155.630   -15274359.64749 -11882820.04948  20238155.207    20238162.160
  23234181.100    12419225.36449   9688255.03546  23234181.351    23234189.343
  21308816.697   -19558433.77549 -15224936.63947  21308817.083    21308823.573
  23658051.806    12916788.28649  10131664.77746  23658051.871    23658061.374
 03  3 26 18 28 30.0000000  0  7G10G24G 6G 5G 4G30G 9
  22501882.382   -12787653.91949  -9941814.83246  22501881.732    22501891.621
  21011786.427    -4506726.07749  -3494960.24247  21011786.343    21011793.810
  23458440.808    -9339721.01149  -7261348.80446  23458440.770    23458449.951
  20237281.418   -15278953.49949 -11886399.69348  20237280.982    20237287.943
  23252814.764    12517145.59849   9764556.40346  23252815.061    23252822.969
  21295285.616   -19629540.09949 -15280344.14047  21295285.980    21295292.469
  23676401.237    13013213.78749  10206801.36246  23676401.228    23676410.617
 03  3 26 18 29  0.0000000  0  7G10G24G 6G 5G 4G30G 9
  22485503.965   -12873722.58849 -10008881.23146  22485503.330    22485513.189
  21021704.798    -4454604.99149  -3454346.44447  21021704.717    21021712.120
  23445459.688    -9407937.52249  -7314504.47046  23445459.616    23445468.656
  20236504.444   -15283036.61949 -11889581.36148  20236504.030    20236510.957
  23271473.774    12615199.07149   9840961.61346  23271474.154    23271481.982
  21281820.849   -19700297.84649 -15335480.02147  21281821.222    21281827.769
  23694765.727    13109719.08049  10282000.12146  23694765.645    23694775.133
 03  3 26 18 29 30.0000000  0  7G10G24G 6G 5G 4G30G 9
  22469183.121   -12959488.03749 -10075711.36146  22469182.609    22469192.399
  21031693.680    -4402113.51449  -3413444.03047  21031693.532    21031700.925
  23432489.167    -9476097.69849  -7367616.22746  23432489.095    23432498.180
  20235824.868   -15286608.16649 -11892364.40948  20235824.430    20235831.332
  23290157.632    12713383.07149   9917468.53546  23290158.029    23290165.734
  21268422.789   -19770704.78549 -15390342.55147  21268423.167    21268429.829
  23713144.596    13206301.11149  10357258.66746  23713144.661    23713154.396
 03  3 26 18 30  0.0000000  0  7G10G24G 6G 5G 4G30G 9
  22452920.844   -13044946.83049 -10142302.55946  22452920.307    22452930.027
  21041752.606    -4349253.46449  -3372254.41447  21041752.498    21041759.908
  23419529.465    -9544201.37549  -7420683.95346  23419529.417    23419538.459
  20235242.778   -15289667.21349 -11894748.10648  20235242.353    20235249.206
  23308865.957    12811695.62549   9994075.61446  23308866.357    23308874.174
  21255091.976   -19840758.40949 -15444929.77647  21255092.406    21255099.175
  23731537.975    13302957.18549  10432574.90646  23731537.938    23731547.694
 03  3 26 18 30 30.0000000  0  7G10G24G 6G 5G 4G30G 9
  22436717.142   -13130096.68249 -10208652.99646  22436716.615    22436726.500
  21051881.131    -4296027.92149  -3330780.00247  21051881.036    21051888.477
  23406580.227    -9612249.83049  -7473708.65846  23406580.142    23406589.227
  20234758.153   -15292214.15049 -11896732.75148  20234757.759    20234764.572
  23327598.177    12910133.00249  10070779.95446  23327598.400    23327606.402
  21241828.550   -19910457.53249 -15499240.76247  21241829.028    21241835.880
  23749944.394    13399682.86249  10507945.38446  23749944.295    23749954.095
 03  3 26 18 31  0.0000000  0  7G10G24G 6G 5G 4G30G 9
  22420573.222   -13214933.53149 -10274759.56846  22420572.670    22420582.608
  21062078.911    -4242438.33349  -3289021.92347  21062078.816    21062086.323
  23393641.770    -9680241.75449  -7526689.33046  23393641.599    23393650.640
  20234371.298   -15294247.13849 -11898316.91948  20234370.887    20234377.749
  23346353.786    13008694.23849  10147580.81346  23346354.005    23346362.154
  21228633.431   -19979798.42449 -15553272.62147  21228633.893    21228640.711
  23768363.701    13496476.47749  10583368.79346  23768363.664    23768373.582
 03  3 26 18 31 30.0000000  0  7G10G24G 6G 5G 4G30G 9
  22404489.360   -13299455.16249 -10340620.50846  22404488.666    22404498.637
  21072345.368    -4188487.82949  -3246982.61447  21072345.269    21072352.755
  23380713.820    -9748178.19449  -7579626.77346  23380713.719    23380722.588
  20234082.177   -15295766.39549 -11899500.78448  20234081.777    20234088.702
  23365132.354    13107375.86449  10224475.47946  23365132.515    23365140.862
  21215506.780   -20048779.76349 -15607024.30747  21215507.220    21215513.995
  23786795.241    13593334.10549  10658842.10246  23786795.174    23786805.258
 03  3 26 18 32  0.0000000  0  7G10G24G 6G 5G 4G30G 9
  22388466.192   -13383657.12849 -10406232.35646  22388465.518    22388475.490
  21082680.283    -4134177.58249  -3204662.97247  21082680.204    21082687.615
  23367796.657    -9816058.01249  -7632520.07446  23367796.552    23367805.603
  20233891.164   -15296770.15349 -11900282.95748  20233890.759    20233897.674
  23383933.454    13206176.50949  10301462.88646  23383933.650    23383942.138
  21202449.162   -20117398.32249 -15660493.30347  21202449.610    21202456.313
  23805238.547    13690253.92549  10734363.85246  23805238.416    23805248.801
 03  3 26 18 32 30.0000000  0  7G10G24G 6G 5G 4G30G 9
  22372504.192   -13467536.96949 -10471593.19546  22372503.558    22372513.621
  21093083.167    -4079510.77949  -3162065.50047  21093083.042    21093090.424
  23354890.058    -9883881.96049  -7685369.84346  23354889.966    23354899.116
  20233798.238   -15297258.53549 -11900663.53848  20233797.843    20233804.728
  23402756.810    13305093.25949  10378540.76046  23402756.888    23402765.506
  21189460.917   -20185652.50849 -15713678.37547  21189461.321    21189467.991
  23823692.832    13787231.92749  10809930.93945  23823692.781    23823703.236
 03  3 26 18 33  0.0000000  0  7G10G24G 6G 5G 4G30G 9
  22356604.435   -13551090.52749 -10536699.80546  22356603.865    22356613.896
  21103553.506    -4024488.81749  -3119191.28247  21103553.384    21103560.808
  23341994.387    -9951649.09249  -7738175.35846  23341994.374    23342003.370
  20233803.682   -15297229.96749 -11900641.30548  20233803.289    20233810.151
  23421601.870    13404124.56649  10455707.92046  23421601.973    23421610.650
  21176542.651   -20253538.93149 -15766576.87947  21176543.024    21176549.607
  23842157.975    13884266.09349  10885541.79145  23842157.917    23842168.372
 03  3 26 18 33 30.0000000  0  7G10G24G 6G 5G 4G30G 9
  22340767.310   -13634315.30549 -10601550.21046  22340766.699    22340776.726
  21114090.868    -3969114.71149  -3076042.66147  21114090.759    21114098.185
  23329109.581   -10019359.97249  -7790937.02746  23329109.523    23329118.283
  20233907.493   -15296684.37149 -11900216.19148  20233907.088    20233914.029
  23440468.064    13503267.44349  10532962.01845  23440468.222    23440476.973
  21163694.561   -20321056.11049 -15819187.66047  21163694.919    21163701.494
  23860633.200    13981352.87849  10961193.64245  23860633.028    23860643.517
 03  3 26 18 34  0.0000000  0  7G10G24G 6G 5G 4G30G 9
  22324993.525   -13717207.61749 -10666141.55146  22324992.779    22325002.764
  21124694.895    -3913390.12549  -3032620.94547  21124694.758    21124702.280
  23316235.474   -10087014.14249  -7843654.50346  23316235.426    23316244.115
  20234109.925   -15295620.57949 -11899387.28648  20234109.547    20234116.532
  23459355.257    13602519.89249  10610301.47245  23459355.396    23459364.262
  21150917.322   -20388201.04949 -15871508.38747  21150917.654    21150924.156
  23879117.894    14078490.07149  11036884.77345  23879117.770    23879128.265
 03  3 26 18 34 30.0000000  0  7G10G24G 6G 5G 4G30G 9
  22309283.245   -13799764.43849 -10730471.47246  22309282.645    22309292.584
  21135365.144    -3857317.46749  -2988928.00447  21135365.021    21135372.652
  23303372.089   -10154611.73649  -7896327.90246  23303371.952    23303380.559
  20234411.100   -15294038.17349 -11898154.26948  20234410.699    20234417.711
  23478262.849    13701879.66349  10687724.54845  23478262.947    23478271.815
  21138211.264   -20454971.72149 -15923537.48147  21138211.611    21138218.119
  23897611.695    14175674.56749  11112612.74845  23897611.547    23897622.056
 03  3 26 18 35  0.0000000  0  7G10G24G 6G 5G 4G30G 9
  22293637.784   -13881982.06649 -10794537.08146  22293637.186    22293647.017
  21146101.338    -3800898.38049  -2944965.11647  21146101.229    21146108.946
  23290519.263   -10222152.19049  -7948956.76346  23290519.309    23290527.946
  20234811.077   -15291936.17149 -11896516.37248  20234810.702    20234817.714
  23497190.396    13801344.69449  10765229.63245  23497190.613    23497199.590
  21125576.908   -20521365.27349 -15975272.69847  21125577.268    21125583.901
  23916113.943    14272903.65949  11188375.48645  23916113.789    23916124.219
 03  3 26 18 35 30.0000000  0  7G10G24G 6G 5G 4G30G 9
  22278057.300   -13963857.74949 -10858336.24746  22278056.732    22278066.501
  21156902.943    -3744135.77549  -2900734.55947  21156902.831    21156910.514
  23277677.695   -10289635.86649  -8001541.38546  23277677.679    23277686.309
  20235310.065   -15289314.30049 -11894473.38848  20235309.676    20235316.628
  23516137.696    13900912.62249  10842814.91345  23516137.946    23516146.885
  21113014.716   -20587379.72549 -16026712.52047  21113015.104    21113021.810
  23934624.050    14370173.95549  11264170.31645  23934623.924    23934634.276
 03  3 26 18 36  0.0000000  0  7G10G24G 6G 5G 4G30G 9
  22262542.510   -14045388.39349 -10921866.54346  22262541.953    22262551.635
  21167769.511    -3687031.91349  -2856238.08247  21167769.398    21167777.071
  23264846.954   -10357062.45549  -8054081.53346  23264846.852    23264855.408
  20235908.084   -15286171.91149 -11892024.79948  20235907.663    20235914.616
  23535104.031    14000581.10249  10920478.54645  23535104.326    23535113.282
  21100525.210   -20653012.64549 -16077855.05647  21100525.600    21100532.187
  23953141.293    14467482.66249  11339995.09345  23953141.156    23953151.508
 03  3 26 18 36 30.0000000  0  7G10G24G 6G 5G 4G30G 9
  22247094.026   -14126570.60349 -10985125.33546  22247093.478    22247103.042
  21178700.578    -3629588.97749  -2811477.39047  21178700.461    21178708.093
  23252026.873   -10424432.21149  -8106577.38046  23252026.787    23252035.324
  20236605.158   -15282508.58949 -11889170.28948  20236604.780    20236611.751
  23554089.230    14100347.53949  10998218.50045  23554089.363    23554098.343
  21088108.681   -20718261.91949 -16128698.64047  21088109.036    21088115.552
  23971665.141    14564826.60249  11415847.30445  23971665.161    23971675.667
 03  3 26 18 37  0.0000000  0  7G10G24G 6G 5G 4G30G 9
  22231712.613   -14207400.89649 -11048109.89446  22231711.956    22231721.423
  21189695.784    -3571808.92849  -2766454.01647  21189695.669    21189703.315
  23239217.747   -10491744.71649  -8159028.62146  23239217.604    23239226.190
  20237401.610   -15278323.51149 -11885909.21648  20237401.238    20237408.182
  23573092.454    14200210.20549  11076033.43645  23573092.737    23573101.813
  21075765.688   -20783124.88249 -16179241.20447  21075766.031    21075772.518
  23990195.347    14662203.28549  11491725.02145  23990195.384    23990205.851
 03  3 26 18 37 30.0000000  0  7G10G24G 6G 5G 4G30G 9
  22216398.635   -14287876.32349 -11110817.94746  22216398.008    22216407.386
  21200754.652    -3513694.03249  -2721169.73347  21200754.543    21200762.252
  23226419.463   -10558999.62649  -8211434.97346  23226419.284    23226428.010
  20238297.484   -15273616.05749 -11882241.09848  20238297.098    20238304.031
  23592113.648    14300166.92049  11153921.65845  23592113.949    23592122.964
  21063496.631   -20847599.09349 -16229480.84147  21063496.995    21063503.529
  24008731.501    14759610.18049  11567626.30045  24008731.521    24008741.855
 03  3 26 18 38  0.0000000  0  7G10G24G 6G 5G 4G30G 9
  22201152.724   -14367993.91349 -11173247.15646  22201152.022    22201161.411
  21211876.738    -3455247.15149  -2675626.75847  21211876.643    21211884.406
  23213632.136   -10626197.34649  -8263796.77046  23213631.857    23213640.609
  20239292.769   -15268385.99049 -11878165.75148  20239292.389    20239299.287
  23611152.311    14400215.25049  11231881.25745  23611152.669    23611161.676
  21051301.910   -20911682.50849 -16279415.96647  21051302.297    21051308.868
  24027272.854    14857043.98449  11643548.54045  24027272.706    24027283.118
 03  3 26 18 38 30.0000000  0  7G10G24G 6G 5G 4G30G 9
  22185975.521   -14447750.06849 -11235394.74446  22185974.860    22185984.168
  21223061.702    -3396470.00649  -2629826.42547  21223061.600    21223069.347
  23200855.672   -10693337.32149  -8316113.56146  23200855.472    23200864.300
  20240387.680   -15262632.40549 -11873682.46748  20240387.262    20240394.184
  23630208.048    14500353.23949  11309910.73745  23630208.417    23630217.415
  21039182.100   -20975372.48049 -16329044.50747  21039182.507    21039189.023
  24045818.565    14954502.13349  11719489.72745  24045818.477    24045829.098
 03  3 26 18 39  0.0000000  0  7G10G24G 6G 5G 4G30G 9
  22170867.811   -14527141.44849 -11297258.08346  22170867.128    22170876.401
  21234309.086    -3337364.50749  -2583770.23347  21234308.984    21234316.752
  23188090.259   -10760419.22849  -8368385.13146  23188090.160    23188098.871
  20241582.320   -15256354.79949 -11868790.85048  20241581.894    20241588.869
  23649280.509    14600578.85949  11388008.48145  23649280.843    23649289.769
  21027137.716   -21038666.46549 -16378364.48847  21027138.085    21027144.576
  24064368.242    15051981.92549  11795447.81545  24064368.364    24064379.019
 03  3 26 18 39 30.0000000  0  7G10G24G 6G 5G 4G30G 9
  22155829.967   -14606165.35249 -11358835.08546  22155829.289    22155838.571
  21245618.513    -3277933.32949  -2537460.26947  21245618.404    21245626.179
  23175335.937   -10827443.50349  -8420611.78246  23175335.839    23175344.497
  20242876.661   -15249553.22049 -11863490.94648  20242876.188    20242883.161
  23668369.080    14700889.34249  11466172.35245  23668369.419    23668378.337
  21015168.932   -21101562.63849 -16427374.47847  21015169.291    21015175.835
  24082921.669    15149480.00249  11871420.13745  24082921.700    24082932.569
 03  3 26 18 40  0.0000000  0  7G10G24G 6G 5G 4G30G 9
  22140862.609   -14684818.87149 -11420123.48646  22140861.941    22140871.185
  21256989.500    -3218178.66349  -2490898.23447  21256989.373    21256997.199
  23162592.546   -10894410.06249  -8472793.44946  23162592.540    23162601.176
  20244270.801   -15242227.07949 -11857782.28948  20244270.343    20244277.310
  23687473.386    14801282.44249  11544400.61245  23687473.792    23687482.600
  21003276.316   -21164058.69749 -16476072.70247  21003276.724    21003283.241
  24101478.120    15246993.49749  11947404.46045  24101478.084    24101489.154
 03  3 26 18 40 30.0000000  0  7G10G24G 6G 5G 4G30G 9
  22125966.434   -14763098.80149 -11481120.78246  22125965.783    22125974.959
  21268421.448    -3158103.28749  -2444086.30047  21268421.388    21268429.253
  23149860.269   -10961318.84449  -8524930.11046  23149860.236    23149868.861
  20245764.831   -15234376.03749 -11851664.62548  20245764.389    20245771.352
  23706593.087    14901756.20349  11622691.69745  23706593.526    23706602.259
  20991460.257   -21226152.59349 -16524457.55547  20991460.684    20991467.139
  24120037.003    15344519.28149  12023398.36445  24120036.876    24120047.918
 03  3 26 18 41  0.0000000  0  7G10G24G 6G 5G 4G30G 9
  22111142.059   -14841001.88149 -11541824.42646  22111141.316    22111150.456
  21279914.143    -3097709.35149  -2397026.13247  21279914.022    21279921.932
  23137138.921   -11028169.34049  -8577021.35246  23137138.973    23137147.599
  20247358.847   -15225999.33849 -11845137.35348  20247358.395    20247365.372
  23725727.760    15002308.61549  11701044.09145  23725728.230    23725736.856
  20979721.236   -21287841.49749 -16572526.81347  20979721.671    20979728.152
  24138597.664    15442055.00349  12099400.01445  24138597.476    24138608.611
 03  3 26 18 41 30.0000000  0  7G10G24G 6G 5G 4G30G 9
  22096389.826   -14918524.95849 -11602231.96046  22096389.138    22096398.376
  21291466.984    -3036998.64449  -2349719.12947  21291466.924    21291474.840
  23124428.773   -11094961.50549  -8629067.15846  23124428.831    23124437.386
  20249052.940   -15217096.67549 -11838200.24148  20249052.543    20249059.494
  23744876.886    15102937.34849  11779455.92345  23744877.373    23744885.978
  20968059.670   -21349123.43149 -16620278.96147  20968060.084    20968066.568
  24157159.628    15539597.63549  12175407.05545  24157159.466    24157170.663
 03  3 26 18 42  0.0000000  0  7G10G24G 6G 5G 4G30G 9
  22081710.622   -14995664.60649 -11662340.72346  22081709.900    22081719.182
  21303079.715    -2975973.59149  -2302167.18547  21303079.655    21303087.521
  23111729.793   -11161695.01449  -8681067.25046  23111729.812    23111738.345
  20250847.260   -15207667.52849 -11830852.88048  20250846.870    20250853.836
  23764040.301    15203640.62949  11857925.87245  23764040.617    23764049.320
  20956476.142   -21409995.61149 -16667711.81847  20956476.513    20956482.994
  24175722.438    15637144.57149  12251417.44945  24175722.225    24175733.490
 03  3 26 18 42 30.0000000  0  7G10G24G 6G 5G 4G30G 9
  22067105.048   -15072417.33449 -11722147.99446  22067104.352    22067113.567
  21314751.905    -2914636.26549  -2254371.90047  21314751.814    21314759.621
  23099042.167   -11228369.35749  -8733021.22346  23099042.046    23099050.631
  20252741.858   -15197711.31549 -11823094.81848  20252741.489    20252748.512
  23783217.204    15304416.38849  11936452.28245  23783217.641    23783226.408
  20944970.953   -21470455.71549 -16714823.58047  20944971.338    20944977.801
  24194285.368    15734693.23149  12327429.20145  24194285.195    24194296.648
 03  3 26 18 43  0.0000000  0  7G10G24G 6G 5G 4G30G 9
  22052573.568   -15148780.48749 -11781651.69946  22052572.921    22052582.004
  21326483.079    -2852988.89849  -2206335.03447  21326483.003    21326490.802
  23086365.605   -11294984.55249  -8784929.13846  23086365.532    23086374.142
  20254736.799   -15187227.92149 -11814925.96948  20254736.408    20254743.460
  23802407.747    15405262.41049  12015033.47445  23802408.295    23802416.892
  20933544.647   -21530501.57449 -16761612.55747  20933545.028    20933551.484
  24212848.065    15832240.69049  12403439.97645  24212847.974    24212859.644
 03  3 26 18 43 30.0000000  0  7G10G24G 6G 5G 4G30G 9
  22038116.786   -15224751.14649 -11840849.57546  22038116.160    22038125.158
  21338272.802    -2791033.96849  -2158058.50147  21338272.671    21338280.493
  23073700.268   -11361540.79849  -8836791.09146  23073700.180    23073708.967
  20256832.071   -15176217.22949 -11806346.23548  20256831.687    20256838.763
  23821611.289    15506176.30349  12093667.54545  23821611.732    23821620.185
  20922197.478   -21590131.15249 -16808077.15347  20922197.854    20922204.359
  24231410.017    15929783.85349  12479447.42545  24231410.013    24231421.699
 03  3 26 18 44  0.0000000  0  7G10G24G 6G 5G 4G30G 9
  22023735.336   -15300325.85249 -11899738.90847  22023734.746    22023743.700
  21350120.553    -2728773.64649  -2109544.01047  21350120.429    21350128.301
  23061046.236   -11428037.54449  -8888606.68746  23061046.220    23061055.076
  20259027.896   -15164678.68249 -11797355.19348  20259027.467    20259034.495
  23840827.281    15607156.47449  12172353.25345  23840827.688    23840836.149
  20910930.001   -21649341.87649 -16854215.37547  20910930.394    20910936.937
  24249970.731    16027320.16749  12555449.53445  24249970.724    24249982.436
 03  3 26 18 44 30.0000000  0  7G10G24G 6G 5G 4G30G 9
  22009429.930   -15375501.81549 -11958317.53547  22009429.240    22009438.182
  21362025.990    -2666210.27649  -2060793.37947  21362025.877    21362033.784
  23048403.726   -11494474.75649  -8940375.90946  23048403.702    23048412.455
  20261324.156   -15152611.79049 -11787952.44748  20261323.737    20261330.787
  23860055.371    15708200.64849  12251088.86245  23860055.797    23860064.302
  20899742.658   -21708131.40049 -16900025.40047  20899743.079    20899749.630
  24268529.714    16124846.97449  12631444.22845  24268529.666    24268541.313
 03  3 26 18 45  0.0000000  0  7G10G24G 6G 5G 4G30G 9
  21995200.756   -15450275.95349 -12016583.05447  21995200.050    21995209.137
  21373988.674    -2603346.24449  -2011808.46347  21373988.545    21373996.451
  23035772.513   -11560852.65049  -8992098.89246  23035772.387    23035781.112
  20263720.951   -15140016.67949 -11778138.10248  20263720.538    20263727.575
  23879295.033    15809306.28949  12329872.35745  23879295.538    23879304.149
  20888635.810   -21766498.00349 -16945505.86647  20888636.208    20888642.791
  24287086.453    16222361.05249  12707428.99545  24287086.180    24287097.910
 03  3 26 18 45 30.0000000  0  7G10G24G 6G 5G 4G30G 9
  21981048.787   -15524644.36849 -12074532.42647  21981048.107    21981057.262
  21386008.236    -2540183.10849  -1962590.48447  21386008.125    21386016.037
  23023152.381   -11627170.25649  -9043774.90146  23023152.374    23023161.229
  20266218.446   -15126892.44149 -11767911.45348  20266218.039    20266225.029
  23898546.142    15910472.33049  12408702.93145  23898546.771    23898555.554
  20877610.078   -21824438.53549 -16990654.34147  20877610.481    20877617.008
  24305640.059    16319860.29649  12783402.18445  24305639.865    24305651.644
 03  3 26 18 46  0.0000000  0  7G10G24G 6G 5G 4G30G 9
  21966974.629   -15598604.34149 -12132163.53647  21966973.970    21966983.196
  21398084.352    -2476722.81849  -1913140.95047  21398084.254    21398092.154
  23010544.050   -11693427.28749  -9095403.70346  23010544.052    23010552.904
  20268816.698   -15113238.84349 -11757272.31348  20268816.280    20268823.242
  23917808.532    16011696.69449  12487578.93545  23917809.096    23917818.209
  20866665.882   -21881950.65849 -17035468.98647  20866666.278    20866672.783
  24324190.493    16417342.04649  12859361.75945  24324190.323    24324202.036
 03  3 26 18 46 30.0000000  0  7G10G24G 6G 5G 4G30G 9
  21952978.677   -15672153.55549 -12189474.56547  21952977.980    21952987.263
  21410216.428    -2412968.58449  -1863462.36647  21410216.286    21410224.198
  22997947.155   -11759624.21649  -9146985.67646  22997947.142    22997955.837
  20271515.552   -15099056.22649 -11746220.95348  20271515.172    20271522.125
  23937081.508    16112976.46949  12566498.12045  23937082.003    23937091.365
  20855803.488   -21939032.88449 -17079948.64547  20855803.887    20855810.406
  24342736.890    16514802.78849  12935304.96445  24342736.743    24342748.407
 03  3 26 18 47  0.0000000  0  7G10G24G 6G 5G 4G30G 9
  21939061.361   -15745288.97649 -12246463.16947  21939060.724    21939070.003
  21422403.962    -2348922.85549  -1813556.65447  21422403.838    21422411.760
  22985361.846   -11825760.76349  -9198520.60046  22985361.806    22985370.352
  20274315.143   -15084344.50149 -11734757.29748  20274314.744    20274321.700
  23956364.898    16214309.79949  12645459.05745  23956365.263    23956374.613
  20845023.285   -21995683.24049 -17124091.78247  20845023.700    20845030.181
  24361278.695    16612239.74449  13011229.63945  24361278.687    24361290.285
 03  3 26 18 47 30.0000000  0  7G10G24G 6G 5G 4G30G 9
  21925223.535   -15818007.74949 -12303127.08947  21925222.864    21925232.036
  21434646.399    -2284588.28849  -1763425.86247  21434646.303    21434654.215
  22972787.880   -11891837.03949  -9250008.55346  22972787.800    22972796.396
  20277215.379   -15069103.92249 -11722881.55048  20277214.966    20277221.908
  23975657.845    16315694.26149  12724459.82945  23975658.227    23975667.637
  20834325.659   -22051899.53449 -17167896.68547  20834326.056    20834332.581
  24379815.498    16709650.14649  13087133.58545  24379815.595    24379827.080
 03  3 26 18 48  0.0000000  0  7G10G24G 6G 5G 4G30G 9
  21911465.477   -15890306.31849 -12359463.59647  21911464.799    21911474.018
  21446943.598    -2219966.44449  -1713071.22347  21446943.510    21446951.368
  22960225.535   -11957852.22849  -9301448.93446  22960225.457    22960234.075
  20280216.377   -15053333.78649 -11710593.16348  20280215.959    20280222.905
  23994960.357    16417128.45549  12803499.36545  23994960.654    23994969.995
  20823711.206   -22107679.02849 -17211361.23047  20823711.574    20823718.120
  24398346.766    16807031.70949  13163015.08745  24398346.895    24398358.282
 03  3 26 18 48 30.0000000  0  7G10G24G 6G 5G 4G30G 9
  21897787.942   -15962181.53149 -12415470.21447  21897787.327    21897796.535
  21459295.026    -2155059.56749  -1662494.47447  21459294.969    21459302.735
  22947674.962   -12023806.02649  -9352841.45546  22947674.885    22947683.425
  20283318.161   -15037033.86349 -11697891.95148  20283317.751    20283324.721
  24014271.776    16518610.37649  12882576.08745  24014272.165    24014281.474
  20813180.329   -22163019.50549 -17254483.67647  20813180.645    20813187.233
  24416872.109    16904381.52549  13238871.82945  24416872.141    24416883.448
 03  3 26 18 49  0.0000000  0  7G10G24G 6G 5G 4G30G 9
  21884191.682   -16033630.51449 -12471144.70347  21884191.030    21884200.162
  21471700.308    -2089869.64549  -1611697.18347  21471700.241    21471708.014
  22935136.173   -12089698.31249  -9404186.03546  22935136.036    22935144.457
  20286520.815   -15020204.02449 -11684777.82248  20286520.404    20286527.357
  24033591.966    16620138.10349  12961688.47345  24033592.270    24033601.776
  20802733.377   -22217918.64249 -17297262.21947  20802733.697    20802740.294
  24435390.806    17001696.98449  13314701.81045  24435390.910    24435402.226
 03  3 26 18 49 30.0000000  0  7G10G24G 6G 5G 4G30G 9
  21870676.749   -16104651.08949 -12526485.36247  21870676.116    21870685.351
  21484158.877    -2024400.02949  -1560681.94747  21484158.776    21484166.482
  22922608.929   -12155529.50949  -9455483.02646  22922608.798    22922617.168
  20289824.155   -15002844.97949 -11671251.32248  20289823.727    20289830.692
  24052920.346    16721708.92449  13040834.44745  24052920.590    24052930.279
  20792370.640   -22272375.07549 -17339695.79847  20792370.991    20792377.577
  24453902.452    17098974.65949  13390502.35845  24453902.475    24453913.626
 03  3 26 18 50  0.0000000  0  7G10G24G 6G 5G 4G30G 9
  21857244.206   -16175238.96149 -12581488.85847  21857243.655    21857252.876
  21496670.540    -1958651.27749  -1509449.20347  21496670.435    21496678.100
  22910093.606   -12221298.05149  -9506731.19746  22910093.433    22910101.772
  20293228.447   -14984955.28949 -11657311.33848  20293228.051    20293235.084
  24072256.615    16823322.13349  13120013.46045  24072257.013    24072266.797
  20782092.843   -22326385.24249 -17381781.64847  20782093.226    20782099.777
  24472406.447    17196213.20249  13466272.40045  24472406.405    24472417.820
 03  3 26 18 50 30.0000000  0  7G10G24G 6G 5G 4G30G 9
  21843894.421   -16245392.33149 -12636153.77747  21843893.917    21843903.047
  21509234.526    -1892626.78649  -1458001.58547  21509234.407    21509242.182
  22897589.970   -12287004.61249  -9557931.07346  22897589.839    22897598.246
  20296733.536   -14966535.98149 -11642958.65848  20296733.134    20296740.197
  24091600.666    16924974.91549  13199223.29345  24091600.981    24091610.875
  20771900.215   -22379947.99849 -17423518.86347  20771900.582    20771907.090
  24490902.361    17293408.83749  13542008.99245  24490902.301    24490913.900
 03  3 26 18 51  0.0000000  0  7G10G24G 6G 5G 4G30G 9
  21830628.057   -16315107.58149 -12690477.30447  21830627.541    21830636.637
  21521850.731    -1826328.19649  -1406340.39547  21521850.613    21521858.496
  22885098.277   -12352648.29149  -9609081.95346  22885098.196    22885106.625
  20300339.557   -14947586.41049 -11628192.78948  20300339.148    20300346.218
  24110951.777    17026665.53149  13278462.61345  24110952.215    24110962.130
  20761793.320   -22433060.67249 -17464905.37247  20761793.679    20761800.116
  24509389.522    17390559.43549  13617710.48645  24509389.492    24509401.294
 03  3 26 18 51 30.0000000  0  7G10G24G 6G 5G 4G30G 9
  21817445.558   -16384382.42149 -12744457.64647  21817444.987    21817454.119
  21534518.498    -1759758.84649  -1354468.21747  21534518.393    21534526.317
  22872618.366   -12418229.62749  -9660184.25446  22872618.366    22872626.848
  20304046.269   -14928107.22749 -11613014.23648  20304045.881    20304052.964
  24130309.772    17128391.75849  13357729.68645  24130310.153    24130320.040
  20751772.322   -22485721.67449 -17505939.91847  20751772.637    20751779.117
  24527867.656    17487661.62849  13693374.24045  24527867.689    24527879.497
 03  3 26 18 52  0.0000000  0  7G10G24G 6G 5G 4G30G 9
  21804347.379   -16453214.15649 -12798092.72647  21804346.755    21804355.824
  21547237.352    -1692920.85949  -1302386.72247  21547237.258    21547245.235
  22860150.410   -12483748.57649  -9711237.93246  22860150.457    22860159.019
  20307853.831   -14908098.64349 -11597423.16948  20307853.446    20307860.480
  24149674.353    17230151.41149  13437022.78745  24149674.528    24149684.484
  20741837.581   -22537929.11349 -17546621.04147  20741837.894    20741844.343
  24546336.217    17584712.71249  13768998.22145  24546336.165    24546347.866
 03  3 26 18 52 30.0000000  0  7G10G24G 6G 5G 4G30G 9
  21791334.017   -16521599.56449 -12851380.01647  21791333.414    21791342.393
  21560007.006    -1625815.84549  -1250097.14847  21560006.908    21560014.906
  22847694.546   -12549204.68749  -9762242.65246  22847694.550    22847703.191
  20311762.177   -14887560.21949 -11581419.23348  20311761.760    20311768.850
  24169044.767    17331942.61749  13516340.47545  24169044.858    24169054.717
  20731989.635   -22589680.49549 -17586946.79847  20731989.952    20731996.388
  24564794.348    17681709.96349  13844580.19645  24564794.335    24564806.218
 03  3 26 18 53  0.0000000  0  7G10G24G 6G 5G 4G30G 9
  21778406.395   -16589534.91749 -12904316.60747  21778405.723    21778414.630
  21572827.130    -1558445.47149  -1197600.80147  21572827.053    21572835.091
  22835250.912   -12614596.69449  -9813197.42246  22835250.944    22835259.492
  20315771.435   -14866491.23049 -11565001.87248  20315771.044    20315778.182
  24188421.049    17433764.52349  13595682.10245  24188421.114    24188430.889
  20722229.026   -22640972.81749 -17626914.84347  20722229.329    20722235.845
  24583241.924    17778651.76749  13920118.99345  24583241.916    24583253.882
 03  3 26 18 53 30.0000000  0  7G10G24G 6G 5G 4G30G 9
  21765564.748   -16657018.35049 -12956901.07547  21765564.033    21765572.862
  21585697.290    -1490812.85149  -1144900.10747  21585697.163    21585705.195
  22822819.382   -12679925.30449  -9864102.79246  22822819.351    22822827.773
  20319881.521   -14844892.79949 -11548171.96648  20319881.129    20319888.268
  24207802.497    17535614.30549  13675045.42745  24207802.517    24207812.240
  20712555.910   -22691804.96449 -17666524.31847  20712556.256    20712562.794
  24601678.367    17875534.60949  13995611.84445  24601678.203    24601690.297
 03  3 26 18 54  0.0000000  0  7G10G24G 6G 5G 4G30G 9
  21752809.832   -16724045.94649 -13009130.33947  21752809.084    21752817.945
  21598617.038    -1422919.65849  -1091996.37447  21598616.888    21598624.906
  22810400.071   -12745189.40249  -9914957.89846  22810399.969    22810408.422
  20324092.511   -14822764.12849 -11530928.88448  20324092.124    20324099.250
  24227188.841    17637490.80649  13754429.59645  24227189.036    24227198.673
  20702970.914   -22742174.02249 -17705772.94247  20702971.321    20702977.836
  24620102.971    17972356.51549  14071057.19245  24620102.758    24620115.230
 03  3 26 18 54 30.0000000  0  7G10G24G 6G 5G 4G30G 9
  21740142.006   -16790615.58949 -13061002.75747  21740141.273    21740150.150
  21611585.868    -1354768.35949  -1038891.52447  21611585.740    21611593.735
  22797992.865   -12810389.16749  -9965762.86546  22797992.788    22798001.277
  20328404.321   -14800105.75749 -11513273.04948  20328403.919    20328411.020
  24246580.054    17739391.73149  13833832.77545  24246580.231    24246589.947
  20693474.463   -22792078.33749 -17744659.43247  20693474.865    20693481.335
  24638515.648    18069114.45149  14146452.67845  24638515.430    24638527.924
 03  3 26 18 55  0.0000000  0  7G10G24G 6G 5G 4G30G 9
  21727561.864   -16856724.37949 -13112516.08847  21727561.122    21727570.053
  21624603.360    -1286361.17349   -985587.28347  21624603.229    21624611.237
  22785598.045   -12875524.28249 -10016517.46146  22785597.949    22785606.399
  20332816.862   -14776917.72349 -11495204.48748  20332816.454    20332823.620
  24265975.597    17841315.35149  13913253.64845  24265975.674    24265985.450
  20684066.850   -22841515.52449 -17783181.92047  20684067.248    20684073.754
  24656915.377    18165805.76449  14221796.28145  24656915.352    24656927.999
 03  3 26 18 55 30.0000000  0  7G10G24G 6G 5G 4G30G 9
  21715069.931   -16922369.41549 -13163668.04447  21715069.231    21715078.156
  21637669.235    -1217699.87349   -932085.02447  21637669.113    21637677.070
  22773215.587   -12940594.22749 -10067221.27646  22773215.591    22773223.960
  20337330.196   -14753200.19249 -11476723.33348  20337329.809    20337336.951
  24285375.067    17943259.75449  13992690.71245  24285375.134    24285384.882
  20674748.478   -22890483.70849 -17821338.94847  20674748.919    20674755.469
  24675302.284    18262427.83949  14297085.90045  24675302.154    24675314.769
 03  3 26 18 56  0.0000000  0  7G10G24G 6G 5G 4G30G 9
  21702666.833   -16987547.91049 -13214456.46547  21702666.147    21702675.111
  21650782.870    -1148787.48249   -878387.11347  21650782.755    21650790.739
  22760845.635   -13005598.70949 -10117874.07546  22760845.585    22760853.972
  20341944.300   -14728953.47849 -11457829.82748  20341943.865    20341950.976
  24304778.038    18045223.04749  14072142.50945  24304778.231    24304788.110
  20665519.851   -22938980.92149 -17859128.99447  20665520.288    20665526.769
  24693675.483    18358978.30749  14372319.71645  24693675.284    24693688.031
 03  3 26 18 56 30.0000000  0  7G10G24G 6G 5G 4G30G 9
  21690352.981   -17052257.23349 -13264879.29447  21690352.292    21690361.348
  21663943.852    -1079626.06849   -824495.16147  21663943.734    21663951.823
  22748488.138   -13070537.63149 -10168475.79546  22748488.049    22748496.469
  20346658.940   -14704177.93749 -11438524.24648  20346658.501    20346665.637
  24324184.247    18147203.36849  14151607.57945  24324184.587    24324194.465
  20656381.176   -22987005.05649 -17896550.39847  20656381.585    20656388.068
  24712034.479    18455454.26049  14447495.49245  24712034.164    24712047.082
 03  3 26 18 57  0.0000000  0  7G10G24G 6G 5G 4G30G 9
  21678128.844   -17116495.19649 -13314934.84047  21678128.214    21678137.268
  21677151.780    -1010218.02749   -770411.03047  21677151.680    21677159.818
  22736143.047   -13135411.08049 -10219026.49546  22736142.985    22736151.411
  20351474.086   -14678874.10949 -11418807.01348  20351473.658    20351480.845
  24343593.685    18249198.43349  14231084.13745  24343593.780    24343603.719
  20647332.761   -23034554.60849 -17933601.99647  20647333.169    20647339.670
  24730378.742    18551852.66849  14522610.81945  24730378.395    24730391.270
 03  3 26 18 57 30.0000000  0  7G10G24G 6G 5G 4G30G 9
  21665995.160   -17180258.60049 -13364620.58847  21665994.524    21666003.494
  21690406.182     -940565.58849   -716136.46447  21690406.084    21690414.282
  22723810.673   -13200218.35749 -10269525.63846  22723810.563    22723818.952
  20356389.767   -14653041.90549 -11398678.05748  20356389.335    20356396.540
  24363005.498    18351206.65849  14310570.94245  24363005.611    24363015.464
  20638375.179   -23081627.16849 -17970281.91547  20638375.560    20638382.043
  24748707.667    18648171.17549  14597663.89545  24748707.456    24748720.457
 03  3 26 18 58  0.0000000  0  7G10G24G 6G 5G 4G30G 9
  21653952.156   -17243545.33149 -13413934.90947  21653951.481    21653960.426
  21703706.668     -870671.03749   -661673.22647  21703706.607    21703714.852
  22711490.800   -13264959.71149 -10319973.38946  22711490.682    22711499.122
  20361405.783   -14626682.17949 -11378138.04548  20361405.392    20361412.655
  24382419.323    18453225.80449  14390066.25645  24382419.412    24382429.305
  20629508.680   -23128221.25549 -18006588.99547  20629509.018    20629515.469
  24767020.653    18744406.49949  14672652.13745  24767020.449    24767033.633
 03  3 26 18 58 30.0000000  0  7G10G24G 6G 5G 4G30G 9
  21642000.544   -17306351.43449 -13462874.71447  21641999.905    21642008.809
  21717052.979     -800535.61149   -607022.31147  21717052.957    21717061.219
  22699183.739   -13329633.61649 -10370368.61646  22699183.662    22699192.154
  20366522.522   -14599793.93049 -11357186.20948  20366522.120    20366529.365
  24401834.835    18555255.26749  14469569.58845  24401835.071    24401844.914
  20620733.792   -23174333.77549 -18042520.83447  20620734.123    20620740.562
  24785317.865    18840557.46149  14747574.65245  24785317.641    24785330.905
 03  3 26 18 59  0.0000000  0  8G17G10G24G 6G 5G 4G30G 9
  25044520.256    -2571475.83849  -1986653.34745  25044519.950    25044534.445
  21630140.548   -17368676.49449 -13511439.66947  21630139.896    21630148.677
  21730444.372     -730164.06049   -552187.38147  21730444.306    21730452.526
  22686889.183   -13394242.18549 -10420712.91546  22686889.113    22686897.548
  20371739.316   -14572379.93349 -11335824.68948  20371738.898    20371746.118
  24421251.615    18657290.54849  14549077.48045  24421251.929    24421261.795
  20612050.413   -23219965.13349 -18078077.73047  20612050.754    20612057.209
  24803597.843    18936618.90249  14822427.40445  24803597.866    24803611.243
 03  3 26 18 59 30.0000000  0  8G17G10G24G 6G 5G 4G30G 9
  25026688.313    -2665183.12949  -2059671.89745  25026687.965    25026702.311
  21618372.193   -17430520.01949 -13559629.39247  21618371.523    21618380.196
  21743879.955     -659560.32749   -497171.53347  21743879.825    21743887.965
  22674606.832   -13458786.77249 -10471007.37046  22674606.706    22674615.001
  20377055.732   -14544442.41249 -11314055.23448  20377055.318    20377062.514
  24440668.722    18759328.27449  14628587.25745  24440669.077    24440679.079
  20603458.609   -23265115.13049 -18113259.54947  20603458.982    20603465.465
  24821860.212    19032586.55249  14897207.03945  24821860.233    24821873.607
 03  3 26 19  0  0.0000000  0  8G17G10G24G 6G 5G 4G30G 9
  25008879.434    -2758769.32249  -2132596.00545  25008878.834    25008893.375
  21606697.227   -17491872.65549 -13607436.61047  21606696.475    21606705.159
  21757360.370     -588720.29049   -441971.53547  21757360.283    21757368.417
  22662337.865   -13523260.61749 -10521246.68746  22662337.740    22662345.934
  20382472.929   -14515975.08349 -11291872.94448  20382472.508    20382479.734
  24460087.249    18861373.20749  14708102.67445  24460087.564    24460097.564
  20594959.998   -23309775.42749 -18148059.77847  20594960.376    20594966.871
  24840105.187    19128464.10449  14971916.51845  24840105.163    24840118.744
 03  3 26 19  0 30.0000000  0  8G17G10G24G 6G 5G 4G30G 9
  24991093.460    -2852234.30949  -2205425.69745  24991092.856    24991107.226
  21595115.878   -17552732.82349 -13654860.09947  21595115.133    21595123.816
  21770885.183     -517646.97649   -386589.76247  21770885.100    21770893.304
  22650082.040   -13587664.32249 -10571431.36046  22650081.985    22650090.221
  20387990.621   -14486979.40249 -11269278.95048  20387990.238    20387997.458
  24479506.532    18963422.53649  14787621.51645  24479506.960    24479516.947
  20586554.814   -23353944.93749 -18182477.57647  20586555.224    20586561.724
  24858332.556    19224248.23849  15046553.16345  24858332.515    24858346.329
 03  3 26 19  1  0.0000000  0  8G17G10G24G 6G 5G 4G30G 9
  24973330.838    -2945577.62949  -2278160.61845  24973330.273    24973344.599
  21583628.648   -17613098.79949 -13701898.48847  21583627.855    21583636.581
  21784453.900     -446343.50549   -331028.65247  21784453.766    21784461.955
  22637839.585   -13651998.47349 -10621561.83046  22637839.569    22637847.788
  20393608.611   -14457456.68249 -11246274.26848  20393608.239    20393615.490
  24498926.265    19065473.66649  14867141.75045  24498926.596    24498936.828
  20578243.207   -23397622.71049 -18216512.19447  20578243.608    20578250.161
  24876541.498    19319935.53349  15121114.34645  24876541.469    24876555.186
 03  3 26 19  1 30.0000000  0  8G17G10G24G 6G 5G 4G30G 9
  24955591.358    -3038798.66549  -2350800.18045  24955590.934    24955605.017
  21572235.776   -17672968.56549 -13748550.21647  21572234.963    21572243.790
  21798065.639     -374813.00649   -275290.63947  21798065.553    21798073.764
  22625610.421   -13716263.25549 -10671638.24946  22625610.366    22625618.601
  20399326.697   -14427408.04649 -11222859.79148  20399326.290    20399333.610
  24518345.687    19167523.80349  14946661.21145  24518346.083    24518356.289
  20570025.379   -23440807.47049 -18250162.65447  20570025.788    20570032.339
  24894731.502    19415522.59049  15195597.38745  24894731.286    24894744.994
 03  3 26 19  2  0.0000000  0  8G17G10G24G 6G 5G 4G30G 9
  24937875.120    -3131896.89749  -2423344.09845  24937874.919    24937888.939
  21560937.635   -17732339.63449 -13794813.34647  21560936.924    21560945.800
  21811720.284     -303057.42649   -219377.23147  21811720.211    21811728.437
  22613394.422   -13780458.49849 -10721660.47846  22613394.343    22613402.675
  20405144.811   -14396833.91749 -11199035.83448  20405144.412    20405151.771
  24537764.653    19269571.47649  15026178.73245  24537764.968    24537775.494
  20561901.801   -23483497.42149 -18283427.55447  20561902.211    20561908.710
  24912901.682    19511006.72549  15270000.26945  24912901.427    24912915.401
 03  3 26 19  2 30.0000000  0  8G17G10G24G 6G 5G 4G30G 9
  24920182.680    -3224870.89949  -2495791.17745  24920182.167    24920196.413
  21549734.952   -17791209.75249 -13840686.12547  21549734.250    21549743.174
  21825417.233     -231079.11749   -163290.26347  21825417.218    21825425.484
  22601191.740   -13844583.89649 -10771628.28646  22601191.651    22601200.008
  20411062.772   -14365734.93649 -11174802.90548  20411062.385    20411069.748
  24557183.151    19371614.79449  15105692.88345  24557183.266    24557193.846
  20553872.678   -23525690.83749 -18316305.54247  20553873.070    20553879.530
  24931051.932    19606385.50549  15344321.05645  24931051.661    24931065.507
 03  3 26 19  3  0.0000000  0  8G17G10G24G 6G 5G 4G30G 9
  24902513.955    -3317719.08849  -2568140.23745  24902513.340    24902527.920
  21538628.196   -17849575.73049 -13886166.06847  21538627.499    21538636.476
  21839156.258     -158879.98449   -107031.23047  21839156.257    21839164.568
  22589002.420   -13908638.67349 -10821541.06046  22589002.339    22589010.814
  20417080.695   -14334110.99249 -11150160.90848  20417080.279    20417087.653
  24576600.530    19473652.62749  15185202.76945  24576600.613    24576611.074
  20545938.464   -23567385.28049 -18348794.71747  20545938.883    20545945.414
  24949181.749    19701656.73449  15418558.03245  24949181.530    24949195.150
 03  3 26 19  3 30.0000000  0  8G17G10G24G 6G 5G 4G30G 9
  24884869.537    -3410441.28649  -2640391.13645  24884868.804    24884883.343
  21527617.725   -17907435.64849 -13931251.68347  21527617.051    21527625.977
  21852936.951      -86462.70749    -50602.21347  21852936.876    21852945.234
  22576826.578   -13972622.79049 -10871398.78246  22576826.538    22576835.045
  20423198.281   -14301963.16849 -11125110.69848  20423197.844    20423205.244
  24596016.263    19575682.72349  15264706.64645  24596016.362    24596026.889
  20538099.453   -23608579.40849 -18380894.03547  20538099.889    20538106.431
  24967290.601    19796817.41349  15492708.83945  24967290.424    24967304.223
 03  3 26 19  4  0.0000000  0  8G17G10G24G 6G 5G 4G30G 9
  24867249.087    -3503035.94449  -2712542.61345  24867248.622    24867263.158
  21516704.015   -17964787.28449 -13975941.22147  21516703.336    21516712.195
  21866758.656      -13829.61149      5994.96247  21866758.558    21866766.940
  22564664.340   -14036535.98849 -10921201.23146  22564664.228    22564672.746
  20429415.405   -14269292.06649 -11099652.73648  20429414.980    20429422.369
  24615430.250    19677703.07249  15344202.89545  24615430.381    24615441.026
  20530355.976   -23649271.55149 -18412602.20148  20530356.450    20530362.978
  24985377.940    19891865.01449  15566771.53545  24985377.653    24985391.454
 03  3 26 19  4 30.0000000  0  8G17G10G24G 6G 5G 4G30G 9
  24849653.306    -3595501.29649  -2784593.35745  24849652.784    24849667.318
  21505887.652   -18021627.41049 -14020232.18547  21505886.955    21505895.857
  21880621.095       59017.35349     62758.80347  21880620.931    21880629.297
  22552515.709   -14100377.54349 -10970947.86046  22552515.589    22552524.010
  20435732.130   -14236097.91049 -11073787.20348  20435731.697    20435739.011
  24634842.135    19779712.42649  15423690.54945  24634842.353    24634853.014
  20522708.515   -23689459.41349 -18443917.41448  20522708.944    20522715.516
  25003442.983    19986797.18849  15640744.28945  25003442.747    25003456.836
 03  3 26 19  5  0.0000000  0  8G17G10G24G 6G 5G 4G30G 9
  24832082.508    -3687836.01349  -2856542.33945  24832081.987    24832096.208
  21495169.069   -18077953.51649 -14064122.61947  21495168.395    21495177.335
  21894523.833      132076.81649    119688.21947  21894523.676    21894532.042
  22540380.728   -14164146.84149 -11020638.19046  22540380.669    22540389.079
  20442148.318   -14202380.80849 -11047514.18348  20442147.885    20442155.133
  24654251.845    19881709.29649  15503168.50545  24654251.986    24654262.468
  20515157.366   -23729140.91949 -18474838.06647  20515157.752    20515164.359
  25021485.702    20081611.84349  15714625.47045  25021485.656    25021499.943
 03  3 26 19  5 30.0000000  0  8G17G10G24G 6G 5G 4G30G 9
  24814536.610    -3780040.34249  -2928389.64945  24814536.074    24814550.069
  21484548.761   -18133763.68549 -14107611.01547  21484548.087    21484556.921
  21908466.425      205345.64049    176780.77847  21908466.264    21908474.648
  22528259.524   -14227844.17949 -11070272.44146  22528259.490    22528267.889
  20448663.797   -14168142.09749 -11020834.70948  20448663.365    20448670.602
  24673658.413    19983691.38749  15582634.93245  24673658.611    24673669.054
  20507702.748   -23768315.05449 -18505363.36647  20507703.153    20507709.740
  25039505.377    20176305.77849  15788412.56945  25039505.380    25039520.122
 03  3 26 19  6  0.0000000  0  8G17G10G24G 6G 5G 4G30G 9
  24797016.006    -3872111.71449  -3000133.39345  24797015.343    24797029.426
  21474027.154   -18189054.89249 -14150695.03747  21474026.501    21474035.360
  21922448.564      278822.11149    234035.12047  21922448.405    21922456.790
  22516152.172   -14291468.49749 -11119849.79446  22516152.112    22516160.559
  20455278.497   -14133381.96749 -10993748.93848  20455278.046    20455285.280
  24693062.111    20085657.76249  15662089.10645  24693062.229    24693072.651
  20500345.147   -23806979.52349 -18535491.52348  20500345.546    20500352.134
  25057502.090    20270876.95949  15862103.98845  25057502.132    25057516.670
 03  3 26 19  6 30.0000000  0  8G17G10G24G 6G 5G 4G30G 9
  24779520.498    -3964050.03649  -3071773.47545  24779519.866    24779533.880
  21463604.733   -18243825.37349 -14193373.29547  21463604.046    21463612.901
  21936469.755      352503.66949    291449.27347  21936469.608    21936477.999
  22504058.789   -14355019.92349 -11169370.34246  22504058.664    22504067.043
  20461992.158   -14098101.62549 -10966257.80148  20461991.688    20461998.973
  24712462.141    20187606.05549  15741529.21545  24712462.288    24712472.744
  20493084.851   -23845133.10749 -18565221.58048  20493085.212    20493091.803
  25075474.792    20365322.40949  15935697.48845  25075474.790    25075489.471
 03  3 26 19  7  0.0000000  0  7G17G10G24G 6G 5G 4G30
  24762051.050    -4055850.89749  -3143306.42245  24762050.599    24762064.512
  21453282.353   -18298069.44449 -14235641.36947  21453281.682    21453290.560
  21950530.143      426391.40749    349024.07947  21950530.044    21950538.380
  22491979.801   -14418494.67949 -11218831.15946  22491979.697    22491988.113
  20468805.329   -14062298.21149 -10938359.08648  20468804.871    20468812.197
  24731858.974    20289538.11549  15820956.69045  24731859.509    24731869.943
  20485922.619   -23882770.60549 -18594549.50348  20485923.021    20485929.628
 03  3 26 19  7 30.0000000  0  7G17G10G24G 6G 5G 4G30
  24744607.798    -4147515.68249  -3214733.34745  24744607.344    24744621.294
  21443060.161   -18351787.53049 -14277499.58447  21443059.479    21443068.341
  21964628.897      500480.41949    406755.73247  21964628.794    21964637.114
  22479914.986   -14481895.12149 -11268234.05746  22479914.909    22479923.369
  20475717.361   -14025975.19449 -10910055.47748  20475716.906    20475724.300
  24751252.045    20391449.29949  15900367.88845  24751252.625    24751263.060
  20478858.495   -23919893.06349 -18623476.09048  20478858.871    20478865.479
 03  3 26 19  8  0.0000000  0  7G17G10G24G 6G 5G 4G30
  24727190.381    -4239044.99849  -3286054.71645  24727189.843    24727203.816
  21432938.249   -18404978.99849 -14318947.45547  21432937.526    21432946.328
  21978765.328      574767.29149    464641.55247  21978765.177    21978773.435
  22467864.234   -14545222.38549 -11317579.94346  22467864.161    22467872.572
  20482727.799   -13989134.84949 -10881348.75848  20482727.383    20482734.771
  24770640.550    20493336.53149  15979760.42545  24770641.032    24770651.630
  20471892.366   -23956500.31349 -18652001.22448  20471892.763    20471899.308
 03  3 26 19  8 30.0000000  0  7G17G10G24G 6G 5G 4G30
  24709798.949    -4330437.02849  -3357269.15545  24709798.343    24709812.173
  21422917.013   -18457640.73249 -14359982.53747  21422916.284    21422925.112
  21992938.946      649250.23849    522680.16847  21992938.786    21992947.101
  22455827.638   -14608475.27049 -11366867.86846  22455827.584    22455835.886
  20489836.739   -13951777.16549 -10852238.91948  20489836.341    20489843.737
  24790024.414    20595198.98949  16059133.64045  24790024.842    24790035.460
  20465024.795   -23992589.93249 -18680123.00448  20465025.168    20465031.693
 03  3 26 19  9  0.0000000  0  6G17G10G24G 6G 5G30
  24692435.097    -4421683.29349  -3428369.98845  24692434.584    24692448.443
  21412998.488   -18509762.70649 -14400597.04047  21412997.790    21413006.641
  22007150.790      723934.46849    580875.61347  22007150.726    22007159.097
  22443806.583   -14671645.98549 -11416091.76146  22443806.546    22443814.830
  20497045.397   -13913895.48849 -10822720.77348  20497045.021    20497052.437
  20458257.375   -24028153.04349 -18707834.52448  20458257.763    20458264.277
 03  3 26 19  9 30.0000000  0  6G17G10G24G 6G 5G30
  24675097.579    -4512790.35549  -3499362.36045  24675097.036    24675111.167
  21403181.585   -18561350.80349 -14440795.52647  21403180.886    21403189.733
  22021399.216      798810.19449    639220.28247  22021399.093    22021407.547
  22431799.805   -14734741.77149 -11465257.26646  22431799.788    22431808.070
  20504352.202   -13875498.19349 -10792800.84748  20504351.822    20504359.260
  20451588.983   -24063195.47149 -18735140.31148  20451589.379    20451595.924
 03  3 26 19 10  0.0000000  0  6G17G10G24G 6G 5G30
  24657786.788    -4603759.00449  -3570246.89145  24657786.250    24657800.132
  21393466.434   -18612404.31649 -14480577.45747  21393465.702    21393474.568
  22035683.298      873873.68949    697711.25647  22035683.234    22035691.716
  22419807.078   -14797763.97249 -11514365.44846  22419807.120    22419815.258
  20511756.609   -13836587.91149 -10762481.18748  20511756.207    20511763.684
  20445019.647   -24097717.49249 -18762040.59248  20445020.047    20445026.601
 03  3 26 19 10 30.0000000  0  6G17G10G24G 6G 5G30
  24640502.885    -4694587.13049  -3641021.92745  24640502.266    24640515.777
  21383853.595   -18662920.21449 -14519940.46847  21383852.827    21383861.697
  22050002.975      949123.76949    756347.63047  22050002.881    22050011.399
  22407828.673   -14860711.18749 -11563415.18746  22407828.643    22407836.799
  20519258.684   -13797164.52849 -10731761.71048  20519258.303    20519265.780
  20438549.826   -24131716.43249 -18788533.26348  20438550.226    20438556.807
 03  3 26 19 11  0.0000000  0  6G17G10G24G 6G 5G30
  24623246.174    -4785272.59549  -3711685.80245  24623245.372    24623258.724
  21374343.640   -18712895.12249 -14558881.92947  21374342.890    21374351.745
  22064357.961     1024559.07849    815128.33947  22064357.863    22064366.335
  22395864.742   -14923581.65149 -11612405.12246  22395864.735    22395872.907
  20526858.494   -13757227.65149 -10700642.10948  20526858.072    20526865.521
  20432180.101   -24165189.66549 -18814616.30748  20432180.506    20432187.042
 03  3 26 19 11 30.0000000  0  6G17G10G24G 6G 5G30
  24606016.533    -4875813.58249  -3782237.08945  24606015.850    24606029.181
  21364937.184   -18762326.14349 -14597399.57047  21364936.462    21364945.352
  22078748.008     1100178.61049    874052.59247  22078747.871    22078756.292
  22383915.710   -14986374.19949 -11661334.34646  22383915.718    22383923.859
  20534555.993   -13716777.28049 -10669122.38448  20534555.563    20534563.005
  20425910.819   -24198134.76649 -18840287.81548  20425911.236    20425917.758
 03  3 26 19 12  0.0000000  0  6G17G10G24G 6G 5G30
  24588814.474    -4966209.34949  -3852675.21845  24588813.799    24588827.643
  21355634.622   -18811211.32249 -14635491.89247  21355633.912    21355642.749
  22093172.518     1175979.88849    933118.46547  22093172.405    22093180.852
  22371981.567   -15049088.77949 -11710202.80946  22371981.540    22371989.620
  20542350.960   -13675814.84649 -10637203.64848  20542350.507    20542357.872
  20419742.230   -24230550.51849 -18865546.83648  20419742.656    20419749.290
 03  3 26 19 12 30.0000000  0  6G17G10G24G 6G 5G30
  24571640.485    -5056457.56849  -3922998.40245  24571640.088    24571653.700
  21346436.646   -18859547.10749 -14673156.10547  21346435.960    21346444.681
  22107631.467     1251962.02749    992325.28147  22107631.325    22107639.834
  22360062.488   -15111723.53949 -11759009.07546  22360062.421    22360070.603
  20550243.418   -13634339.68749 -10604885.38548  20550242.973    20550250.358
  20413675.109   -24262433.91249 -18890391.04248  20413675.516    20413682.130
 03  3 26 19 13  0.0000000  0  6G17G10G24G 6G 5G30
  24554494.864    -5146558.02749  -3993206.44545  24554494.428    24554507.865
  21337343.417   -18907332.21549 -14710391.21247  21337342.755    21337351.419
  22122124.122     1328122.01449   1051670.67347  22122124.042    22122132.641
  22348158.526   -15174278.74849 -11807753.36346  22348158.482    22348166.726
  20558233.134   -13592353.63149 -10572169.02148  20558232.712    20558240.098
  20407709.295   -24293784.31749 -18914819.92048  20407709.667    20407716.338
 03  3 26 19 13 30.0000000  0  6G17G10G24G 6G 5G30
  24537377.417    -5236509.90249  -4063298.70145  24537377.017    24537390.377
  21328355.388   -18954564.64449 -14747195.65147  21328354.697    21328363.313
  22136650.258     1404457.92049   1111153.15347  22136650.266    22136658.871
  22336269.767   -15236753.93249 -11856435.27746  22336269.693    22336278.053
  20566319.882   -13549857.67449 -10539055.33248  20566319.453    20566326.861
  20401845.195   -24324600.25549 -18938832.33348  20401845.616    20401852.305
 03  3 26 19 14  0.0000000  0  6G17G10G24G 6G 5G30
  24520288.620    -5326311.03649  -4133273.48645  24520288.398    24520301.878
  21319472.978   -19001241.53449 -14783567.21647  21319472.326    21319480.910
  22151209.750     1480968.40649   1170771.67547  22151209.757    22151218.364
  22324396.472   -15299147.69649 -11905053.76246  22324396.482    22324404.869
  20574503.672   -13506851.85049 -10505544.34548  20574503.238    20574510.644
  20396083.316   -24354879.36949 -18962426.45248  20396083.725    20396090.348
 03  3 26 19 14 30.0000000  0  6G17G10G24G 6G 5G30
  24503228.412    -5415963.43949  -4203132.34145  24503228.118    24503241.623
  21310696.120   -19047363.75449 -14819506.55847  21310695.473    21310704.074
  22165801.511     1557648.45149   1230522.31647  22165801.555    22165810.182
  22312538.332   -15361462.68749 -11953610.85946  22312538.321    22312546.672
  20582783.712   -13463340.16349 -10471639.17848  20582783.276    20582790.681
  20390423.244   -24384623.35949 -18985603.58748  20390423.624    20390430.240
 03  3 26 19 15  0.0000000  0  6G17G10G24G 6G 5G30
  24486197.307    -5505462.61649  -4272871.81545  24486197.019    24486210.279
  21302025.890   -19092925.64149 -14855009.27847  21302025.255    21302033.882
  22180425.897     1634499.34049   1290406.07747  22180425.870    22180434.474
  22300696.017   -15423694.63249 -12002103.25146  22300695.979    22300704.231
  20591160.557   -13419319.83849 -10437337.67648  20591160.116    20591167.523
  20384865.958   -24413826.90949 -19008359.59848  20384866.331    20384873.023
 03  3 26 19 15 30.0000000  0  6G17G10G24G 6G 5G30
  24469195.129    -5594809.85449  -4342492.91145  24469194.659    24469207.930
  21293462.380   -19137927.31349 -14890075.46947  21293461.693    21293470.316
  22195082.034     1711517.05449   1350419.83047  22195081.954    22195090.536
  22288869.351   -15485845.17349 -12050532.19446  22288869.197    22288877.317
  20599633.564   -13374794.03149 -10402642.28648  20599633.141    20599640.536
  20379411.439   -24442490.74349 -19030695.05148  20379411.827    20379418.515
 03  3 26 19 16  0.0000000  0  6G17G10G24G 6G 5G30
  24452222.019    -5684002.95649  -4411993.89545  24452221.719    24452234.815
  21285005.925   -19182365.81549 -14924702.82047  21285005.278    21285013.890
  22209769.637     1788700.58749   1410562.78747  22209769.556    22209778.103
  22277058.170   -15547912.81149 -12098896.54746  22277058.143    22277066.242
  20608202.732   -13329762.76849 -10367553.03748  20608202.318    20608209.729
  20374060.102   -24470612.47949 -19052608.09148  20374060.481    20374067.074
 03  3 26 19 16 30.0000000  0  6G17G10G24G 6G 5G30
  24435278.778    -5773040.47049  -4481373.62845  24435278.479    24435291.526
  21276657.200   -19226238.96649 -14958889.63547  21276656.507    21276665.035
  22224488.530     1866048.29649   1470833.68247  22224488.387    22224496.835
  22265263.021   -15609896.80149 -12147195.72946  22265262.969    22265271.059
  20616867.956   -13284226.87349 -10332070.56848  20616867.520    20616874.916
  20368812.226   -24498190.41049 -19074097.39548  20368812.604    20368819.138
 03  3 26 19 17  0.0000000  0  6G17G10G24G 6G 5G30
  24418364.995    -5861922.80249  -4550632.42445  24418364.698    24418377.819
  21268416.159   -19269545.91249 -14992635.25247  21268415.482    21268423.992
  22239238.042     1943556.82349   1531229.90147  22239237.856    22239246.279
  22253483.738   -15671797.45549 -12195429.96546  22253483.724    22253491.722
  20625628.782   -13238188.43149 -10296196.49948  20625628.355    20625635.774
  20363667.891   -24525224.16849 -19095162.66048  20363668.256    20363674.796
 03  3 26 19 17 30.0000000  0  6G17G10G24G 6G 5G30
  24401481.256    -5950648.10249  -4619768.90045  24401480.876    24401493.761
  21260283.483   -19312283.90149 -15025937.52447  21260282.752    21260291.219
  22254017.744     2021224.76149   1591750.32446  22254017.554    22254026.013
  22241720.595   -15733613.59149 -12243598.34447  22241720.497    22241728.479
  20634485.193   -13191647.82049 -10259931.13548  20634484.734    20634492.178
  20358627.447   -24551711.71649 -19115802.31448  20358627.845    20358634.374
 03  3 26 19 18  0.0000000  0  6G17G10G24G 6G 5G30
  24384627.323    -6039215.34549  -4688782.19845  24384626.875    24384639.755
  21252259.269   -19354451.18449 -15058795.09847  21252258.518    21252267.034
  22268827.401     2099050.11449   1652393.40346  22268827.241    22268835.737
  22229973.427   -15795344.60449 -12291700.40046  22229973.370    22229981.425
  20643436.936   -13144606.13749 -10223275.32148  20643436.486    20643443.954
  20353691.240   -24577651.66249 -19136015.26348  20353691.642    20353698.151
 03  3 26 19 18 30.0000000  0  6G17G10G24G 6G 5G30
  24367803.756    -6127622.58149  -4757670.82345  24367803.192    24367816.172
  21244344.303   -19396044.32249 -15091205.28947  21244343.577    21244352.164
  22283666.883     2177032.10249   1713158.53746  22283666.719    22283675.337
  22218242.843   -15856988.70649 -12339734.72446  22218242.791    22218250.948
  20652484.060   -13097063.10449 -10186228.84448  20652483.623    20652491.161
  20348859.806   -24603041.23549 -19155799.35048  20348860.177    20348866.665
 03  3 26 19 19  0.0000000  0  6G17G10G24G 6G 5G30
  24351010.981    -6215869.07249  -4826434.17845  24351010.366    24351023.322
  21236538.750   -19437062.34749 -15123167.34047  21236538.031    21236546.686
  22298535.764     2255168.35749   1774043.88446  22298535.605    22298544.301
  22206528.822   -15918545.86049 -12387701.31547  22206528.830    22206536.986
  20661626.351   -13049020.39149 -10148793.00948  20661625.914    20661633.460
  20344133.230   -24627879.85849 -19175154.12348  20344133.589    20344140.095
 03  3 26 19 19 30.0000000  0  6G17G10G24G 6G 5G30
  24334248.655    -6303955.00549  -4895072.43145  24334248.111    24334261.085
  21228842.802   -19477504.29249 -15154680.49947  21228842.158    21228850.728
  22313433.316     2333455.67949   1835046.93946  22313433.182    22313441.919
  22194831.344   -15980016.39849 -12435600.39847  22194831.348    22194839.501
  20670863.312   -13000480.13649 -10110969.47548  20670862.869    20670870.409
  20339511.522   -24652167.20049 -19194079.32748  20339511.889    20339518.396
 03  3 26 19 20  0.0000000  0  6G17G10G24G 6G 5G30
  24317517.262    -6391878.59749  -4963584.19845  24317516.834    24317529.579
  21221257.063   -19517367.61649 -15185742.78247  21221256.400    21221264.987
  22328359.443     2411893.18549   1896167.01346  22328359.368    22328368.111
  22183150.664   -16041398.96449 -12483430.93847  22183150.644    22183158.734
  20680194.808   -12951442.70549 -10072758.53448  20680194.399    20680201.956
  20334995.077   -24675901.19449 -19212573.34948  20334995.446    20335002.001
 03  3 26 19 20 30.0000000  0  6G17G10G24G 6G 5G30
  24300816.691    -6479639.76349  -5031969.39945  24300816.384    24300829.053
  21213781.566   -19556651.33049 -15216353.42247  21213780.895    21213789.512
  22343313.696     2490477.62649   1957401.58946  22343313.566    22343322.301
  22171486.577   -16102693.88249 -12531193.17147  22171486.510    22171494.691
  20689620.582   -12901910.31349 -10034161.90648  20689620.154    20689627.705
  20330584.007   -24699081.55949 -19230635.96948  20330584.340    20330590.904
 03  3 26 19 21  0.0000000  0  6G17G10G24G 6G 5G30
  24284147.540    -6567237.22449  -5100227.02045  24284147.095    24284159.596
  21206416.750   -19595353.05949 -15246510.57747  21206416.114    21206424.742
  22358295.585     2569207.78849   2018749.70646  22358295.424    22358304.158
  22159839.411   -16163899.75949 -12578886.03347  22159839.352    22159847.561
  20699140.375   -12851883.54649  -9995180.05248  20699139.954    20699147.557
  20326278.591   -24721706.20949 -19248265.57248  20326278.950    20326285.527
 03  3 26 19 21 30.0000000  0  6G17G10G24G 6G 5G30
  24267509.560    -6654670.45749  -5168356.67045  24267508.984    24267521.631
  21199163.097   -19633471.64549 -15276213.34447  21199162.395    21199171.005
  22373304.768     2648081.33149   2080209.56646  22373304.613    22373313.343
  22148209.277   -16225016.69349 -12626509.57847  22148209.194    22148217.299
  20708753.915   -12801364.14649  -9955814.33148  20708753.498    20708761.135
  20322079.073   -24743774.57649 -19265461.70748  20322079.467    20322086.044
 03  3 26 19 22  0.0000000  0  6G17G10G24G 6G 5G30
  24250903.092    -6741938.22249  -5236357.39945  24250902.440    24250915.028
  21192020.626   -19671005.14149 -15305460.18947  21192019.930    21192028.563
  22388340.982     2727096.60749   2141779.86346  22388340.794    22388349.484
  22136596.282   -16286043.59149 -12674062.97647  22136596.163    22136604.284
  20718461.172   -12750352.74349  -9916065.22648  20718460.708    20718468.376
  20317985.783   -24765285.05749 -19282223.12148  20317986.151    20317992.770
 03  3 26 19 22 30.0000000  0  6G17G10G24G 6G 5G30
  24234328.220    -6829039.08449  -5304228.08345  24234327.625    24234340.053
  21184989.885   -19707951.36349 -15334249.42347  21184989.267    21184997.889
  22403403.694     2806251.82049   2203459.20146  22403403.516    22403412.253
  22125000.539   -16346979.59949 -12721545.54347  22125000.431    22125008.637
  20728261.767   -12698850.35949  -9875933.54148  20728261.343    20728269.057
  20313998.893   -24786236.13249 -19298548.64148  20313999.291    20314005.918
 03  3 26 19 23  0.0000000  0  6G17G10G24G 6G 5G30
  24217785.278    -6915971.67249  -5371967.64845  24217784.907    24217797.271
  21178071.500   -19744307.99149 -15362579.23447  21178070.807    21178079.466
  22418492.667     2885545.47949   2265246.41946  22418492.591    22418501.384
  22113422.312   -16407823.24249 -12768956.14047  22113422.247    22113430.444
  20738155.685   -12646857.66749  -9835419.79148  20738155.234    20738163.004
  20310118.783   -24806625.88449 -19314436.75848  20310119.177    20310125.897
 03  3 26 19 23 30.0000000  0  6G17G10G24G 6G 5G30
  24201274.578    -7002735.40149  -5439575.62145  24201274.157    24201286.578
  21171265.439   -19780074.04749 -15390448.86247  21171264.748    21171273.424
  22433607.605     2964975.20049   2327139.66146  22433607.606    22433616.434
  22101861.632   -16468574.59549 -12816294.82147  22101861.569    22101869.808
  20748142.502   -12594376.67049  -9794525.54948  20748142.070    20748149.868
  20306345.622   -24826454.01849 -19329887.25848  20306346.039    20306352.703
 03  3 26 19 24  0.0000000  0  6G17G10G24G 6G 5G30
  24184796.211    -7089329.60949  -5507051.52445  24184795.645    24184808.121
  21164572.117   -19815247.88449 -15417857.03347  21164571.392    21164580.006
  22448748.146     3044539.04949   2389137.41746  22448748.155    22448756.974
  22090318.747   -16529232.79849 -12863560.91447  22090318.661    22090326.843
  20758222.087   -12541408.32349  -9753251.55448  20758221.622    20758229.428
  20302679.687   -24845719.08349 -19344899.00948  20302680.087    20302686.666
 03  3 26 19 24 30.0000000  0  6G17G10G24G 6G 5G30
  24168350.012    -7175753.55049  -5574394.75945  24168349.549    24168362.012
  21157991.691   -19849828.35949 -15444802.83947  21157990.918    21157999.516
  22463914.024     3124235.40649   2451238.43046  22463913.966    22463922.722
  22078793.649   -16589797.55549 -12910754.19747  22078793.579    22078801.680
  20768394.117   -12487954.32749  -9711599.13848  20768393.650    20768401.378
  20299121.000   -24864420.15549 -19359471.27648  20299121.381    20299127.968
 03  3 26 19 25  0.0000000  0  6G17G10G24G 6G 5G30
  24151936.673    -7262006.42349  -5641604.65845  24151936.123    24151948.620
  21151524.442   -19883813.87449 -15471285.04547  21151523.725    21151532.278
  22479104.448     3204061.48849   2513440.53146  22479104.380    22479113.135
  22067286.477   -16650268.45349 -12957874.33947  22067286.385    22067294.350
  20778658.261   -12434016.24349  -9669569.50748  20778657.794    20778665.492
  20295669.759   -24882556.59049 -19373603.57248  20295670.150    20295676.734
 03  3 26 19 25 30.0000000  0  6G17G10G24G 6G 5G30
  24135556.071    -7348086.63749  -5708680.01745  24135555.482    24135568.116
  21145170.759   -19917202.78949 -15497302.36047  21145170.043    21145178.577
  22494319.198     3284015.79549   2575742.55046  22494319.157    22494327.998
  22055797.301   -16710644.45049 -13004920.53547  22055797.209    22055805.036
  20789014.286   -12379595.00649  -9627163.39348  20789013.835    20789021.559
  20292326.216   -24900127.03749 -19387294.83648  20292326.595    20292333.218
 03  3 26 19 26  0.0000000  0  6G17G10G24G 6G 5G30
  24119208.226    -7433994.37649  -5775621.01645  24119207.620    24119220.367
  21138930.833   -19949993.77649 -15522853.75847  21138930.123    21138938.590
  22509558.059     3364096.05249   2638142.70346  22509557.957    22509566.849
  22044326.266   -16770925.20849 -13051892.50947  22044326.141    22044333.924
  20799461.961   -12324692.30249  -9584382.10848  20799461.482    20799469.253
  20289090.540   -24917130.72049 -19400544.46348  20289090.905    20289097.530
 03  3 26 19 26 30.0000000  0  6G17G10G24G 6G 5G30
  24102893.605    -7519727.22949  -5842425.73045  24102893.164    24102905.740
  21132805.272   -19982184.33749 -15547937.28947  21132804.474    21132812.912
  22524820.746     3444301.76149   2700640.61246  22524820.661    22524829.535
  22032873.634   -16831108.90749 -13098788.85347  22032873.559    22032881.329
  20810001.167   -12269308.33649  -9541225.81048  20810000.706    20810008.516
  20285963.129   -24933565.41849 -19413350.72948  20285963.500    20285970.102
 03  3 26 19 27  0.0000000  0  6G17G10G24G 6G 5G30
  24086612.320    -7605286.26249  -5909094.99345  24086611.845    24086624.416
  21126793.869   -20013774.15249 -15572552.70947  21126793.125    21126801.558
  22540106.649     3524629.36649   2763233.48946  22540106.589    22540115.468
  22021439.425   -16891196.10049 -13145610.00747  22021439.325    22021447.085
  20820631.458   -12213446.19149  -9497696.91148  20820630.977    20820638.737
  20282943.892   -24949431.52849 -19425713.93748  20282944.260    20282950.918
 03  3 26 19 27 30.0000000  0  6G17G10G24G 6G 5G30
  24070364.414    -7690669.55749  -5975627.29245  24070363.884    24070376.377
  21120897.270   -20044761.01249 -15596698.29547  21120896.518    21120904.896
  22555415.554     3605078.01849   2825920.68846  22555415.511    22555424.394
  22010023.794   -16951185.35949 -13192354.84047  22010023.668    22010031.452
  20831352.577   -12157106.44349  -9453795.85848  20831352.125    20831359.866
  20280033.236   -24964727.22649 -19437632.67048  20280033.605    20280040.268
 03  3 26 19 28  0.0000000  0  6G17G10G24G 6G 5G30
  24054150.096    -7775876.20649  -6042021.96345  24054149.450    24054161.838
  21115115.551   -20075143.83249 -15620373.19547  21115114.780    21115123.148
  22570747.030     3685645.36649   2888700.38946  22570746.997    22570755.861
  21998626.838   -17011076.22249 -13239023.01447  21998626.738    21998634.538
  20842164.293   -12100290.62649  -9409523.84748  20842163.830    20842171.569
  20277231.240   -24979451.83249 -19449106.39948  20277231.624    20277238.280
 03  3 26 19 28 30.0000000  0  6G17G10G24G 6G 5G30
  24037969.488    -7860904.98449  -6108278.03945  24037968.860    24037981.281
  21109449.112   -20104920.71649 -15643575.93547  21109448.393    21109456.738
  22586100.935     3766330.28049   2951571.69946  22586100.838    22586109.745
  21987248.913   -17070867.42649 -13285613.52547  21987248.795    21987256.597
  20853066.388   -12042999.73149  -9364881.64548  20853065.953    20853073.680
  20274538.219   -24993603.89949 -19460133.98748  20274538.609    20274545.279
 03  3 26 19 29  0.0000000  0  6G17G10G24G 6G 5G30
  24021822.775    -7945755.36049  -6174395.08045  24021822.239    24021834.637
  21103898.228   -20134090.71749 -15666305.76847  21103897.496    21103905.816
  22601476.730     3847130.69449   3014533.01146  22601476.583    22601485.654
  21975890.009   -17130558.33149 -13332125.88047  21975889.948    21975897.792
  20864058.590   -11985235.42549  -9319870.54248  20864058.133    20864065.881
  20271954.255   -25007182.79449 -19470714.94748  20271954.648    20271961.292
 03  3 26 19 29 30.0000000  0  6G17G10G24G 6G 5G30
  24005710.282    -8030426.76349  -6240372.65045  24005709.703    24005722.136
  21098463.193   -20162652.31449 -15688561.51947  21098462.408    21098470.741
  22616874.171     3928044.75149   3077582.87346  22616874.074    22616883.171
  21964550.291   -17190148.31949 -13378559.59747  21964550.298    21964558.161
  20875140.603   -11926999.24249  -9274491.74648  20875140.121    20875147.909
  20269479.544   -25020187.51749 -19480848.50448  20269479.951    20269486.578
 03  3 26 19 30  0.0000000  0  6G17G10G24G 6G 5G30
  23989631.791    -8114918.19749  -6306209.99645  23989631.424    23989643.718
  21093144.034   -20190604.32049 -15710342.27347  21093143.241    21093151.592
  22632292.837     4009070.47549   3140719.74146  22632292.770    22632301.873
  21953230.069   -17249636.70049 -13424914.15347  21953230.035    21953237.904
  20886312.181   -11868292.56749  -9228746.34148  20886311.677    20886319.534
  20267114.242   -25032617.30749 -19490534.06148  20267114.649    20267121.285
 03  3 26 19 30 30.0000000  0  6G17G10G24G 6G 5G30
  23973587.728    -8199229.25049  -6371906.78445  23973587.401    23973599.839
  21087941.050   -20217945.90449 -15731647.36347  21087940.293    21087948.621
  22647732.360     4090205.53049   3203941.80546  22647732.301    22647741.358
  21941929.284   -17309022.80149 -13471189.00547  21941929.229    21941937.057
  20897572.832   -11809117.41849  -9182635.88548  20897572.342    20897580.237
  20264858.485   -25044471.53149 -19499771.12148  20264858.880    20264865.492
 03  3 26 19 31  0.0000000  0  6G17G10G24G 6G 5G30
  23957578.437    -8283357.88949  -6437461.43145  23957578.104    23957590.623
  21082854.657   -20244674.67749 -15752474.93047  21082853.884    21082862.250
  22663192.576     4171449.21649   3267248.52146  22663192.568    22663201.580
  21930648.184   -17368305.08449 -13517382.96147  21930648.138    21930655.936
  20908922.504   -11749474.39849  -9136160.85748  20908922.054    20908929.987
  20262712.545   -25055748.53349 -19508558.40248  20262712.936    20262719.528
 03  3 26 19 31 30.0000000  0  6G17G10G24G 6G 5G30
  23941603.701    -8367304.73449  -6502874.42345  23941603.333    23941615.929
  21077884.873   -20270790.74849 -15772825.06747  21077884.154    21077892.482
  22678672.949     4252798.69449   3330637.67846  22678672.931    22678681.904
  21919386.828   -17427483.73149 -13563496.15347  21919386.764    21919394.541
  20920360.822   -11689366.00549  -9089323.19848  20920360.376    20920368.326
  20260676.404   -25066448.46549 -19516896.01648  20260676.795    20260683.416
 03  3 26 19 32  0.0000000  0  6G17G10G24G 6G 5G30
  23925663.793    -8451068.35949  -6568144.60345  23925663.518    23925676.057
  21073032.051   -20296292.50149 -15792696.52147  21073031.314    21073039.626
  22694173.181     4334252.39149   3394108.02946  22694173.131    22694181.970
  21908145.451   -17486557.63049 -13609527.73947  21908145.397    21908153.147
  20931887.493   -11628793.52649  -9042123.91647  20931887.026    20931894.961
  20258750.272   -25076570.28449 -19524783.15448  20258750.659    20258757.311
 03  3 26 19 32 30.0000000  0  6G17G10G24G 6G 5G30
  23909758.998    -8534648.24649  -6633271.64945  23909758.728    23909771.052
  21068296.338   -20321178.45549 -15812088.12147  21068295.632    21068303.953
  22709692.883     4415808.69049   3457658.33746  22709692.767    22709701.680
  21896924.150   -17545525.86649 -13655476.98447  21896924.105    21896931.813
  20943502.120   -11567758.31149  -8994564.05647  20943501.675    20943509.588
  20256934.331   -25086113.08649 -19532219.10548  20256934.716    20256941.425
 03  3 26 19 33  0.0000000  0  6G17G10G24G 6G 5G30
  23893889.296    -8618043.45849  -6698254.77645  23893889.045    23893901.149
  21063678.066   -20345447.80549 -15830999.25647  21063677.340    21063685.639
  22725231.729     4497465.49349   3521286.96146  22725231.610    22725240.571
  21885723.027   -17604388.04049 -13701343.58547  21885722.979    21885730.721
  20955204.468   -11506262.27549  -8946645.12247  20955204.034    20955211.968
  20255228.689   -25095076.27349 -19539203.41848  20255229.107    20255235.795
 03  3 26 19 33 30.0000000  0  6G17G10G24G 6G 5G30
  23878054.922    -8701253.08949  -6763093.28345  23878054.627    23878066.728
  21059177.235   -20369099.50049 -15849429.10347  21059176.526    21059184.900
  22740789.381     4579221.47749   3584992.86046  22740789.309    22740798.321
  21874542.283   -17663143.19249 -13747126.79047  21874542.240    21874549.962
  20966994.190   -11444307.02649  -8898368.35647  20966993.782    20967001.728
  20253633.549   -25103459.09849 -19545735.49448  20253633.931    20253640.590
 03  3 26 19 34  0.0000000  0  6G17G10G24G 6G 5G30
  23862255.974    -8784276.15849  -6827786.41645  23862255.744    23862267.739
  21054794.347   -20392131.79249 -15867376.30047  21054793.620    21054802.002
  22756365.577     4661074.99849   3648774.77046  22756365.486    22756374.587
  21863382.120   -17721789.98949 -13792825.56847  21863382.105    21863389.789
  20978871.107   -11381893.67949  -8849734.63447  20978870.730    20978878.646
  20252148.960   -25111260.51749 -19551814.53148  20252149.359    20252156.006
 03  3 26 19 34 30.0000000  0  6G17G10G24G 6G 5G30
  23846492.739    -8867112.33749  -6892333.91645  23846492.427    23846504.378
  21050529.271   -20414544.68249 -15884840.84947  21050528.512    21050536.925
  22771959.897     4743023.56249   3712630.74846  22771959.830    22771968.933
  21852242.593   -17780328.56749 -13838440.01247  21852242.567    21852250.309
  20990834.722   -11319024.74249  -8800745.90647  20990834.318    20990842.228
  20250775.030   -25118480.52549 -19557440.51948  20250775.410    20250782.035
 03  3 26 19 35  0.0000000  0  6G17G10G24G 6G 5G30
  23830765.300    -8949760.87349  -6956735.21245  23830764.855    23830776.849
  21046382.440   -20436336.47149 -15901821.41947  21046381.653    21046390.047
  22787572.049     4825065.85849   3776559.75746  22787572.022    22787581.132
  21841123.940   -17838757.39349 -13883968.94347  21841123.904    21841131.644
  21002884.790   -11255701.26749  -8751402.99147  21002884.396    21002892.321
  20249511.979   -25125118.01449 -19562612.59248  20249512.364    20249519.013
 03  3 26 19 35 30.0000000  0  6G17G10G24G 6G 5G30
  23815073.564    -9032221.20449  -7020989.85945  23815073.079    23815085.111
  21042353.914   -20457506.35649 -15918317.40047  21042353.142    21042361.500
  22803201.597     4907199.80249   3840560.17846  22803201.552    22803210.721
  21830026.321   -17897075.96849 -13929411.95747  21830026.287    21830033.943
  21015021.006   -11191925.23449  -8701707.44047  21015020.624    21015028.567
  20248359.825   -25131172.55549 -19567330.42848  20248360.222    20248366.874
 03  3 26 19 36  0.0000000  0  6G17G10G24G 6G 5G30
  23799417.635    -9114492.13949  -7085096.91745  23799417.186    23799429.520
  21038443.889   -20478053.07649 -15934327.80147  21038443.149    21038451.482
  22818848.432     4989424.48349   3904631.29246  22818848.370    22818857.573
  21818949.998   -17955282.86449 -13974767.95547  21818949.945    21818957.456
  21027243.117   -11127697.87749  -8651660.20047  21027242.713    21027250.701
  20247318.846   -25136642.96149 -19571593.09948  20247319.252    20247325.878
 03  3 26 19 36 30.0000000  0  6G17G10G24G 6G 5G30
  23783798.167    -9196572.40049  -7149055.40445  23783797.720    23783810.042
  21034652.845   -20497975.26949 -15949851.55647  21034652.083    21034660.359
  22834512.306     5071738.49849   3968772.01946  22834512.226    22834521.433
  21807895.109   -18013376.97849 -14020036.06547  21807895.028    21807902.477
  21039550.776   -11063020.51449  -8601262.31047  21039550.412    21039558.456
  20246389.180   -25141528.60349 -19575400.09848  20246389.586    20246396.190
 03  3 26 19 37  0.0000000  0  6G17G10G24G 6G 5G30
  23768214.893    -9278462.41849  -7212865.67545  23768214.428    23768226.603
  21030980.581   -20517273.14549 -15964888.83947  21030979.786    21030988.010
  22850192.711     5154138.68549   4032979.89546  22850192.520    22850201.774
  21796861.530   -18071358.49349 -14065216.43647  21796861.487    21796868.952
  21051943.629   -10997896.04749  -8550516.02447  21051943.263    21051951.343
  20245570.781   -25145829.80649 -19578751.69248  20245571.163    20245577.716
 03  3 26 19 37 30.0000000  0  6G17G10G24G 6G 5G30
  23752667.958    -9360160.64149  -7276526.49545  23752667.571    23752679.860
  21027427.340   -20535944.87849 -15979438.21947  21027426.606    21027434.840
  22865889.360     5236624.81449   4097254.73246  22865889.104    22865898.439
  21785849.764   -18129225.42449 -14110307.52847  21785849.750    21785857.209
  21064421.414   -10932325.10949  -8499421.84147  21064421.025    21064429.130
  20244863.740   -25149545.10349 -19581646.74048  20244864.142    20244870.747
 03  3 26 19 38  0.0000000  0  6G17G10G24G 6G 5G30
  23737157.775    -9441666.54849  -7340037.44445  23737157.408    23737169.727
  21023993.457   -20553990.13149 -15993499.43547  21023992.693    21024000.909
  22881601.881     5319194.16149   4161594.41646  22881601.657    22881610.967
  21774859.924   -18186977.66349 -14155309.25047  21774859.898    21774867.269
  21076983.657   -10866310.14149  -8447981.66347  21076983.278    21076991.385
  20244268.215   -25152674.59649 -19584085.32148  20244268.614    20244275.254
 03  3 26 19 38 30.0000000  0  6G17G10G24G 6G 5G30
  23721684.236    -9522980.61549  -7403398.92745  23721683.700    23721695.993
  21020678.632   -20571409.13349 -16007072.66247  21020677.917    21020686.158
  22897329.927     5401844.46749   4225997.20546  22897329.609    22897338.892
  21763891.816   -18244615.14949 -14200221.54247  21763891.801    21763899.126
  21089629.954   -10799853.65549  -8396197.44347  21089629.573    21089637.654
  20243784.108   -25155218.61849 -19586067.68348  20243784.519    20243791.173
 03  3 26 19 39  0.0000000  0  6G17G10G24G 6G 5G30
  23706247.385    -9604100.69249  -7466609.23045  23706246.927    23706259.153
  21017483.464   -20588199.56549 -16020156.09747  21017482.780    21017491.050
  22913073.148     5484575.01349   4290462.49046  22913072.779    22913082.004
  21752945.954   -18302135.94649 -14245042.92047  21752945.899    21752953.219
  21102360.158   -10732956.22649  -8344069.63847  21102359.760    21102367.808
  20243411.757   -25157175.53449 -19587592.56648  20243412.118    20243418.745
 03  3 26 19 39 30.0000000  0  6G17G10G24G 6G 5G30
  23690847.555    -9685026.45849  -7529668.14845  23690847.118    23690859.287
  21014408.086   -20604360.79949 -16032749.25147  21014407.399    21014415.633
  22928831.120     5567383.68849   4354988.65746  22928830.741    22928839.975
  21742022.420   -18359539.12349 -14289772.63847  21742022.381    21742029.718
  21115173.860   -10665619.86649  -8291599.80547  21115173.470    21115181.536
  20243151.132   -25158544.92749 -19588659.63348  20243151.518    20243158.206
 03  3 26 19 40  0.0000000  0  6G17G10G24G 6G 5G30
  23675485.034    -9765756.19849  -7592574.30445  23675484.593    23675496.851
  21011452.747   -20619891.54049 -16044851.11047  21011452.035    21011460.225
  22944603.813     5650270.04249   4419575.34446  22944603.521    22944612.715
  21731121.558   -18416822.95149 -14334409.36147  21731121.558    21731128.959
  21128070.869   -10597845.70249  -8238788.82747  21128070.501    21128078.610
  20243002.520   -25159325.69049 -19589268.03248  20243002.901    20243009.605
 03  3 26 19 40 30.0000000  0  6G17G10G24G 6G 5G30
  23660159.644    -9846291.47049  -7655328.94645  23660159.223    23660171.296
  21008617.131   -20634792.70849 -16056462.39947  21008616.418    21008624.612
  22960390.668     5733230.77949   4484219.98546  22960390.413    22960399.659
  21720243.398   -18473988.41049 -14378953.85447  21720243.338    21720250.714
  21141050.615   -10529637.18849  -8185639.40347  21141050.235    21141058.313
  20242965.655   -25159519.30349 -19589418.91748  20242966.046    20242972.732
 03  3 26 19 41  0.0000000  0  6G17G10G24G 6G 5G30
  23644871.497    -9926630.72249  -7717930.82245  23644871.027    23644883.078
  21005901.564   -20649062.78949 -16067581.93247  21005900.877    21005909.061
  22976191.575     5816264.99049   4548921.90146  22976191.344    22976200.592
  21709388.068   -18531033.63549 -14423404.65547  21709387.984    21709395.361
  21154112.809   -10460995.16549  -8132152.18547  21154112.393    21154120.476
  20243040.779   -25159124.42549 -19589111.23548  20243041.174    20243047.886
 03  3 26 19 41 30.0000000  0  6G17G10G24G 6G 5G30
  23629620.894   -10006772.70649  -7780379.00346  23629620.395    23629632.444
  21003306.257   -20662700.98449 -16078209.07947  21003305.584    21003313.790
  22992006.168     5899371.12649   4613679.85746  22992005.916    22992015.231
  21698555.820   -18587957.38749 -14467760.80647  21698555.713    21698563.082
  21167257.135   -10391921.40549  -8078328.54447  21167256.743    21167264.831
  20243228.030   -25158140.46549 -19588344.52948  20243228.435    20243235.140
 03  3 26 19 42  0.0000000  0  6G17G10G24G 6G 5G30
  23614407.867   -10086716.58949  -7842672.81146  23614407.526    23614419.592
  21000831.386   -20675706.37249 -16088343.12847  21000830.707    21000838.946
  23007834.154     5982548.09149   4678493.00146  23007834.048    23007843.424
  21687746.950   -18644758.49449 -14512021.38447  21687746.825    21687754.191
  21180483.376   -10322417.51049  -8024169.72947  21180482.977    21180491.074
  20243527.460   -25156566.87349 -19587118.37348  20243527.887    20243534.563
 03  3 26 19 42 30.0000000  0  6G17G10G24G 6G 5G30
  23599232.821   -10166462.69649  -7904812.50546  23599232.361    23599244.304
  20998476.959   -20688079.10249 -16097984.20247  20998476.267    20998484.488
  23023675.347     6065793.25649   4743359.30246  23023675.171    23023684.612
  21676961.406   -18701436.98549 -14556186.41947  21676961.312    21676968.662
  21193790.901   -10252486.36749  -7969678.00047  21193790.464    21193798.634
  20243939.044   -25154404.18549 -19585433.18148  20243939.482    20243946.117
 03  3 26 19 43  0.0000000  0  6G17G10G24G 6G 5G30
  23584095.525   -10246010.21849  -7966797.45846  23584094.871    23584106.860
  20996242.948   -20699818.53549 -16107131.78847  20996242.304    20996250.523
  23039528.927     6149104.82049   4808277.33146  23039528.856    23039538.420
  21666199.460   -18757991.89349 -14600255.14947  21666199.332    21666206.655
  21207179.353   -10182129.74649  -7914854.72147  21207178.925    21207187.118
  20244462.788   -25151652.10549 -19583288.71948  20244463.190    20244469.780
 03  3 26 19 43 30.0000000  0  6G17G10G24G 6G 5G30
  23568995.967   -10325357.60949  -8028626.47146  23568995.454    23569007.439
  20994129.811   -20710923.27649 -16115784.81147  20994129.137    20994137.313
  23055395.186     6232482.41049   4873246.80446  23055395.122    23055404.730
  21655461.329   -18814421.01749 -14644225.87947  21655461.226    21655468.529
  21220648.593   -10111348.50549  -7859700.58047  21220648.151    21220656.396
  20245098.922   -25148309.25649 -19580683.92348  20245099.329    20245105.912
 03  3 26 19 44  0.0000000  0  6G17G10G24G 6G 5G30
  23553934.821   -10404504.92449  -8090299.57646  23553934.221    23553946.157
  20992137.339   -20721393.38949 -16123943.33247  20992136.706    20992144.909
  23071273.682     6315923.76149   4938265.97146  23071273.520    23071283.233
  21644747.132   -18870724.17149 -14688098.44547  21644747.083    21644754.360
  21234198.123   -10040145.22649  -7804217.57447  21234197.701    21234205.967
  20245847.439   -25144376.07249 -19577619.13148  20245847.851    20245854.424
 03  3 26 19 44 30.0000000  0  6G17G10G24G 6G 5G30
  23538911.700   -10483451.21749  -8151816.03146  23538911.151    23538923.064
  20990265.856   -20731228.24149 -16131606.82547  20990265.182    20990273.342
  23087164.012     6399428.04349   5003334.16646  23087163.919    23087173.642
  21634057.157   -18926900.28249 -14731872.01447  21634057.064    21634064.367
  21247827.662    -9968521.72449  -7748407.11947  21247827.255    21247835.550
  20246708.367   -25139852.17549 -19574094.03548  20246708.765    20246715.349
 03  3 26 19 45  0.0000000  0  6G17G10G24G 6G 5G30
  23523926.956   -10562196.08949  -8213175.53846  23523926.445    23523938.268
  20988515.226   -20740427.54049 -16138775.10347  20988514.564    20988522.738
  23103065.954     6482992.81149   5068449.48546  23103065.831    23103075.541
  21623391.497   -18982948.61049 -14775546.02247  21623391.378    21623398.720
  21261536.858    -9896480.03249  -7692270.81747  21261536.454    21261544.699
  20247681.653   -25134737.61249 -19570108.68748  20247682.021    20247688.674
 03  3 26 19 45 30.0000000  0  6G17G10G24G 6G 5G30
  23508980.710   -10640738.74449  -8274377.47646  23508980.232    23508991.995
  20986885.748   -20748990.60949 -16145447.60447  20986885.072    20986893.218
  23118979.050     6566616.62249   5133610.81846  23118979.034    23118988.614
  21612750.308   -19038867.72349 -14819119.33347  21612750.235    21612757.681
  21275325.271    -9824021.89349  -7635809.99847  21275324.869    21275333.076
  20248767.397   -25129032.15449 -19565662.89548  20248767.740    20248774.410
 03  3 26 19 46  0.0000000  0  6G17G10G24G 6G 5G30
  23494072.878   -10719079.15949  -8335421.82146  23494072.383    23494084.255
  20985377.359   -20756917.42849 -16151624.33347  20985376.646    20985384.756
  23134903.139     6650297.79549   5198816.86346  23134903.130    23134912.536
  21602133.857   -19094657.17749 -14862591.61847  21602133.784    21602141.249
  21289192.452    -9751149.77049  -7579026.59447  21289192.059    21289200.267
  20249965.488   -25122736.02349 -19560756.84048  20249965.860    20249972.568
 03  3 26 19 46 30.0000000  0  6G17G10G24G 6G 5G30
  23479203.612   -10797216.58949  -8396307.98546  23479203.077    23479215.124
  20983990.138   -20764207.46049 -16157304.87247  20983989.436    20983997.563
  23150837.899     6734034.86249   5264066.44146  23150837.868    23150847.163
  21591542.340   -19150315.72849 -14905961.90447  21591542.256    21591549.748
  21303138.093    -9677865.19049  -7521921.80447  21303137.704    21303145.911
  20251276.044   -25115848.88849 -19555390.26948  20251276.423    20251283.147
 03  3 26 19 47  0.0000000  0  6G17G10G24G 6G 5G30
  23464373.379   -10875149.85049  -8457035.06546  23464372.803    23464384.889
  20982724.252   -20770860.02849 -16162488.68047  20982723.523    20982731.614
  23166783.067     6817826.71949   5329358.73246  23166783.000    23166792.241
  21580976.029   -19205841.94649 -14949229.06547  21580975.931    21580983.426
  21317161.905    -9604169.87649  -7464496.95347  21317161.486    21317169.747
  20252699.115   -25108370.26349 -19549562.79548  20252699.538    20252706.264
 03  3 26 19 47 30.0000000  0  6G17G10G24G 6G 5G30
  23449581.864   -10952879.18449  -8517603.23946  23449581.233    23449593.390
  20981579.561   -20776875.23649 -16167175.84247  20981578.845    20981586.865
  23182738.231     6901671.70449   5394692.42046  23182738.244    23182747.434
  21570434.974   -19261235.32149 -14992392.72547  21570434.879    21570442.361
  21331263.298    -9530066.31549  -7406753.98547  21331262.954    21331271.276
  20254234.823   -25100300.56749 -19543274.74648  20254235.215    20254241.934
 03  3 26 19 48  0.0000000  0  6G17G10G24G 6G 5G30
  23434829.331   -11030403.16449  -8578011.42446  23434828.855    23434840.864
  20980556.324   -20782252.35749 -16171365.80347  20980555.623    20980563.658
  23198703.500     6985568.88149   5460066.76346  23198703.461    23198712.559
  21559919.557   -19316494.26749 -15035451.62347  21559919.449    21559926.924
  21345442.189    -9455556.03049  -7348694.09347  21345441.838    21345450.178
  20255883.091   -25091639.11849 -19536525.59548  20255883.464    20255890.146
 03  3 26 19 48 30.0000000  0  6G17G10G24G 6G 5G30
  23420116.064   -11107721.33949  -8638259.21046  23420115.642    23420127.496
  20979654.496   -20786991.56349 -16175058.68047  20979653.788    20979661.814
  23214678.120     7069515.85949   5525479.89246  23214678.043    23214687.295
  21549429.781   -19371618.08349 -15078405.23447  21549429.740    21549437.173
  21359698.107    -9380641.37849  -7290319.10647  21359697.719    21359705.998
  20257643.801   -25082386.35649 -19529315.68148  20257644.155    20257650.867
 03  3 26 19 49  0.0000000  0  6G17G10G24G 6G 5G30
  23405441.881   -11184834.07549  -8698346.91146  23405441.420    23405453.213
  20978873.920   -20791093.27849 -16178254.81147  20978873.228    20978881.220
  23230661.936     7153510.76049   5590930.37946  23230661.727    23230671.076
  21538965.868   -19426606.34949 -15121253.22147  21538965.794    21538973.227
  21374030.365    -9305325.36649  -7231631.37247  21374029.937    21374038.188
  20259516.904   -25072543.01149 -19521645.56748  20259517.308    20259524.044
 03  3 26 19 49 30.0000000  0  6G17G10G24G 6G 5G30
  23390807.197   -11261739.73649  -8758273.29446  23390806.691    23390818.380
  20978214.871   -20794556.49549 -16180953.41647  20978214.165    20978222.214
  23246654.609     7237552.87049   5656417.66246  23246654.505    23246663.923
  21528528.051   -19481457.40649 -15163994.29147  21528528.020    21528535.461
  21388438.674    -9229609.19949  -7172631.83247  21388438.282    21388446.615
  20261502.594   -25062108.27949 -19513514.63748  20261503.023    20261509.719
 03  3 26 19 50  0.0000000  0  6G17G10G24G 6G 5G30
  23376211.873   -11338438.01249  -8818038.04846  23376211.396    23376223.004
  20977677.446   -20797380.71849 -16183154.10347  20977676.697    20977684.850
  23262655.819     7321640.94349   5721940.74746  23262655.968    23262665.490
  21518116.636   -19536169.93549 -15206627.42447  21518116.588    21518123.988
  21402922.935    -9153494.61249  -7113321.84147  21402922.505    21402930.796
  20263600.895   -25051082.09749 -19504922.83548  20263601.291    20263607.993
 03  3 26 19 50 30.0000000  0  6G17G10G24G 6G 5G30
  23361656.090   -11414928.89949  -8877641.20546  23361655.563    23361667.076
  20977261.469   -20799566.35949 -16184857.19247  20977260.735    20977268.893
  23278665.806     7405773.34849   5787498.39746  23278665.955    23278675.445
  21507731.729   -19590743.15749 -15249152.00747  21507731.647    21507739.044
  21417482.544    -9076984.02149  -7053703.26847  21417482.036    21417490.286
  20265811.655   -25039464.87649 -19495870.47748  20265812.030    20265818.693
 03  3 26 19 51  0.0000000  0  6G17G10G24G 6G 5G30
  23347139.757   -11491212.31049  -8937082.70246  23347139.322    23347150.765
  20976966.941   -20801113.94249 -16186063.09047  20976966.209    20976974.329
  23294683.897     7489947.76349   5853088.76746  23294683.935    23294693.334
  21497373.306   -19645176.83149 -15291567.84747  21497373.238    21497380.658
  21432116.864    -9000080.29849  -6993778.36347  21432116.374    21432124.627
  20268134.716   -25027257.46749 -19486358.24248  20268135.092    20268141.684
 03  3 26 19 51 30.0000000  0  6G17G10G24G 6G 5G30
  23332663.099   -11567286.90449  -8996361.47546  23332662.634    23332674.051
  20976793.879   -20802022.92849 -16186771.38547  20976793.179    20976801.295
  23310709.829     7574162.81149   5918710.79446  23310709.662    23310719.053
  21487041.773   -19699469.44949 -15333873.77047  21487041.681    21487049.115
  21446825.656    -8922785.10849  -6933548.42147  21446825.182    21446833.481
  20270570.093   -25014459.48449 -19476385.81748  20270570.466    20270577.080
 03  3 26 19 52  0.0000000  0  6G17G10G24G 6G 5G30
  23318226.392   -11643152.39649  -9055477.32446  23318225.819    23318237.241
  20976742.393   -20802292.92849 -16186981.76447  20976741.744    20976749.886
  23326743.043     7658417.61449   5984363.80746  23326742.901    23326752.360
  21476737.323   -19753619.59349 -15376068.67247  21476737.254    21476744.694
  21461608.623    -8845100.27549  -6873014.86247  21461608.158    21461616.483
  20273117.925   -25001070.91549 -19465953.19748  20273118.292    20273124.909
 03  3 26 19 52 30.0000000  0  6G17G10G24G 6G 5G30
  23303829.416   -11718808.38649  -9114429.92246  23303828.865    23303840.317
  20976812.564   -20801924.11749 -16186694.36447  20976811.955    20976820.047
  23342783.573     7742710.73849   6050046.68446  23342783.417    23342792.900
  21466460.221   -19807626.21849 -15418151.73747  21466460.129    21466467.600
  21476465.401    -8767027.87349  -6812179.29247  21476464.913    21476473.276
  20275777.993   -24987092.03449 -19455060.58948  20275778.351    20275784.975
 03  3 26 19 53  0.0000000  0  6G17G10G24G 6G 5G30
  23289472.457   -11794254.05749  -9173218.63246  23289471.915    23289483.377
  20977004.369   -20800916.52349 -16185909.20147  20977003.723    20977011.820
  23358831.120     7827040.87849   6115758.40746  23358830.967    23358840.429
  21456210.653   -19861488.04649 -15460121.97547  21456210.594    21456218.031
  21491395.512    -8688569.93949  -6751043.31847  21491395.017    21491403.392
  20278550.415   -24972522.82749 -19443707.98448  20278550.801    20278557.433
 03  3 26 19 53 30.0000000  0  6G17G10G24G 6G 5G30
  23275155.472   -11869489.10649  -9231843.23046  23275155.016    23275166.379
  20977317.689   -20799269.94049 -16184626.13947  20977317.006    20977325.147
  23374885.454     7911406.77849   6181497.97446  23374885.354    23374894.713
  21445988.872   -19915204.09749 -15501978.62147  21445988.801    21445996.207
  21506398.625    -8609728.64049  -6689608.62347  21506398.110    21506406.453
  20281435.178   -24957363.62949 -19431895.65348  20281435.554    20281442.210
 03  3 26 19 54  0.0000000  0  6G17G10G24G 6G 5G30
  23260878.971   -11944512.43949  -9290302.84646  23260878.559    23260889.681
  20977752.707   -20796984.13849 -16182844.98147  20977752.014    20977760.136
  23390946.379     7995806.99749   6247264.29746  23390946.245    23390955.597
  21435795.079   -19968772.86649 -15543720.50547  21435795.028    21435802.339
  21521474.297    -8530505.64149  -6627876.49247  21521473.774    21521482.115
  20284432.199   -24941614.29049 -19419623.46748  20284432.549    20284439.231
 03  3 26 19 54 30.0000000  0  6G17G10G24G 6G 5G30
  23246642.760   -12019324.53949  -9348597.87346  23246642.274    23246653.216
  20978309.143   -20794060.30949 -16180566.65647  20978308.429    20978316.519
  23407013.230     8080239.36149   6313055.64946  23407013.083    23407022.618
  21425629.477   -20022193.97849 -15585347.32547  21425629.385    21425636.683
  21536621.955    -8450904.23749  -6565849.50547  21536621.457    21536629.866
  20287541.263   -24925276.04649 -19406892.38948  20287541.617    20287548.356
 03  3 26 19 55  0.0000000  0  6G17G10G24G 6G 5G30
  23232446.806   -12093924.73149  -9406727.76746  23232446.292    23232457.140
  20978987.020   -20790497.87649 -16177790.72847  20978986.330    20978994.391
  23423086.043     8164702.93849   6378871.33646  23423085.945    23423095.578
  21415492.105   -20075465.96949 -15626857.95147  21415492.033    21415499.339
  21551841.213    -8370926.24349  -6503529.07447  21551840.791    21551849.252
  20290762.415   -24908348.69249 -19393702.27348  20290762.787    20290769.555
 03  3 26 19 55 30.0000000  0  6G17G10G24G 6G 5G30
  23218291.176   -12168312.21349  -9464691.92146  23218290.742    23218301.652
  20979786.471   -20786296.68149 -16174517.05947  20979785.796    20979793.822
  23439164.800     8249196.91049   6444710.72446  23439164.654    23439174.372
  21405383.443   -20128587.28649 -15668251.17147  21405383.361    21405390.671
  21567131.939    -8290573.34449  -6440916.50447  21567131.515    21567140.019
  20294095.721   -24890832.27949 -19380053.14748  20294096.090    20294102.886
 03  3 26 19 56  0.0000000  0  6G17G10G24G 6G 5G30
  23204176.327   -12242486.40649  -9522489.87946  23204175.844    23204186.742
  20980707.444   -20781457.15149 -16170745.98947  20980706.739    20980714.766
  23455248.902     8333719.34849   6510572.26146  23455248.749    23455258.510
  21395303.621   -20181556.97549 -15709526.23947  21395303.510    21395310.854
  21582493.590    -8209847.70149  -6378013.48347  21582493.121    21582501.682
  20297541.023   -24872727.19649 -19365945.31448  20297541.384    20297548.214
 03  3 26 19 56 30.0000000  0  6G17G10G24G 6G 5G30
  23190101.987   -12316447.06949  -9580121.46646  23190101.567    23190112.303
  20981749.699   -20775979.85549 -16166477.96447  20981749.027    20981757.044
  23471338.149     8418268.87849   6576454.92346  23471338.080    23471347.846
  21385252.724   -20234374.26849 -15750682.55447  21385252.648    21385259.994
  21597925.557    -8128752.09049  -6314822.17447  21597925.108    21597933.728
  20301098.170   -24854034.29549 -19351379.44248  20301098.532    20301105.366
 03  3 26 19 57  0.0000000  0  6G17G10G24G 6G 5G30
  23176068.295   -12390193.84149  -9637586.36046  23176067.892    23176078.574
  20982913.363   -20769865.05849 -16161713.18047  20982912.692    20982920.602
  23487432.564     8502844.35949   6642357.80746  23487432.389    23487442.139
  21375231.114   -20287038.29749 -15791719.44647  21375231.026    21375238.328
  21613427.532    -8047289.01949  -6251344.53847  21613427.086    21613435.721
  20304767.124   -24834754.11049 -19336355.94748  20304767.492    20304774.286
 03  3 26 19 57 30.0000000  0  6G17G10G24G 6G 5G30
  23162075.336   -12463726.78649  -9694884.63946  23162074.950    23162085.616
  20984198.279   -20763113.04349 -16156451.86547  20984197.592    20984205.474
  23503531.564     8587444.16549   6708279.64146  23503531.224    23503541.068
  21365238.813   -20339547.73949 -15832635.87347  21365238.763    21365246.068
  21628999.025    -7965460.54349  -6187582.16647  21628998.576    21629007.223
  20308547.745   -24814887.09449 -19320875.17848  20308548.115    20308554.875
 03  3 26 19 58  0.0000000  0  6G17G10G24G 6G 5G30
  23148123.181   -12537044.82649  -9752015.48546  23148122.858    23148133.567
  20985604.276   -20755723.89649 -16150694.09547  20985603.619    20985611.537
  23519634.810     8672067.38449   6774219.70045  23519634.525    23519644.376
  21355276.256   -20391900.95449 -15873430.57247  21355276.210    21355283.534
  21644639.694    -7883268.46849  -6123536.48647  21644639.238    21644647.873
  20312440.012   -24794433.13949 -19304937.06048  20312440.400    20312447.148
 03  3 26 19 58 30.0000000  0  6G17G10G24G 6G 5G30
  23134212.151   -12610147.50349  -9808978.51346  23134211.769    23134222.365
  20987131.619   -20747697.72449 -16144439.93947  20987130.962    20987138.877
  23535742.127     8756712.60149   6840176.92945  23535742.025    23535751.780
  21345343.682   -20444096.72149 -15914102.58347  21345343.616    21345351.011
  21660349.191    -7800715.06149  -6059209.24647  21660348.722    21660357.345
  20316443.874   -24773392.85849 -19288542.06748  20316444.228    20316450.961
 03  3 26 19 59  0.0000000  0  6G17G10G24G 6G 5G30
  23120342.128   -12683034.21749  -9865773.24646  23120341.751    23120352.417
  20988780.145   -20739034.94049 -16137689.71347  20988779.430    20988787.285
  23551853.482     8841378.77049   6906150.46545  23551853.431    23551863.256
  21335441.281   -20496133.98049 -15954651.08247  21335441.212    21335448.660
  21676127.028    -7717802.52449  -5994602.15447  21676126.559    21676135.150
  20320559.223   -24751766.73049 -19271690.56548  20320559.589    20320566.296
 03  3 26 19 59 30.0000000  0  6G17G10G24G 6G 5G30
  23106513.407   -12755704.43249  -9922399.28546  23106512.955    23106523.792
  20990549.750   -20729735.54549 -16130443.43247  20990549.045    20990556.912
  23567968.928     8926065.24449   6972139.82946  23567968.844    23567978.632
  21325569.444   -20548011.01249 -15995074.73247  21325569.375    21325576.818
  21691972.795    -7634532.61349  -5929716.58947  21691972.380    21691980.980
  20324786.011   -24729554.90749 -19254382.68548  20324786.373    20324793.083
 03  3 26 20  0  0.0000000  0  6G17G10G24G 6G 5G30
  23092725.377   -12828160.60449  -9978858.55446  23092724.849    23092735.795
  20992439.873   -20719802.96849 -16122703.76347  20992439.167    20992447.026
  23584087.383     9010766.97449   7038141.08946  23584087.136    23584096.979
  21315727.703   -20599729.68149 -16035374.98747  21315727.649    21315735.015
  21707885.574    -7550910.89149  -5864556.89047  21707885.153    21707893.797
  20329123.560   -24706760.92849 -19236621.17748  20329123.911    20329130.670
 03  3 26 20  0 30.0000000  0  6G17G10G24G 6G 5G30
  23078978.547   -12900400.35849 -10035149.17446  23078978.026    23078988.964
  20994450.729   -20709235.89549 -16114469.67847  20994450.025    20994457.882
  23600208.776     9095485.08549   7104155.10246  23600208.566    23600218.449
  21305916.748   -20651286.74449 -16075549.31447  21305916.691    21305924.036
  21723865.281    -7466937.58149  -5799123.23047  21723864.821    21723873.507
  20333572.117   -24683383.34749 -19218404.90948  20333572.481    20333579.319
 03  3 26 20  1  0.0000000  0  6G17G10G24G 6G 5G30
  23065272.764   -12972423.82649 -10091271.27246  23065272.334    23065283.324
  20996582.249   -20698034.75949 -16105741.52747  20996581.529    20996589.402
  23616333.116     9180217.89949   7170180.57846  23616332.863    23616342.714
  21296136.652   -20702681.36249 -16115597.05847  21296136.591    21296143.912
  21739911.337    -7382615.12949  -5733417.50747  21739910.903    21739919.615
  20338131.596   -24659423.16749 -19199734.67048  20338131.984    20338138.830
 03  3 26 20  1 30.0000000  0  6G17G10G24G 6G 5G30
  23051608.298   -13044229.33949 -10147223.54246  23051608.024    23051619.052
  20998834.552   -20686198.70249 -16096518.63047  20998833.840    20998841.753
  23632460.423     9264965.33949   7236217.45246  23632460.038    23632469.811
  21286387.975   -20753911.02249 -16155516.26647  21286387.910    21286395.232
  21756023.622    -7297944.53849  -5667440.50647  21756023.258    21756031.932
  20342802.137   -24634879.52549 -19180609.79148  20342802.521    20342809.325
 03  3 26 20  2  0.0000000  0  6G17G10G24G 6G 5G30
  23037985.688   -13115816.62549 -10203005.77246  23037985.444    23037996.404
  21001207.494   -20673728.42849 -16086801.53347  21001206.807    21001214.762
  23648590.091     9349726.54449   7302265.03946  23648589.692    23648599.514
  21276670.912   -20804974.42949 -16195305.93047  21276670.867    21276678.189
  21772201.730    -7212928.37349  -5601194.22947  21772201.309    21772210.047
  20347583.586   -24609753.30149 -19161030.95348  20347583.951    20347590.690
 03  3 26 20  2 30.0000000  0  6G17G10G24G 6G 5G30
  23024404.871   -13187185.32949 -10258617.65846  23024404.407    23024415.323
  21003700.961   -20660625.06949 -16076591.12847  21003700.291    21003708.273
  23664721.878     9434499.44949   7368321.75945  23664721.564    23664731.367
  21266985.607   -20855871.06849 -16234965.64447  21266985.582    21266992.882
  21788445.005    -7127569.53849  -5534680.94447  21788444.594    21788453.351
  20352475.570   -24584045.67149 -19140999.06748  20352475.914    20352482.699
 03  3 26 20  3  0.0000000  0  6G17G10G24G 6G 5G30
  23010865.248   -13258335.38249 -10314059.17746  23010864.830    23010875.766
  21006314.801   -20646889.23949 -16065887.88947  21006314.131    21006322.099
  23680855.627     9519282.79949   7434386.61246  23680855.385    23680865.224
  21257332.335   -20906599.86549 -16274494.56147  21257332.235    21257339.544
  21804753.042    -7041870.59449  -5467902.63147  21804752.594    21804761.457
  20357478.043   -24557757.56649 -19120514.86948  20357478.421    20357485.189
 03  3 26 20  3 30.0000000  0  6G17G10G24G 6G 5G30
  22997367.478   -13329266.38049 -10369330.00746  22997367.014    22997377.908
  21009048.966   -20632520.97849 -16054691.84147  21009048.309    21009056.296
  23696991.161     9604076.13249   7500459.23946  23696990.984    23697000.991
  21247711.208   -20957158.76249 -16313891.09047  21247711.156    21247718.492
  21821125.486    -6955833.11349  -5400860.53647  21821125.069    21821133.971
  20362591.010   -24530889.02949 -19099578.38148  20362591.361    20362598.125
 03  3 26 20  4  0.0000000  0  6G17G10G24G 6G 5G30
  22983911.595   -13399977.42449 -10424429.44646  22983911.149    22983921.957
  21011903.312   -20617521.18349 -16043003.69647  21011902.663    21011910.673
  23713128.343     9688877.85949   7566538.40245  23713128.233    23713138.404
  21238122.652   -21007546.82049 -16353154.50547  21238122.624    21238129.972
  21837561.971    -6869459.66649  -5333556.64047  21837561.500    21837570.347
  20367814.228   -24503440.83649 -19078190.21748  20367814.615    20367821.393
 03  3 26 20  4 30.0000000  0  6G17G10G24G 6G 5G30
  22970497.257   -13470469.78749 -10479358.48346  22970496.826    22970507.622
  21014877.541   -20601891.34749 -16030824.61447  21014876.924    21014884.964
  23729266.820     9773685.84849   7632622.44745  23729266.680    23729276.947
  21228566.717   -21057763.56749 -16392284.42247  21228566.689    21228574.083
  21854061.700    -6782753.45749  -5265993.46347  21854061.238    21854070.013
  20373147.465   -24475414.86249 -19056351.83248  20373147.863    20373154.615
 03  3 26 20  5  0.0000000  0  6G17G10G24G 6G 5G30
  22957124.767   -13540742.20549 -10534116.13046  22957124.403    22957135.062
  21017971.658   -20585631.76949 -16018154.82547  21017971.021    21017979.082
  23745406.535     9858499.99949   7698711.28745  23745406.437    23745416.604
  21219043.721   -21107807.16849 -16431279.42647  21219043.682    21219051.111
  21870624.495    -6695716.24549  -5198172.35847  21870624.012    21870632.770
  20378590.630   -24446811.06549 -19034063.19548  20378591.005    20378597.786
 03  3 26 20  5 30.0000000  0  6G17G10G24G 6G 5G30
  22943794.266   -13610794.49149 -10588702.24846  22943793.902    22943804.458
  21021185.467   -20568743.39549 -16004995.05847  21021184.816    21021192.893
  23761547.009     9943318.29249   7764803.35745  23761546.973    23761557.032
  21209553.817   -21157676.82249 -16470138.88247  21209553.772    21209561.209
  21887249.664    -6608350.70749  -5130095.41347  21887249.173    21887257.973
  20384143.505   -24417630.88849 -19011325.42848  20384143.881    20384150.667
 03  3 26 20  6  0.0000000  0  6G17G10G24G 6G 5G30
  22930505.785   -13680626.49349 -10643116.72246  22930505.312    22930515.789
  21024518.854   -20551226.81549 -15991345.78347  21024518.149    21024526.179
  23777688.129    10028139.84949   7830897.96245  23777688.059    23777698.073
  21200097.288   -21207371.02949 -16508861.63047  21200097.238    21200104.693
  21903936.891    -6520659.15849  -5061764.43447  21903936.380    21903945.163
  20389805.896   -24387875.02849 -18988139.07848  20389806.251    20389813.103
 03  3 26 20  6 30.0000000  0  6G17G10G24G 6G 5G30
  22917259.000   -13750238.22449 -10697359.54746  22917258.552    22917269.022
  21027971.440   -20533083.22649 -15977207.92747  21027970.699    21027978.793
  23793829.540    10112962.78849   7896993.65145  23793829.425    23793839.478
  21190674.402   -21256889.00549 -16547447.05747  21190674.351    21190681.759
  21920685.572    -6432644.36249  -4993181.57647  21920685.126    21920693.910
  20395577.549   -24357544.75849 -18964505.14148  20395577.925    20395584.804
 03  3 26 20  7  0.0000000  0  6G17G10G24G 6G 5G30
  22904054.430   -13819628.57749 -10751429.87246  22904053.983    22904064.400
  21031543.420   -20514312.23649 -15962581.18647  21031542.726    21031550.847
  23809971.125    10197787.35049   7963090.59745  23809971.079    23809981.219
  21181285.437   -21306228.24149 -16585893.19947  21181285.371    21181292.836
  21937495.546    -6344307.46749  -4924347.73047  21937495.088    21937504.001
  20401458.681   -24326639.78549 -18940423.38248  20401459.004    20401465.846
 03  3 26 20  7 30.0000000  0  6G17G10G24G 6G 5G30
  22890892.029   -13888797.31249 -10805327.50946  22890891.556    22890902.027
  21035234.549   -20494915.30149 -15947466.68947  21035233.801    21035241.924
  23826112.740    10282611.87549   8029187.52145  23826112.705    23826122.977
  21171930.646   -21355388.04649 -16624199.53447  21171930.568    21171938.081
  21954366.275    -6255651.48749  -4855265.25647  21954365.819    21954374.838
  20407448.787   -24295161.59149 -18915894.95948  20407449.137    20407455.980
 03  3 26 20  8  0.0000000  0  6G17G10G24G 6G 5G30
  22877771.688   -13957744.75049 -10859052.70946  22877771.249    22877781.735
  21039044.569   -20474893.57049 -15931865.34547  21039043.823    21039051.904
  23842254.133    10367434.68149   8095283.09545  23842254.031    23842264.343
  21162610.077   -21404367.57249 -16662365.38547  21162610.010    21162617.566
  21971297.167    -6166679.33849  -4785936.41947  21971296.707    21971305.797
  20413547.735   -24263111.51849 -18890920.91248  20413548.075    20413554.925
 03  3 26 20  8 30.0000000  0  6G17G10G24G 6G 5G30
  22864693.606   -14026470.16649 -10912604.89246  22864693.222    22864703.614
  21042973.293   -20454248.20849 -15915778.05247  21042972.513    21042980.608
  23858394.983    10452254.68549   8161376.48445  23858394.747    23858405.277
  21153324.082   -21453165.26049 -16700389.54147  21153324.069    21153331.664
  21988287.910    -6077393.25249  -4716362.94547  21988287.435    21988296.509
  20419755.324   -24230490.30449 -18865501.82048  20419755.667    20419762.557
 03  3 26 20  9  0.0000000  0  6G17G10G24G 6G 5G30
  22851657.844   -14094973.35049 -10965983.91146  22851657.467    22851667.883
  21047020.568   -20432979.36449 -15899204.93147  21047019.841    21047027.892
  23874535.062    10537071.95549   8227467.74045  23874534.883    23874545.631
  21144073.101   -21501779.50649 -16738270.76447  21144073.083    21144080.684
  22005337.947    -5987795.32349  -4646546.48547  22005337.452    22005346.626
  20426071.469   -24197298.62549 -18839638.21948  20426071.825    20426078.736
 03  3 26 20  9 30.0000000  0  6G17G10G24G 6G 5G30
  22838664.412   -14163254.28649 -11019189.75346  22838664.002    22838674.432
  21051186.301   -20411088.43149 -15882147.07047  21051185.577    21051193.536
  23890674.350    10621884.40749   8293555.23245  23890674.130    23890685.086
  21134857.207   -21550209.56149 -16776008.45847  21134857.173    21134864.734
  22022446.748    -5897888.53449  -4576489.35647  22022446.217    22022455.487
  20432495.884   -24163538.14049 -18813331.39148  20432496.257    20432503.175
 03  3 26 20 10  0.0000000  0  6G17G10G24G 6G 5G30
  22825713.255   -14231313.00149 -11072222.43746  22825712.768    22825723.109
  21055470.157   -20388576.31949 -15864605.16547  21055469.492    21055477.409
  23906812.507    10706690.89049   8359638.09245  23906812.408    23906823.311
  21125676.554   -21598454.03949 -16813601.54047  21125676.509    21125684.131
  22039613.763    -5807675.23949  -4506193.38747  22039613.293    22039622.621
  20439028.369   -24129209.67949 -18786581.98048  20439028.755    20439035.710
 03  3 26 20 10 30.0000000  0  6G17G10G24G 6G 5G30
  22812804.474   -14299148.54849 -11125081.23146  22812803.995    22812814.310
  21059872.061   -20365444.02449 -15846580.00347  21059871.424    21059879.377
  23922949.500    10791490.60949   8425715.68145  23922949.416    23922960.194
  21116531.500   -21646511.51549 -16851048.90947  21116531.479    21116539.090
  22056838.755    -5717157.65849  -4435660.32647  22056838.298    22056847.640
  20445668.800   -24094314.21649 -18759390.75948  20445669.198    20445676.165
 03  3 26 20 11  0.0000000  0  6G17G10G24G 6G 5G30
  22799938.150   -14366760.77349 -11177766.00546  22799937.732    22799948.048
  21064391.878   -20341692.28449 -15828072.16347  21064391.236    21064399.239
  23939084.885    10876282.54649   8491787.20145  23939084.856    23939095.544
  21107422.375   -21694380.17949 -16888349.15447  21107422.376    21107429.952
  22074121.242    -5626337.91949  -4364891.80647  22074120.834    22074130.188
  20452416.917   -24058852.46849 -18731758.27148  20452417.336    20452424.365
 03  3 26 20 11 30.0000000  0  6G17G10G24G 6G 5G30
  22787114.351   -14434150.16349 -11230277.13246  22787113.850    22787124.229
  21069029.143   -20317323.09049 -15809083.19147  21069028.535    21069036.543
  23955218.459    10961064.57149   8557851.00245  23955218.458    23955229.053
  21098349.304   -21742059.61149 -16925501.94347  21098349.307    21098356.863
  22091460.614    -5535219.45949  -4293890.52246  22091460.141    22091469.520
  20459272.377   -24022826.53349 -18703686.15848  20459272.840    20459279.883
 03  3 26 20 12  0.0000000  0  6G17G10G24G 6G 5G30
  22774332.957   -14501315.81749 -11282613.93846  22774332.548    22774342.868
  21073784.029   -20292336.64149 -15789613.23847  21073783.363    21073791.371
  23971350.313    11045836.75949   8623907.12745  23971350.199    23971360.710
  21089312.695   -21789547.53649 -16962505.51147  21089312.663    21089320.163
  22108856.536    -5443803.93749  -4222657.76746  22108856.067    22108865.401
  20466235.273   -23986236.59549 -18675174.56748  20466235.720    20466242.753
 03  3 26 20 12 30.0000000  0  6G17G10G24G 6G 5G30
  22761594.302   -14568257.75749 -11334776.42346  22761593.847    22761604.152
  21078656.009   -20266734.43549 -15769663.48547  21078655.310    21078663.380
  23987479.949    11130597.66449   8689954.46645  23987479.803    23987490.223
  21080312.683   -21836843.11849 -16999359.19647  21080312.623    21080320.099
  22126308.341    -5352094.40949  -4151195.90546  22126307.866    22126317.191
  20473305.089   -23949084.35749 -18646224.80948  20473305.536    20473312.661
 03  3 26 20 13  0.0000000  0  6G17G10G24G 6G 5G30
  22748898.195   -14634975.57249 -11386764.24246  22748897.756    22748908.167
  21083644.998   -20240517.22149 -15749234.49147  21083644.307    21083652.389
  24003607.135    11215346.50449   8755992.40945  24003607.028    24003617.531
  21071349.576   -21883944.78849 -17036061.78147  21071349.468    21071356.919
  22143815.624    -5260092.94849  -4079506.56846  22143815.156    22143824.484
  20480481.738   -23911370.80849 -18616837.66948  20480482.227    20480489.398
 03  3 26 20 13 30.0000000  0  6G17G10G24G 6G 5G30
  22736244.940   -14701468.70049 -11438577.00546  22736244.506    22736254.896
  21088750.843   -20213685.95749 -15728327.02347  21088750.162    21088758.225
  24019732.006    11300082.74149   8822020.52345  24019731.965    24019742.364
  21062423.613   -21930850.98249 -17072612.05747  21062423.518    21062430.957
  22161378.093    -5167801.55049  -4007591.30946  22161377.687    22161387.037
  20487765.190   -23873096.65149 -18587013.69748  20487765.615    20487772.792
 03  3 26 20 14  0.0000000  0  6G17G10G24G 6G 5G30
  22723634.205   -14767737.79449 -11490215.19646  22723633.796    22723644.207
  21093973.183   -20186242.59049 -15706942.59447  21093972.467    21093980.496
  24035854.162    11384804.39749   8888037.27545  24035854.044    24035864.482
  21053534.963   -21977561.16349 -17109009.59447  21053534.871    21053542.261
  22178995.216    -5075223.39249  -3935452.60246  22178994.811    22179004.209
  20495154.802   -23834263.97149 -18556754.51047  20495155.229    20495162.397
 03  3 26 20 14 30.0000000  0  6G17G10G24G 6G 5G30
  22711066.266   -14833782.33149 -11541678.41646  22711065.857    22711076.266
  21099311.782   -20158188.00349 -15685081.89147  21099311.101    21099319.149
  24051973.271    11469510.82749   8954042.16645  24051973.215    24051983.647
  21044683.922   -22024073.34849 -17145252.85047  21044683.848    21044691.230
  22196666.506    -4982360.98749  -3863092.40646  22196666.058    22196675.514
  20502650.646   -23794873.61749 -18526060.78147  20502651.050    20502658.169
 03  3 26 20 15  0.0000000  0  6G17G10G24G 6G 5G30
  22698541.189   -14899602.28549 -11592966.63546  22698540.787    22698551.090
  21104766.393   -20129523.54849 -15662745.97347  21104765.725    21104773.819
  24068089.308    11554200.97849   9020034.37145  24068089.169    24068099.699
  21035870.775   -22070386.45449 -17181340.97447  21035870.730    21035878.151
  22214391.337    -4889216.95149  -3790512.75346  22214390.907    22214400.390
  20510252.233   -23754927.09949 -18494933.66647  20510252.638    20510259.784
 03  3 26 20 15 30.0000000  0  6G17G10G24G 6G 5G30
  22686058.862   -14965197.65549 -11644079.85346  22686058.388    22686068.623
  21110336.892   -20100250.78549 -15639936.03847  21110336.188    21110344.263
  24084202.010    11638873.31649   9086012.67445  24084201.824    24084212.581
  21027095.681   -22116499.61249 -17217273.28947  21027095.635    21027103.108
  22232169.234    -4795794.03949  -3717715.79646  22232168.779    22232178.302
  20517959.438   -23714426.15249 -18463374.53148  20517959.832    20517966.947
 03  3 26 20 16  0.0000000  0  6G17G10G24G 6G 5G30
  22673619.264   -15030568.34749 -11695018.00346  22673618.770    22673628.986
  21116022.890   -20070370.96749 -15616653.08347  21116022.142    21116030.258
  24100311.422    11723526.92749   9151976.41745  24100311.031    24100321.804
  21018358.959   -22162411.19449 -17253048.53747  21018358.923    21018366.399
  22249999.755    -4702094.74949  -3644703.48046  22249999.296    22250008.763
  20525771.873   -23673371.84049 -18431384.20348  20525772.263    20525779.390
 03  3 26 20 16 30.0000000  0  6G17G10G24G 6G 5G30
  22661222.389   -15095714.13449 -11745780.89046  22661221.833    22661232.084
  21121824.115   -20039885.09149 -15592897.86847  21121823.366    21121831.504
  24116416.838    11808161.13249   9217925.03545  24116416.492    24116427.326
  21009660.954   -22208119.57749 -17288665.44847  21009660.904    21009668.369
  22267882.380    -4608121.22649  -3571477.46746  22267881.926    22267891.480
  20533689.382   -23631765.25549 -18398963.53347  20533689.762    20533696.892
 03  3 26 20 17  0.0000000  0  6G17G10G24G 6G 5G30
  22648868.520   -15160633.77549 -11796367.57646  22648868.025    22648878.252
  21127740.603   -20008793.75149 -15568670.86747  21127739.860    21127748.001
  24132518.632    11892775.80249   9283858.43045  24132518.225    24132529.214
  21001002.035   -22253622.58949 -17324122.33547  21001001.969    21001009.430
  22285816.773    -4513875.30349  -3498039.20846  22285816.390    22285825.960
  20541711.876   -23589607.02449 -18366113.01947  20541712.248    20541719.366
 03  3 26 20 17 30.0000000  0  6G17G10G24G 6G 5G30
  22636557.601   -15225328.37149 -11846778.89546  22636557.088    22636567.231
  21133771.742   -19977099.55549 -15543974.10147  21133771.035    21133779.217
  24148616.395    11977368.78049   9349774.90045  24148615.961    24148626.950
  20992382.233   -22298919.96249 -17359418.97647  20992382.196    20992389.637
  22303802.386    -4419360.63949  -3424391.53846  22303802.049    22303811.655
  20549838.809   -23546899.57149 -18332834.52647  20549839.202    20549846.357
 03  3 26 20 18  0.0000000  0  6G17G10G24G 6G 5G30
  22624289.545   -15289797.89049 -11897014.83946  22624288.971    22624299.031
  21139917.341   -19944804.00349 -15518808.76047  21139916.690    21139924.867
  24164709.652    12061938.89649   9415673.55945  24164709.140    24164720.191
  20983801.813   -22344010.53049 -17394554.47447  20983801.756    20983809.176
  22321838.688    -4324580.15949  -3350536.73046  22321838.313    22321847.905
  20558069.969   -23503644.80649 -18299129.56547  20558070.344    20558077.515
 03  3 26 20 18 30.0000000  0  6G17G10G24G 6G 5G30
  22612064.318   -15354041.16649 -11947074.48446  22612063.774    22612073.832
  21146177.421   -19911907.27049 -15493174.95347  21146176.737    21146184.895
  24180798.674    12146486.31349   9481554.54945  24180798.242    24180808.969
  20975261.231   -22388891.69049 -17429526.79847  20975261.159    20975268.586
  22339925.274    -4229534.99849  -3276475.68546  22339924.832    22339934.531
  20566405.244   -23459842.79349 -18264998.17647  20566405.644    20566412.817
 03  3 26 20 19  0.0000000  0  6G17G10G24G 6G 5G30
  22599882.164   -15418058.13449 -11996957.78746  22599881.728    22599891.748
  21152551.590   -19878410.79149 -15467073.82747  21152550.914    21152559.110
  24196883.037    12231010.51149   9547417.43545  24196882.757    24196893.419
  20966760.785   -22433562.04349 -17464334.86447  20966760.683    20966768.101
  22358061.672    -4134227.88449  -3202210.53446  22358061.266    22358071.019
  20574844.372   -23415495.14149 -18230441.61347  20574844.771    20574851.983
 03  3 26 20 19 30.0000000  0  6G17G10G24G 6G 5G30
  22587743.335   -15481848.14949 -12046664.24646  22587742.861    22587752.827
  21159039.714   -19844315.79449 -15440506.31447  21159039.042    21159047.214
  24212962.854    12315510.66549   9613261.56845  24212962.664    24212973.377
  20958300.768   -22478019.87649 -17498977.32547  20958300.660    20958308.062
  22376247.497    -4038660.93049  -3127742.90246  22376247.116    22376256.928
  20583387.164   -23370602.77149 -18195460.59647  20583387.547    20583394.791
 03  3 26 20 20  0.0000000  0  6G17G10G24G 6G 5G30
  22575647.395   -15545412.31349 -12096194.70546  22575646.865    22575656.923
  21165641.187   -19809625.23949 -15413474.71947  21165640.492    21165648.620
  24229037.800    12399984.51549   9679085.22745  24229037.517    24229048.301
  20949881.151   -22522265.25949 -17533454.24547  20949881.039    20949888.423
  22394481.970    -3942838.21649  -3053075.96446  22394481.603    22394491.515
  20592033.080   -23325168.67249 -18160057.44747  20592033.422    20592040.652
 03  3 26 20 20 30.0000000  0  6G17G10G24G 6G 5G30
  22563594.570   -15608749.61049 -12145548.38746  22563594.109    22563604.238
  21172355.855   -19774339.52549 -15385979.37547  21172355.134    21172363.312
  24245107.629    12484431.78849   9744888.17545  24245107.371    24245118.122
  20941502.417   -22566295.94449 -17567763.86247  20941502.290    20941509.657
  22412764.850    -3846761.24049  -2978210.91046  22412764.486    22412774.512
  20600781.938   -23279193.51349 -18124232.69847  20600782.265    20600789.452
 03  3 26 20 21  0.0000000  0  6G17G10G24G 6G 5G30
  22551584.921   -15671861.13549 -12194726.14946  22551584.403    22551594.440
  21179183.253   -19738461.21649 -15358022.27547  21179182.547    21179190.759
  24261172.157    12568850.83149   9810669.11745  24261171.900    24261182.568
  20933164.615   -22610111.06549 -17601905.51347  20933164.512    20933171.886
  22431095.589    -3750433.48849  -2903150.45746  22431095.125    22431105.219
  20609633.282   -23232679.52249 -18087988.08147  20609633.648    20609640.801
 03  3 26 20 21 30.0000000  0  6G17G10G24G 6G 5G30
  22539618.114   -15734746.97049 -12243728.03146  22539617.548    22539627.585
  21186123.077   -19701992.11349 -15329604.81147  21186122.363    21186130.576
  24277230.960    12653240.45849   9876427.12945  24277230.792    24277241.533
  20924868.056   -22653709.53949 -17635878.34547  20924867.966    20924875.373
  22449473.570    -3653857.71649  -2827896.73846  22449473.063    22449483.208
  20618586.783   -23185628.61449 -18051325.08947  20618587.159    20618594.308
 03  3 26 20 22  0.0000000  0  6G17G10G24G 6G 5G30
  22527694.424   -15797406.05549 -12292553.24246  22527693.832    22527703.898
  21193175.291   -19664932.50249 -15300727.21547  21193174.600    21193182.755
  24293284.225    12737600.98249   9942162.45945  24293284.079    24293294.887
  20916613.226   -22697088.85849 -17669680.41447  20916613.140    20916620.604
  22467898.462    -3557035.56149  -2752451.03746  22467897.868    22467908.013
  20627642.373   -23138041.26349 -18014244.08947  20627642.740    20627649.918
 03  3 26 20 22 30.0000000  0  6G17G10G24G 6G 5G30
  22515813.991   -15859837.32049 -12341200.92146  22515813.487    22515823.582
  21200339.731   -19627283.30949 -15271390.19247  21200339.061    21200347.159
  24309331.574    12821932.33749  10007875.07945  24309331.660    24309342.535
  20908400.467   -22740247.01249 -17703310.14247  20908400.376    20908407.853
  22486369.798    -3459968.78449  -2676814.73346  22486369.160    22486379.287
  20636799.921   -23089918.42949 -17976745.83147  20636800.240    20636807.455
 03  3 26 20 23  0.0000000  0  6G17G10G24G 6G 5G30
  22503976.901   -15922041.80849 -12389671.88946  22503976.381    22503986.377
  21207615.803   -19589047.19849 -15241595.83447  21207615.144    21207623.241
  24325373.526    12906232.42749  10073563.34045  24325373.364    24325384.279
  20900229.900   -22783183.55449 -17736767.19047  20900229.842    20900237.263
  22504886.771    -3362660.95849  -2600990.58146  22504886.261    22504896.433
  20646058.724   -23041262.78949 -17938832.40047  20646059.081    20646066.363
 03  3 26 20 23 30.0000000  0  6G17G10G24G 6G 5G30
  22492182.719   -15984020.79549 -12437967.14646  22492182.196    22492192.026
  21215002.998   -19550227.09749 -15211346.41647  21215002.369    21215010.428
  24341409.174    12990499.19049  10139225.59845  24341409.093    24341419.842
  20892101.633   -22825898.24149 -17770051.35847  20892101.539    20892108.912
  22523448.983    -3265116.09549  -2524981.74146  22523448.541    22523458.680
  20655418.503   -22992077.16849 -17900505.99547  20655418.871    20655426.143
 03  3 26 20 24  0.0000000  0  6G17G10G24G 6G 5G30
  22480431.664   -16045772.66349 -12486085.42246  22480431.172    22480440.952
  21222501.358   -19510823.18049 -15180642.08547  21222500.688    21222508.674
  24357438.610    13074733.25749  10204862.37345  24357438.496    24357449.267
  20884016.012   -22868388.25949 -17803160.46147  20884015.927    20884023.320
  22542056.077    -3167335.25449  -2448789.02446  22542055.719    22542065.773
  20664879.061   -22942361.71149 -17861766.73447  20664879.402    20664886.688
 03  3 26 20 24 30.0000000  0  7G17G10G24G 6G 5G30G29
  22468722.574   -16107303.39349 -12534031.38546  22468722.157    22468731.944
  21230109.309   -19470843.20349 -15149488.87947  21230108.641    21230116.641
  24373460.263    13158928.00349  10270468.54345  24373460.274    24373471.365
  20875972.295   -22910658.06749 -17836097.97247  20875972.215    20875979.648
  22560706.593    -3069327.11249  -2372419.17246  22560706.198    22560716.170
  20674438.981   -22892124.26549 -17822620.73147  20674439.323    20674446.614
  24642564.175    -4860694.58849  -3766757.86345  24642564.478    24642579.884
 03  3 26 20 25  0.0000000  0  7G17G10G24G 6G 5G30G29
  22457057.338   -16168604.30149 -12581798.27646  22457056.993    22457066.759
  21237828.205   -19430280.24549 -15117881.40347  21237827.548    21237835.588
  24389476.107    13243091.14149  10336050.07545  24389476.047    24389487.355
  20867972.483   -22952697.54249 -17868856.00247  20867972.403    20867979.850
  22579401.515    -2971085.57249  -2295867.48546  22579401.066    22579410.967
  20684099.674   -22841357.73749 -17783062.45447  20684100.005    20684107.266
  24629047.585    -4931724.34349  -3822105.45745  24629047.795    24629063.234
 03  3 26 20 25 30.0000000  0  7G17G10G24G 6G 5G30G29
  22445435.755   -16229676.37949 -12629386.84547  22445435.318    22445445.130
  21245657.577   -19389136.82449 -15085821.62347  21245656.888    21245664.987
  24405485.865    13327221.05649  10401605.72445  24405485.583    24405496.941
  20860016.551   -22994506.02749 -17901434.03747  20860016.501    20860023.967
  22598140.087    -2872614.08849  -2219136.59746  22598139.664    22598149.612
  20693860.494   -22790064.67649 -17743093.89147  20693860.798    20693868.076
  24615547.435    -5002666.11849  -3877384.50745  24615547.801    24615563.016
 03  3 26 20 26  0.0000000  0  7G17G10G24G 6G 5G30G29
  22433857.305   -16290520.92549 -12676798.12747  22433856.894    22433866.783
  21253596.730   -19347416.41849 -15053312.24747  21253596.051    21253604.100
  24421488.620    13411315.03749  10467133.36045  24421488.335    24421499.626
  20852104.545   -23036083.88649 -17933832.36547  20852104.478    20852111.920
  22616921.638    -2773917.00049  -2142229.92646  22616921.261    22616931.226
  20703720.689   -22738248.77749 -17702717.92247  20703721.052    20703728.370
  24602064.117    -5073518.87449  -3932594.17145  24602064.577    24602079.896
 03  3 26 20 26 30.0000000  0  7G17G10G24G 6G 5G30G29
  22422322.380   -16351137.43049 -12724031.71047  22422321.979    22422331.842
  21261645.449   -19305120.21249 -15020354.19047  21261644.770    21261652.838
  24437484.098    13495373.14849  10532633.04045  24437484.102    24437495.571
  20844236.839   -23077429.11149 -17966049.42147  20844236.745    20844244.180
  22635745.875    -2674996.30749  -2065149.01646  22635745.419    22635755.391
  20713680.251   -22685911.00549 -17661935.29747  20713680.597    20713687.996
  24588598.852    -5144278.93849  -3987731.62845  24588599.017    24588614.293
 03  3 26 20 27  0.0000000  0  7G17G10G24G 6G 5G30G29
  22410830.602   -16411526.84149 -12771088.34147  22410830.175    22410840.055
  21269803.186   -19262250.85349 -14986949.52747  21269802.562    21269810.646
  24453472.709    13579393.33949  10598103.16145  24453472.663    24453484.148
  20836413.414   -23118541.17949 -17998084.80147  20836413.341    20836420.831
  22654611.898    -2575855.47449  -1987896.57246  22654611.478    22654621.437
  20723738.565   -22633054.23549 -17620748.26747  20723738.934    20723746.400
  24575151.738    -5214944.51349  -4042795.45545  24575151.827    24575166.854
 03  3 26 20 27 30.0000000  0  7G17G10G24G 6G 5G30G29
  22399382.120   -16471688.90949 -12817967.81847  22399381.661    22399391.513
  21278069.716   -19218810.06749 -14953099.58647  21278069.049    21278077.142
  24469453.829    13663375.03449  10663543.27145  24469453.879    24469465.382
  20828634.661   -23159418.49249 -18029937.25047  20828634.626    20828642.145
  22673519.314    -2476497.17949  -1910474.66846  22673518.879    22673528.895
  20733895.288   -22579680.26549 -17579158.22547  20733895.683    20733903.161
  24561722.869    -5285512.33349  -4097783.08345  24561723.014    24561738.090
 03  3 26 20 28  0.0000000  0  7G17G10G24G 6G 5G30G29
  22387976.902   -16531623.49349 -12864670.03147  22387976.417    22387986.246
  21286444.576   -19174799.62849 -14918805.76547  21286443.922    21286452.106
  24485427.533    13747317.75549  10728953.04445  24485427.522    24485439.264
  20820900.953   -23200059.32349 -18061605.42247  20820900.920    20820908.484
  22692467.622    -2376923.54149  -1832884.98146  22692467.182    22692477.334
  20744150.250   -22525790.47049 -17537166.23947  20744150.653    20744158.072
  24548313.225    -5355979.12249  -4152692.03145  24548313.367    24548328.396
 03  3 26 20 28 30.0000000  0  8G17G10G24G 6G 5G23G30G29
  22376614.946   -16591330.58049 -12911194.98247  22376614.422    22376624.284
  21294927.566   -19130221.40249 -14884069.52447  21294926.909    21294935.132
  24501393.406    13831220.63349  10794331.79245  24501393.558    24501405.531
  20813212.544   -23240462.17849 -18093088.16347  20813212.513    20813220.080
  22711456.463    -2277137.46949  -1755129.76246  22711455.966    22711466.176
                   -432357.78249   -283995.07144                  24466456.055
  20754502.963   -22471386.78849 -17494773.82447  20754503.356    20754510.844
  24534923.497    -5426342.22549  -4207520.18245  24534923.735    24534938.625
 03  3 26 20 29  0.0000000  0  8G17G10G24G 6G 5G23G30G29
  22365296.002   -16650811.39949 -12957543.62947  22365295.568    22365305.368
  21303518.044   -19085078.21649 -14848893.04847  21303517.382    21303525.621
  24517351.708    13915081.62649  10859677.87745  24517351.791    24517364.092
  20805569.445   -23280626.69349 -18124385.18447  20805569.444    20805577.015
  22730484.984    -2177142.76849  -1677211.96846  22730484.493    22730494.768
  24445719.718     -541237.33849   -368835.75545  24445719.570    24445737.552
  20764952.916   -22416472.13449 -17451983.25147  20764953.302    20764960.844
  24521553.951    -5496599.63749  -4262265.96245  24521553.982    24521568.730
 03  3 26 20 29 30.0000000  0  8G17G10G24G 6G 5G23G30G29
  22354019.925   -16710067.74249 -13003717.35247  22354019.464    22354029.254
  21312215.307   -19039374.18849 -14813279.55547  21312214.621    21312222.860
  24533301.500    13998898.23849  10924989.37645  24533301.818    24533314.072
  20797971.656   -23320553.48149 -18155496.96647  20797971.654    20797979.162
  22749552.236    -2076943.88349  -1599135.07746  22749551.792    22749562.139
  24425012.571     -650052.35449   -453626.19845  24425013.255    24425030.573
  20775499.298   -22361050.69349 -17408797.77447  20775499.711    20775507.293
  24508204.428    -5566750.54349  -4316928.79445  24508204.593    24508219.257
 03  3 26 20 30  0.0000000  0  8G17G10G24G 6G 5G23G30G29
  22342786.356   -16769100.22149 -13049716.64047  22342785.981    22342795.698
  21321018.785   -18993111.89349 -14777231.05347  21321018.076    21321026.384
  24549242.928    14082668.95549  10990265.10245  24549243.082    24549255.141
  20790419.351   -23360241.56049 -18186422.74747  20790419.332    20790426.742
  22768657.847    -1976544.03749  -1520901.60246  22768657.366    22768667.694
  24404318.507     -758801.00449   -538364.95745  24404318.922    24404336.297
  20786141.676   -22305124.72649 -17365219.16447  20786142.073    20786149.728
  24494875.838    -5636792.35449  -4371506.61245  24494875.931    24494890.335
 03  3 26 20 30 30.0000000  0  8G17G10G24G 6G 5G23G30G29
  22331596.012   -16827906.46449 -13095539.63047  22331595.568    22331605.198
  21329928.651   -18946290.31449 -14740746.73647  21329927.958    21329936.291
  24565176.146    14166396.17749  11055506.95145  24565176.201    24565188.049
  20782913.281   -23399686.51049 -18217159.07147  20782913.269    20782920.649
  22787801.803    -1875942.95849  -1442511.32046  22787801.233    22787811.547
  24383637.817     -867477.83749   -623047.72545  24383638.059    24383655.934
  20796880.269   -22248693.24049 -17321246.64747  20796880.689    20796888.329
  24481569.238    -5706719.46449  -4425995.05345  24481569.262    24481583.631
 03  3 26 20 31  0.0000000  0  8G17G10G24G 6G 5G23G30G29
  22320449.136   -16886483.40349 -13141183.95647  22320448.715    22320458.239
  21338945.189   -18898908.26749 -14703825.69347  21338944.516    21338952.768
  24581101.271    14250082.00149  11120716.55045  24581101.278    24581113.078
  20775454.268   -23438883.96949 -18247702.54947  20775454.212    20775461.605
  22806984.045    -1775140.42349  -1363964.05946  22806983.483    22806993.687
  24362972.075     -976077.29049   -707670.24545  24362972.166    24362989.913
  20807715.359   -22191755.16449 -17276879.37947  20807715.758    20807723.348
  24468285.373    -5776525.58749  -4480389.21245  24468285.418    24468299.841
 03  3 26 20 31 30.0000000  0  8G17G10G24G 6G 5G23G30G29
  22309345.917   -16944831.21749 -13186649.73847  22309345.442    22309354.970
  21348067.881   -18850968.35249 -14666469.93647  21348067.171    21348075.411
  24597018.435    14333725.13549  11185892.85745  24597018.248    24597029.927
  20768042.409   -23477833.09749 -18278052.51947  20768042.394    20768049.793
  22826204.087    -1674139.84349  -1285262.47746  22826203.408    22826213.580
  24342321.223    -1084597.84349   -792231.28845  24342320.993    24342338.997
  20818646.258   -22134313.29449 -17232119.54247  20818646.651    20818654.206
  24455024.809    -5846208.59649  -4534687.41945  24455025.109    24455039.217
 03  3 26 20 32  0.0000000  0  8G17G10G24G 6G 5G23G30G29
  22298286.072   -17002950.94049 -13231937.79747  22298285.578    22298295.093
  21357296.185   -18802473.07349 -14628681.44347  21357295.522    21357303.782
  24612927.177    14417324.19649  11251034.82645  24612927.065    24612938.598
  20760678.086   -23516532.77649 -18308208.12147  20760678.092    20760685.477
  22845461.089    -1572944.13549  -1206408.85246  22845460.357    22845470.598
  24321685.865    -1193037.10949   -876728.97845  24321685.448    24321703.336
  20829672.568   -22076369.96549 -17186968.96847  20829672.977    20829680.509
  24441788.492    -5915765.98749  -4588887.76745  24441788.782    24441802.543
 03  3 26 20 32 30.0000000  0  8G17G10G24G 6G 5G23G30G29
  22287269.373   -17060843.25549 -13277048.64947  22287268.895    22287278.501
  21366629.671   -18753425.87549 -14590462.88247  21366628.980    21366637.169
  24628827.038    14500877.88049  11316141.44145  24628826.818    24628838.625
  20753361.377   -23554982.60049 -18338169.03347  20753361.367    20753368.762
  22864754.471    -1471557.00049  -1127406.06646  22864753.810    22864764.152
  24301066.075    -1301393.81949   -961162.34245  24301065.313    24301083.521
  20840793.741   -22017928.19249 -17141429.98947  20840794.129    20840801.619
  24428576.698    -5985195.88349  -4642988.76445  24428576.758    24428590.180
 03  3 26 20 33  0.0000000  0  8G17G10G24G 6G 5G23G30G29
  22276296.101   -17118507.59249 -13321981.86047  22276295.671    22276305.317
  21376067.974   -18703827.65549 -14551814.94547  21376067.247    21376075.444
  24644718.210    14584386.13649  11381212.65645  24644717.886    24644729.761
  20746092.576   -23593180.32649 -18367933.49547  20746092.579    20746099.970
  22884083.858    -1369980.40349  -1048255.66046  22884083.279    22884093.743
  24280462.656    -1409664.79649  -1045528.91845  24280461.956    24280479.804
  20852009.487   -21958989.28549 -17095503.63747  20852009.874    20852017.347
  24415389.279    -6054494.45549  -4696987.42145  24415389.190    24415403.013
 03  3 26 20 33 30.0000000  0  8G17G10G24G 6G 5G23G30G29
  22265366.294   -17175944.21549 -13366737.63447  22265365.838    22265375.440
  21385610.573   -18653680.70749 -14512739.44147  21385609.870    21385618.157
  24660600.720    14667847.68949  11446247.47545  24660600.311    24660611.999
  20738872.002   -23631124.68049 -18397500.53347  20738872.018    20738879.351
  22903448.796    -1268217.26849   -968959.89446  22903448.242    22903458.776
  24259875.760    -1517847.79049  -1129826.93245  24259875.159    24259893.047
  20863319.429   -21899555.56249 -17049191.71447  20863319.784    20863327.283
  24402227.162    -6123659.07749  -4750881.72145  24402227.159    24402241.156
 03  3 26 20 34  0.0000000  0  8G17G10G24G 6G 5G23G30G29
  22254479.624   -17233154.13549 -13411316.75247  22254479.155    22254488.694
  21395256.987   -18602988.16949 -14473238.80247  21395256.352    21395264.687
  24676473.861    14751260.89649  11511244.63345  24676473.672    24676485.176
  20731699.815   -23668815.19149 -18426869.76948  20731699.783    20731707.093
  22922848.631    -1166271.18049   -889521.57246  22922848.082    22922858.639
  24239305.879    -1625941.13649  -1214055.13245  24239305.368    24239323.032
  20874722.903   -21839630.02049 -17002496.55447  20874723.250    20874730.790
  24389091.474    -6192687.82249  -4804670.12845  24389091.463    24389105.138
 03  3 26 20 34 30.0000000  0  8G17G10G24G 6G 5G23G30G29
  22243636.252   -17290136.40249 -13455718.47547  22243635.772    22243645.303
  21405007.100   -18551751.41249 -14433314.08647  21405006.442    21405014.737
  24692337.686    14834625.86149  11576204.22445  24692337.540    24692349.122
  20724576.255   -23706249.64749 -18456039.47748  20724576.205    20724583.584
  22942282.998    -1064144.09549   -809942.22046  22942282.428    22942292.901
  24218753.818    -1733941.72849  -1298211.04145  24218753.536    24218770.603
  20886219.787   -21779213.94849 -16955419.17347  20886220.140    20886227.644
  24375982.183    -6261576.77049  -4858349.60145  24375982.149    24375995.842
 03  3 26 20 35  0.0000000  0  8G17G10G24G 6G 5G23G30G29
  22232836.094   -17346891.60749 -13499943.27847  22232835.628    22232845.112
  21414860.338   -18499972.57749 -14392966.97847  21414859.661    21414867.904
  24708192.280    14917942.00049  11641125.74145  24708192.084    24708203.932
  20717501.745   -23743426.52049 -18485008.47048  20717501.702    20717509.064
  22961751.071     -961838.70549   -730223.93146  22961750.601    22961761.124
  24198219.611    -1841847.09149  -1382292.75545  24198219.492    24198236.376
  20897809.547   -21718309.58249 -16907961.29247  20897809.927    20897817.425
  24362900.106    -6330323.13549  -4911917.97345  24362899.995    24362913.741
 03  3 26 20 35 30.0000000  0  8G17G10G24G 6G 5G23G30G29
  22222078.951   -17403420.50049 -13543991.72847  22222078.495    22222088.061
  21424816.171   -18447654.34849 -14352199.56647  21424815.509    21424823.775
  24724037.581    15001208.14749  11706008.27945  24724037.514    24724049.073
  20710476.410   -23780344.98249 -18513776.10848  20710476.366    20710483.690
  22981252.443     -859358.05949   -650369.08046  22981252.030    22981262.720
  24177703.841    -1949655.46149  -1466298.89245  24177703.895    24177720.663
  20909491.712   -21656919.60349 -16860125.01647  20909492.100    20909499.605
  24349845.733    -6398924.59649  -4965373.42345  24349845.683    24349859.217
 03  3 26 20 36  0.0000000  0  8G17G10G24G 6G 5G23G30G29
  22211364.932   -17459722.55849 -13587863.41847  22211364.542    22211374.055
  21434874.376   -18394798.50849 -14311013.24147  21434873.666    21434881.956
  24739873.429    15084423.92049  11770851.57945  24739873.261    24739884.467
  20703500.688   -23817003.11349 -18542340.89148  20703500.625    20703507.921
  23000786.894     -756704.60249   -570379.57646  23000786.496    23000797.239
  24157207.228    -2057363.88649  -1550227.15445  24157207.294    24157223.957
  20921266.014   -21595045.70149 -16811911.65947  20921266.399    20921273.825
  24336819.325    -6467377.83749  -5018713.37045  24336819.331    24336832.615
 03  3 26 20 36 30.0000000  0  8G17G10G24G 6G 5G23G30G29
  22200694.131   -17515798.21949 -13631558.69747  22200693.680    22200703.160
  21445034.324   -18341407.66749 -14269410.03347  21445033.642    21445041.882
  24755699.222    15167588.30149  11835654.84845  24755699.144    24755710.195
  20696574.657   -23853399.88649 -18570702.01948  20696574.580    20696581.819
  23020353.643     -653881.45249   -490257.84846  23020353.251    23020364.053
  24136730.130    -2164970.21049  -1634075.81145  24136730.190    24136746.912
  20933131.791   -21532690.40949 -16763323.18447  20933132.234    20933139.693
  24323821.494    -6535680.16449  -5071935.74245  24323821.559    24323834.888
 03  3 26 20 37  0.0000000  0  8G17G10G24G 6G 5G23G30G29
  22190066.338   -17571647.16149 -13675077.32047  22190065.937    22190075.412
  21455295.780   -18287483.51049 -14227391.24947  21455295.098    21455303.321
  24771515.052    15250700.99149  11900417.84345  24771515.057    24771526.359
  20689698.770   -23889533.22249 -18598857.87248  20689698.690    20689705.883
  23039952.270     -550890.73049   -410005.55246  23039951.893    23039962.774
  24116272.882    -2272471.43849  -1717842.60445  24116272.883    24116289.749
  20945088.976   -21469855.46749 -16714360.96747  20945089.386    20945096.864
  24310853.407    -6603828.26049  -5125037.90745  24310853.427    24310866.686
 03  3 26 20 37 30.0000000  0  8G17G10G24G 6G 5G23G30G29
  22179481.834   -17627269.22249 -13718419.15347  22179481.355    22179490.874
  21465658.364   -18233027.86149 -14184958.32847  21465657.724    21465665.976
  24787321.138    15333761.92149  11965140.49645  24787321.135    24787332.633
  20682873.285   -23925401.32049 -18626807.04348  20682873.185    20682880.362
  23059582.488     -447734.75749   -329624.48646  23059582.043    23059592.833
  24095836.129    -2379864.79549  -1801525.31745  24095836.220    24095853.346
  20957137.010   -21406542.61649 -16665026.34847  20957137.465    20957144.951
  24297915.172    -6671818.62249  -5178017.19545  24297915.204    24297928.296
 03  3 26 20 38  0.0000000  0  8G17G10G24G 6G 5G23G30G29
  22168940.369   -17682665.00049 -13761584.66147  22168939.872    22168949.419
  21476121.711   -18178043.49449 -14142113.42047  21476121.011    21476129.261
  24803117.019    15416769.81649  12029821.82345  24803116.929    24803128.764
  20676098.419   -23961003.32949 -18654548.87248  20676098.375    20676105.504
  23079243.391     -344416.76349   -249117.16346  23079242.833    23079253.768
  24075420.323    -2487148.51549  -1885122.59845  24075420.424    24075437.559
  20969275.500   -21342754.79549 -16615321.63047  20969275.962    20969283.469
  24285007.136    -6739649.21649  -5230871.97045  24285007.170    24285020.357
